[[{"header":{"parameterUnit":"m.s-1","parameterCategory":1,"la1":31.0,"la2":29.5877,"lo1":-88.7671,"lo2":-86.6584,"dy":0.0162,"dx":0.0185,"nx":115,"ny":88,"refTime":"2023-08-26T06:00:00:Z","depth":0,"parameterNumber":2,"parameterNumberName":"U-component_of_WINDS"},"data":[0.0,0.0,0.0,0.0,0.0,0.0,0.0,0.0,0.0,0.0,0.0,0.0,0.0,0.0,0.0,0.0,0.0,0.0,0.0,0.0,0.0,0.0,0.0,0.0,0.0,0.0,0.0,0.0,0.0,0.0,0.0,0.0,0.0,0.0,0.0,0.0,0.0,0.0,0.0,0.0,0.0,0.0,0.0,0.0,0.0,0.0,0.0,0.0,0.0,0.0,0.0,0.0,0.0,0.0,0.0,0.0,0.0,0.0,0.0,0.0,0.0,0.0,0.0,0.0,0.0,0.0,0.0,0.0,0.0,0.0,0.0,0.0,0.0,0.0,0.0,0.0,0.0,0.0,0.0,0.0,0.0,0.0,0.0,0.0,0.0,0.0,0.0,0.0,0.0,0.0,0.0,0.0,0.0,0.0,0.0,0.0,0.0,0.0,0.0,0.0,0.0,0.0,0.0,0.0,0.0,0.0,0.0,0.0,0.0,0.0,0.0,0.0,0.0,0.0,0.0,0.0,0.0,0.0,0.0,0.0,0.0,0.0,0.0,0.0,0.0,0.0,0.0,0.0,0.0,0.0,0.0,0.0,0.0,0.0,0.0,0.0,0.0,0.0,0.0,0.0,0.0,0.0,0.0,0.0,0.0,0.0,0.0,0.0,0.0,0.0,0.0,0.0,0.0,0.0,0.0,0.0,0.0,0.0,0.0,0.0,0.0,0.0,0.0,0.0,0.0,0.0,0.0,0.0,0.0,0.0,0.0,0.0,0.0,0.0,0.0,0.0,0.0,0.0,0.0,0.0,0.0,0.0,0.0,0.0,0.0,0.0,0.0,0.0,0.0,0.0,0.0,0.0,0.0,0.0,0.0,0.0,0.0,0.0,0.0,0.0,0.0,0.0,0.0,0.0,0.0,0.0,0.0,0.0,0.0,0.0,0.0,0.0,0.0,0.0,0.0,0.0,0.0,0.0,0.0,0.0,0.0,0.0,0.0,0.0,0.0,0.0,0.0,0.0,0.0,0.0,0.0,0.0,0.0,0.0,0.0,0.0,0.0,0.0,0.0,0.0,0.0,0.0,0.0,0.0,0.0,0.0,0.0,0.0,0.0,0.0,0.0,0.0,0.0,0.0,0.0,0.0,0.0,0.0,0.0,0.0,0.0,0.0,0.0,0.0,0.0,0.0,0.0,0.0,0.0,0.0,0.0,0.0,0.0,0.0,0.0,0.0,0.0,0.0,0.0,0.0,0.0,0.0,0.0,0.0,0.0,0.0,0.0,0.0,0.0,0.0,0.0,0.0,0.0,0.0,0.0,0.0,0.0,0.0,0.0,0.0,0.0,0.0,0.0,0.0,0.0,0.0,0.0,0.0,0.0,0.0,0.0,0.0,0.0,0.0,0.0,0.0,0.0,0.0,0.0,0.0,0.0,0.0,0.0,0.0,0.0,0.0,0.0,0.0,0.0,0.0,0.0,0.0,0.0,0.0,0.0,0.0,0.0,0.0,0.0,0.0,0.0,0.0,0.0,0.0,0.0,0.0,0.0,0.0,0.0,0.0,0.0,0.0,0.0,0.0,0.0,0.0,0.0,0.0,0.0,0.0,0.0,0.0,0.0,0.0,0.0,0.0,0.0,0.0,0.0,0.0,0.0,0.0,0.0,0.0,0.0,0.0,0.0,0.0,0.0,0.0,0.0,0.0,0.0,0.0,0.0,0.0,0.0,0.0,0.0,0.0,0.0,0.0,0.0,0.0,0.0,0.0,0.0,0.0,0.0,0.0,0.0,0.0,0.0,0.0,0.0,0.0,0.0,0.0,0.0,0.0,0.0,0.0,0.0,0.0,0.0,0.0,0.0,0.0,0.0,0.0,0.0,0.0,0.0,0.0,0.0,0.0,0.0,0.0,0.0,0.0,0.0,0.0,0.0,0.0,0.0,0.0,0.0,0.0,0.0,0.0,0.0,0.0,0.0,0.0,0.0,0.0,0.0,0.0,0.0,0.0,0.0,0.0,0.0,0.0,0.0,0.0,0.0,0.0,0.0,0.0,0.0,0.0,0.0,0.0,0.0,0.0,0.0,0.0,0.0,0.0,0.0,0.0,0.0,0.0,0.0,0.0,0.0,0.0,0.0,0.0,0.0,0.0,0.0,0.0,0.0,0.0,0.0,0.0,0.0,0.0,0.0,0.0,0.0,0.0,0.0,0.0,0.0,0.0,0.0,0.0,0.0,0.0,0.0,0.0,0.0,0.0,0.0,0.0,0.0,0.0,0.0,0.0,0.0,0.0,0.0,0.0,0.0,0.0,0.0,0.0,0.0,0.0,0.0,0.0,0.0,0.0,0.0,0.0,0.0,0.0,0.0,0.0,0.0,0.0,0.0,0.0,0.0,0.0,0.0,0.0,0.0,0.0,0.0,0.0,0.0,0.0,0.0,0.0,0.0,0.0,0.0,0.0,0.0,0.0,0.0,0.0,0.0,0.0,0.0,0.0,0.0,0.0,0.0,0.0,0.0,0.0,0.0,0.0,0.0,0.0,0.0,0.0,0.0,0.0,0.0,0.0,0.0,0.0,0.0,0.0,0.0,0.0,0.0,0.0,0.0,0.0,0.0,0.0,0.0,0.0,0.0,0.0,0.0,0.0,0.0,0.0,0.0,0.0,0.0,0.0,0.0,0.0,0.0,0.0,0.0,0.0,0.0,0.0,0.0,0.0,0.0,0.0,0.0,0.0,0.0,0.0,0.0,0.0,0.0,0.0,0.0,0.0,0.0,0.0,0.0,0.0,0.0,0.0,0.0,0.0,0.0,0.0,0.0,0.0,0.0,0.0,0.0,0.0,0.0,0.0,0.0,0.0,0.0,0.0,0.0,0.0,0.0,0.0,0.0,0.0,0.0,0.0,0.0,0.0,0.0,0.0,0.0,0.0,0.0,0.0,0.0,0.0,0.0,0.0,0.0,0.0,0.0,0.0,0.0,0.0,0.0,0.0,0.0,0.0,0.0,0.0,0.0,0.0,0.0,0.0,0.0,0.0,0.0,0.0,0.0,0.0,0.0,0.0,0.0,0.0,0.0,0.0,0.0,0.0,0.0,0.0,0.0,0.0,0.0,0.0,0.0,0.0,0.0,0.0,0.0,0.0,0.0,0.0,0.0,0.0,0.0,0.0,0.0,0.0,0.0,0.0,0.0,0.0,0.0,0.0,0.0,0.0,0.0,0.0,0.0,0.0,0.0,0.0,0.0,0.0,0.0,0.0,0.0,0.0,0.0,0.0,0.0,0.0,0.0,0.0,0.0,0.0,0.0,0.0,0.0,0.0,0.0,0.0,0.0,0.0,0.0,0.0,0.0,0.0,0.0,0.0,0.0,0.0,0.0,0.0,0.0,0.0,0.0,0.0,0.0,0.0,0.0,0.0,0.0,0.0,0.0,0.0,0.0,0.0,0.0,0.0,0.0,0.0,0.0,0.0,0.0,0.0,0.0,0.0,0.0,0.0,0.0,0.0,0.0,0.0,0.0,0.0,0.0,0.0,0.0,0.0,0.0,0.0,0.0,0.0,0.0,0.0,0.0,0.0,0.0,0.0,0.0,0.0,0.0,0.0,0.0,0.0,0.0,0.0,0.0,0.0,0.0,0.0,0.0,0.0,0.0,0.0,0.0,0.0,0.0,0.0,0.0,0.0,0.0,0.0,0.0,0.0,0.0,0.0,0.0,0.0,0.0,0.0,0.0,0.0,0.0,0.0,0.0,0.0,0.0,0.0,0.0,0.0,0.0,0.0,0.0,0.0,0.0,0.0,0.0,0.0,0.0,0.0,0.0,0.0,0.0,0.0,0.0,0.0,0.0,0.0,0.0,0.0,0.0,0.0,0.0,0.0,0.0,0.0,0.0,0.0,0.0,0.0,0.0,0.0,0.0,0.0,0.0,0.0,0.0,0.0,0.0,0.0,0.0,0.0,0.0,0.0,0.0,0.0,0.0,0.0,0.0,0.0,0.0,0.0,0.0,0.0,0.0,0.0,0.0,0.0,0.0,0.0,0.0,0.0,0.0,0.0,0.0,0.0,0.0,0.0,0.0,0.0,0.0,0.0,0.0,0.0,0.0,0.0,0.0,0.0,0.0,0.0,0.0,0.0,0.0,0.0,0.0,0.0,0.0,0.0,0.0,0.0,0.0,0.0,0.0,0.0,0.0,0.0,0.0,0.0,0.0,0.0,0.0,0.0,0.0,0.0,0.0,0.0,0.0,0.0,0.0,0.0,0.0,0.0,0.0,0.0,0.0,0.0,0.0,0.0,1.007,0.0,0.0,0.0,0.0,0.0,0.0,0.0,0.0,0.0,0.0,0.0,0.0,0.0,0.0,0.0,0.0,0.0,0.0,0.0,0.0,0.0,0.0,0.0,0.0,0.0,0.0,0.0,0.0,0.0,0.0,0.0,0.0,0.0,0.0,0.0,0.0,0.0,0.0,0.0,0.0,0.0,0.0,0.0,0.0,0.0,0.0,0.0,0.0,0.0,0.0,0.0,0.0,0.0,0.0,0.0,0.0,0.0,0.0,0.0,0.0,0.0,0.0,0.0,0.0,0.0,0.0,0.0,0.0,0.0,0.0,0.0,0.0,0.0,0.0,0.0,0.0,0.0,0.0,0.0,0.0,0.0,0.0,0.0,0.0,0.0,0.0,0.0,0.0,0.0,0.0,0.0,0.0,0.0,0.0,0.0,0.0,0.0,0.0,0.0,0.0,0.0,0.0,0.0,0.0,0.0,0.0,0.0,0.0,0.0,0.0,0.9857,1.0109,1.0074,1.0093,1.0171,0.0,0.0,0.0,0.0,0.0,0.0,0.0,0.0,0.0,0.0,0.0,0.0,0.0,0.0,0.0,0.0,0.0,0.0,0.0,0.0,0.0,0.0,0.0,0.0,0.0,0.0,0.0,0.0,0.0,0.0,0.0,0.0,0.0,0.0,0.0,0.0,0.0,0.0,0.0,0.0,0.0,0.0,0.0,0.0,0.0,0.0,0.0,0.0,0.0,0.0,0.0,0.0,0.0,0.0,0.0,0.0,0.0,0.0,0.0,0.0,0.0,0.0,0.0,0.0,0.0,0.0,0.0,0.0,0.0,0.0,0.0,0.0,0.0,0.0,0.0,0.0,0.0,0.0,0.0,0.0,0.0,0.0,0.0,0.0,0.0,0.0,0.0,0.0,0.0,0.0,0.0,0.0,0.0,0.0,0.0,0.0,0.0,0.0,0.0,0.0,0.0,0.0,0.0,0.0,0.0,0.0,0.0,0.0,0.0,0.0,0.0,0.0,1.0113,1.0144,1.0228,0.0,0.0,0.0,0.0,0.0,0.0,0.0,0.0,0.0,0.0,0.0,0.0,0.0,0.0,0.0,0.0,0.0,0.0,0.0,0.0,0.0,0.0,0.0,0.0,0.0,0.0,0.0,0.0,0.0,0.0,0.0,0.0,0.0,0.0,0.0,0.0,0.0,0.0,0.0,0.0,0.0,0.0,0.0,0.0,0.0,0.0,0.0,0.0,0.0,0.0,0.0,0.0,0.0,0.0,0.0,0.0,0.0,0.0,0.0,0.0,0.0,0.0,0.0,0.0,0.0,0.0,0.0,0.0,0.0,0.0,0.0,0.0,0.0,0.0,0.0,0.0,0.0,0.0,0.0,0.0,0.0,0.0,0.0,0.0,0.0,0.0,0.0,0.0,0.0,0.0,0.0,0.0,0.0,0.0,0.0,0.0,0.0,0.0,0.0,0.0,0.0,0.0,0.0,0.0,0.0,0.0,0.0,0.0,0.0,0.0,1.0082,1.0094,1.0156,0.0,1.0239,0.0,0.0,0.0,0.0,0.0,0.0,0.0,0.0,0.0,0.0,0.0,0.0,0.0,0.0,0.0,0.0,0.0,0.0,0.0,0.0,0.0,0.0,0.0,0.0,0.0,0.0,0.0,0.0,0.0,0.0,0.0,0.0,0.0,0.0,0.0,0.0,0.0,0.0,0.0,0.0,0.0,0.0,0.0,0.0,0.0,0.0,0.0,0.0,0.0,0.0,0.0,0.0,0.0,0.0,0.0,0.0,0.0,0.0,0.0,0.0,0.0,0.0,0.0,0.0,0.0,0.0,0.0,0.0,0.0,0.0,0.0,0.0,0.0,0.0,0.0,0.0,0.0,0.0,0.0,0.0,0.0,0.0,0.0,0.0,0.0,0.0,0.0,0.0,0.0,0.0,0.0,0.0,0.0,0.0,0.0,0.0,0.0,0.0,0.0,0.0,0.0,0.0,0.0,0.0,0.0,0.0,0.0,0.0,0.0,0.0,1.008,1.0156,1.0194,1.019,0.0,0.0,0.0,0.0,0.0,0.0,0.0,0.0,0.0,0.0,0.0,0.0,0.0,0.0,0.0,0.0,0.0,0.0,0.0,0.0,0.0,0.0,0.0,0.0,0.0,0.0,0.0,0.0,0.0,0.0,0.0,0.0,0.0,0.0,0.0,0.0,0.0,0.0,0.0,0.0,0.0,0.0,0.0,0.0,0.0,0.0,0.0,0.0,0.0,0.0,0.0,0.0,0.0,0.0,0.0,0.0,0.0,0.0,0.0,0.0,0.0,0.0,0.0,0.0,0.0,0.0,0.0,0.0,0.0,0.0,0.0,0.0,0.0,0.0,0.0,0.0,0.0,0.0,0.0,0.0,0.0,0.0,0.0,0.0,0.0,0.0,0.0,0.0,0.0,0.0,0.0,0.0,0.0,0.0,0.0,0.0,0.0,0.0,0.0,0.0,0.0,0.0,0.0,0.0,0.0,0.0,0.0,0.0,0.0,0.0,0.9695,0.985,1.0175,1.0194,1.0201,1.023,0.0,0.0,0.0,0.0,0.0,0.0,0.0,0.0,0.0,0.0,0.0,0.0,0.0,0.0,0.0,0.0,0.0,0.0,0.0,0.0,0.0,0.0,0.0,0.0,0.0,0.0,0.0,0.0,0.0,0.0,0.0,0.0,0.0,0.0,0.0,0.0,0.0,0.0,0.0,0.0,0.0,0.0,0.0,0.0,0.0,0.0,0.0,0.0,0.0,0.0,0.0,0.0,0.0,0.0,0.0,0.0,0.0,0.0,0.0,0.0,0.0,0.0,0.0,0.0,0.0,0.0,0.0,0.0,0.0,0.0,0.0,0.0,0.0,0.0,0.0,0.0,0.0,0.0,0.0,0.0,0.0,0.0,0.0,0.0,0.0,0.0,0.0,0.0,0.0,0.0,0.0,0.0,0.0,0.0,0.0,0.0,0.0,0.0,0.0,0.0,0.0,0.0,0.0,0.0,0.0,0.0,0.0,0.0,0.8947,0.8951,0.9336,1.0144,1.0194,1.0216,0.0,0.0,0.0,0.0,0.0,0.0,0.0,0.0,0.0,0.0,0.0,0.0,0.0,0.0,0.0,0.0,0.0,0.0,0.0,0.0,0.0,0.0,0.0,0.0,0.0,0.0,0.0,0.0,0.0,0.0,0.0,0.0,0.0,0.0,0.0,0.0,0.0,0.0,0.0,0.0,0.0,0.0,0.0,0.0,0.0,0.0,0.0,0.0,0.0,0.0,0.0,0.0,0.0,0.0,0.0,0.0,0.0,0.0,0.0,0.0,0.0,0.0,0.0,0.0,0.0,0.0,0.0,0.0,0.0,0.0,0.0,0.0,0.0,0.0,0.0,0.0,0.0,0.0,0.0,0.0,0.0,0.0,0.0,0.0,0.0,0.0,0.0,0.0,0.0,0.0,0.0,0.0,0.0,0.0,0.0,0.0,0.0,0.0,0.0,0.0,0.0,0.0,0.0,0.0,0.0,0.0,0.0,0.0,0.0,0.8104,0.8116,0.8499,0.9257,0.9389,0.9654,0.0,0.0,0.0,0.0,0.0,0.0,0.0,0.0,0.0,0.0,0.0,0.0,0.0,0.0,0.0,0.0,0.0,0.0,0.0,0.0,0.0,0.0,0.0,0.0,0.0,0.0,0.0,0.0,0.0,0.0,0.0,0.0,0.0,0.0,0.0,0.0,0.0,0.0,0.0,0.0,0.0,0.0,0.0,0.0,0.0,0.0,0.0,0.0,0.0,0.0,0.0,0.0,0.0,0.0,0.0,0.0,0.0,0.0,0.0,0.0,0.0,0.0,0.0,0.0,0.0,0.0,0.0,0.0,0.0,0.0,0.0,0.0,0.0,0.0,0.0,0.0,0.0,0.0,0.0,0.0,0.0,0.0,0.0,0.0,0.0,0.0,0.0,0.0,0.0,0.0,0.0,0.0,0.0,0.0,0.0,0.0,0.0,0.0,0.0,0.0,0.0,0.0,0.0,0.0,0.0,0.0,0.0,0.0,0.0,0.7601,0.0,0.8571,0.0,0.9152,0.9475,0.0,0.0,0.0,0.0,0.0,0.0,0.0,0.0,0.0,0.0,0.0,0.0,0.0,0.0,0.0,0.0,0.0,0.0,0.0,0.0,0.0,0.0,0.0,0.0,0.0,0.0,0.0,0.0,0.0,0.0,0.0,0.0,0.0,0.0,0.0,0.0,0.0,0.0,0.0,0.0,0.0,0.0,0.0,0.0,0.0,0.0,0.0,0.0,0.0,0.0,0.0,0.0,0.0,0.0,0.0,0.0,0.0,0.0,0.0,0.0,0.0,0.0,0.0,0.0,0.0,0.0,0.0,0.0,0.0,0.0,0.0,0.0,0.0,0.0,0.0,0.0,0.0,0.0,0.0,0.0,0.0,0.0,0.0,0.0,0.0,0.0,0.0,0.0,0.0,0.0,0.0,0.0,0.0,0.0,0.0,0.0,0.0,0.0,0.0,0.0,0.0,0.0,0.0,0.0,0.0,0.0,0.0,0.0,0.7595,0.7545,0.9047,0.9455,0.8852,0.9574,0.9703,0.0,0.0,0.0,0.0,0.0,0.0,0.0,0.0,0.0,0.0,0.0,0.0,0.0,0.0,0.0,0.0,0.0,0.0,0.0,0.0,0.0,0.0,0.0,0.0,0.0,0.0,0.0,0.0,0.0,0.0,0.0,0.0,0.0,0.0,0.0,0.0,0.0,0.0,0.0,0.0,0.0,0.0,0.0,0.0,0.0,0.0,0.0,0.0,0.0,0.0,0.0,0.0,0.0,0.0,0.0,0.0,0.0,0.0,0.0,0.0,0.0,0.0,0.0,0.0,0.0,0.0,0.0,0.0,0.0,0.0,0.0,0.0,0.0,0.0,0.0,0.0,0.0,0.0,0.0,0.0,0.0,0.0,0.0,0.0,0.0,0.0,0.0,0.0,0.0,0.0,0.0,0.0,0.0,0.0,0.0,0.0,0.0,0.0,0.0,0.0,0.0,0.0,0.0,0.0,0.0,0.0,0.0,0.0,0.0,0.6803,0.7707,0.8344,0.8582,0.8928,0.9208,0.0,0.0,0.0,0.0,0.0,0.0,0.0,0.0,0.0,0.0,0.0,0.0,0.0,0.0,0.0,0.0,0.0,0.0,0.0,0.0,0.0,0.0,0.0,0.0,0.0,0.0,0.0,0.0,0.0,0.0,0.0,0.0,0.0,0.0,0.0,0.0,0.0,0.0,0.0,0.0,0.0,0.0,0.0,0.0,0.0,0.0,0.0,0.0,0.0,0.0,0.0,0.0,0.0,0.0,0.0,0.0,0.0,0.0,0.0,0.0,0.0,0.0,0.0,0.0,0.0,0.0,0.0,0.0,0.0,0.0,0.0,0.0,0.0,0.0,0.0,0.0,0.0,0.0,0.0,0.0,0.0,0.0,0.0,0.0,0.0,0.0,0.0,0.0,0.0,0.0,0.0,0.0,0.0,0.0,0.0,0.0,0.0,0.0,0.0,0.0,0.0,0.0,0.0,0.0,0.0,0.0,0.0,0.0,0.0,0.8023,0.8643,0.9062,0.9207,0.9621,0.9643,0.9194,0.0,0.0,0.0,0.0,0.0,0.0,0.0,0.0,0.0,0.0,0.0,0.0,0.0,0.0,0.0,0.0,0.0,0.0,0.0,0.0,0.0,0.0,0.0,0.0,0.0,0.0,0.0,0.0,0.0,0.0,0.0,0.0,0.0,0.0,0.0,0.0,0.0,0.0,0.0,0.0,0.0,0.0,0.0,0.0,0.0,0.0,0.0,0.0,0.0,0.0,0.0,0.0,0.0,0.0,0.0,0.0,0.0,0.0,0.0,0.0,0.0,0.0,0.0,0.0,0.0,0.0,0.0,0.0,0.0,0.0,0.0,0.0,0.0,0.0,0.0,0.0,0.0,0.0,0.0,0.0,0.0,0.0,0.0,0.0,0.0,0.0,0.0,0.0,0.0,0.0,0.0,0.0,0.0,0.0,0.0,0.0,0.0,0.0,0.0,0.0,0.0,0.0,0.0,0.0,0.0,0.0,0.0,0.0,1.0715,1.1475,1.147,1.0603,1.1316,1.0748,0.0,0.0,0.0,0.0,0.0,0.0,0.0,0.0,0.0,0.0,0.0,0.0,0.0,0.0,0.0,0.0,0.0,0.0,0.0,0.0,0.0,0.0,0.0,0.0,0.0,0.0,0.0,0.0,0.0,0.0,0.0,0.0,0.0,0.0,0.0,0.0,0.0,0.0,0.0,0.0,0.0,0.0,0.0,0.0,0.0,0.0,0.0,0.0,0.0,0.0,0.0,0.0,0.0,0.0,0.0,0.0,0.0,0.0,0.0,0.0,0.0,0.0,0.0,0.0,0.0,0.0,0.0,0.0,0.0,0.0,0.0,0.0,0.0,0.0,0.0,0.0,0.0,0.0,0.0,0.0,0.0,0.0,0.0,0.0,0.0,0.0,0.0,0.0,0.0,0.0,0.0,0.0,0.0,0.0,0.0,0.0,0.0,0.0,0.0,0.0,0.0,0.0,0.0,0.0,0.0,0.0,0.0,0.0,0.0,1.3143,1.3938,1.3769,1.2506,1.1668,1.0869,0.0,0.0,0.0,0.0,0.0,0.0,0.0,0.0,0.0,0.0,0.0,0.0,0.0,0.0,0.0,0.0,0.0,0.0,0.0,0.0,0.0,0.0,0.0,0.0,0.0,0.0,0.0,0.0,0.0,0.0,0.0,0.0,0.0,0.0,0.0,0.0,0.0,0.0,0.0,0.0,0.0,0.0,0.0,0.0,0.0,0.0,0.0,0.0,0.0,0.0,0.0,0.0,0.0,0.0,0.0,0.0,0.0,0.0,0.0,0.0,0.0,0.0,0.0,0.0,0.0,0.0,0.0,0.0,0.0,0.0,0.0,0.0,0.0,0.0,0.0,0.0,0.0,0.0,0.0,0.0,0.0,0.0,0.0,0.0,0.0,0.0,0.0,0.0,0.0,0.0,0.0,0.0,0.0,0.0,0.0,0.0,0.0,0.0,0.0,0.0,0.0,0.0,0.0,0.0,0.0,0.0,0.0,0.0,1.3007,1.3883,1.5133,1.5551,1.5018,1.3035,1.1515,0.0,0.0,0.0,0.0,0.0,0.0,0.0,0.0,0.0,0.0,0.0,0.0,0.0,0.0,0.0,0.0,0.0,0.0,0.0,0.0,0.0,0.0,0.0,0.0,0.0,0.0,0.0,0.0,0.0,0.0,0.0,0.0,0.0,0.0,0.0,0.0,0.0,0.0,0.0,0.0,0.0,0.0,0.0,0.0,0.0,0.0,0.0,0.0,0.0,0.0,0.0,0.0,0.0,0.0,0.0,0.0,0.0,0.0,0.0,0.0,0.0,0.0,0.0,0.0,0.0,0.0,0.0,0.0,0.0,0.0,0.0,0.0,0.0,0.0,0.0,0.0,0.0,0.0,0.0,0.0,0.0,0.0,0.0,0.0,0.0,0.0,0.0,0.0,0.0,0.0,0.0,0.0,0.0,0.0,0.0,0.0,0.0,0.0,0.0,0.0,0.0,0.0,0.0,0.0,0.0,0.0,0.0,0.0,1.3573,1.3772,1.5609,1.6853,1.7272,1.4688,1.2385,0.0,0.0,0.0,0.0,0.0,0.0,0.0,0.0,0.0,0.0,0.0,0.0,0.0,0.0,0.0,0.0,0.0,0.0,0.0,0.0,0.0,0.0,0.0,0.0,0.0,0.0,0.0,0.0,0.0,0.0,0.0,0.0,0.0,0.0,0.0,0.0,0.0,0.0,0.0,0.0,0.0,0.0,0.0,0.0,0.0,0.0,0.0,0.0,0.0,0.0,0.0,0.0,0.0,0.0,0.0,0.0,0.0,0.0,0.0,0.0,0.0,0.0,0.0,0.0,0.0,0.0,0.0,0.0,0.0,0.0,0.0,0.0,0.0,0.0,0.0,0.0,0.0,0.0,0.0,0.0,0.0,0.0,0.0,0.0,0.0,0.0,0.0,0.0,0.0,0.0,0.0,0.0,0.0,0.0,0.0,0.0,0.0,0.0,0.0,0.0,0.0,0.0,0.0,0.0,0.0,0.0,0.0,0.0,1.4245,1.4868,1.6425,1.7103,1.6699,1.426,1.2809,0.0,0.0,0.0,0.0,0.0,0.0,0.0,0.0,0.0,0.0,0.0,0.0,0.0,0.0,0.0,0.0,0.0,0.0,0.0,0.0,0.0,0.0,0.0,0.0,0.0,0.0,0.0,0.0,0.0,0.0,0.0,0.0,0.0,0.0,0.0,0.0,0.0,0.0,0.0,0.0,0.0,0.0,0.0,0.0,0.0,0.0,0.0,0.0,0.021,0.0,0.0,0.0,0.0,0.0,0.0,0.0,0.0,0.0,0.0,0.0,0.0,0.0,0.0,0.0,0.0,0.0,0.0,0.0,0.0,0.0,0.0,0.0,0.0,0.0,0.0,0.0,0.0,0.0,0.0,0.0,0.0,0.0,0.0,0.0,0.0,0.0,0.0,0.0,0.0,0.0,0.0,0.0,0.0,0.0,0.0,0.0,0.0,0.0,0.0,0.0,0.0,0.0,0.0,0.0,0.0,0.0,0.0,0.0,1.3824,1.476,1.5742,1.6312,1.6358,1.3953,1.2649,0.0,0.0,0.0,0.0,0.0,0.0,0.0,0.0,0.0,0.0,0.0,0.0,0.0,0.0,0.0,0.0,0.0,0.0,0.0,0.0,0.0,0.0,0.0,0.0,0.0,0.0,0.0,0.0,0.0,0.0,0.0,0.0,0.0,0.0,0.0,0.0,0.0,0.0,0.0,0.0,0.0,0.0,0.0,0.0,0.0,0.0,0.0,0.0,0.0,0.0,0.0,0.0,0.0,0.0,0.0,0.0,0.0,0.0,0.0,0.0,0.0,0.0,0.0,0.0,0.0,0.0,0.0,0.0,0.0,0.0,0.0,0.0,0.0,0.0,0.0,0.0,0.0,0.0,0.0,0.0,0.0,0.0,0.0,0.0,0.0,0.0,0.0,0.0,0.0,0.0,0.0,0.0,0.0,0.0,0.0,0.0,0.0,0.0,0.0,0.0,0.0,0.0,0.0,0.0,0.0,0.0,0.0,1.1955,1.3241,1.4406,1.485,1.5399,1.6071,1.3732,1.2313,1.2062,0.0,0.0,0.0,0.0,0.0,0.0,0.0,0.0,0.0,0.0,0.0,0.0,0.0,0.0,0.0,0.0,0.0,0.0,0.0,0.0,0.0,0.0,0.0,0.0,0.0,0.0,0.0,0.0,0.0,0.0,0.0,0.0,0.0,0.0,0.0,0.0,0.0,0.0,0.2826,0.1156,0.0,0.0,0.0,0.0,0.0,0.0,0.0,0.0,-0.1239,0.0,0.0,0.0,0.0,0.0,0.0,0.0,0.0,0.0,0.0,0.0,0.0,0.0,0.0,0.0,0.0,0.0,0.0,0.0,0.0,0.0,0.0,0.0,0.0,0.0,0.0,0.0,0.0,0.0,0.0,0.0,0.0,0.0,0.0,0.0,0.0,0.0,0.0,0.0,0.0,0.0,0.0,0.0,0.0,0.0,0.0,0.0,0.0,0.0,0.0,0.0,0.0,0.0,0.0,0.0,0.0,1.2259,1.2963,1.3962,1.522,1.5819,1.5776,1.4971,1.3368,1.2287,1.186,0.0,0.0,0.0,0.0,0.0,0.0,0.0,0.0,0.0,0.0,0.0,0.0,0.0,0.0,0.0,0.0,0.0,0.0,0.0,0.0,0.0,0.0,0.0,0.0,0.0,0.0,0.0,0.0,0.0,0.0,0.0,0.0,0.0,0.0,0.0,0.0,0.0,0.0,0.0,-0.204,-0.2661,0.0,0.0,0.0,0.0,0.0,0.0,0.0,0.0,-0.1866,0.0,0.0,0.0,0.0,0.0,0.0,0.0,0.0,0.0,0.0,0.0,0.0,0.0,0.0,0.0,0.0,0.0,0.0,0.0,0.0,0.0,0.0,0.0,0.0,0.0,0.0,0.0,0.0,0.0,0.0,0.0,0.0,0.0,0.0,0.0,0.0,0.0,0.0,0.0,0.0,0.0,0.0,0.0,0.0,0.0,0.0,0.0,0.0,0.0,0.0,0.0,0.0,0.0,0.0,0.0,1.1928,1.2947,1.3846,1.457,1.4334,1.4047,1.3695,1.1827,1.0787,0.0,0.0,0.0,0.0,0.0,0.0,0.0,0.0,0.0,0.0,0.0,0.0,0.0,0.0,0.0,0.0,0.0,0.0,0.0,0.0,0.0,0.0,0.0,0.0,0.0,0.0,0.0,0.0,0.0,0.0,0.0,0.0,0.0,0.0,0.0,0.0,0.0,0.0,0.0,0.0,-0.336,-0.4243,-0.5043,0.0,0.0,0.0,0.0,0.0,0.0,-0.2589,-0.2243,0.0,0.0,0.0,0.0,0.0,0.0,0.0,0.0,0.0,0.0,0.0,0.0,0.0,0.0,0.0,0.0,0.0,0.0,0.0,0.0,0.0,0.0,0.0,0.0,0.0,0.0,0.0,0.0,0.0,0.0,0.0,0.0,0.0,0.0,0.0,0.0,0.0,0.0,0.0,0.0,0.0,0.0,0.0,0.0,0.0,0.0,0.0,0.0,0.0,0.0,0.0,0.0,0.0,0.0,0.0,1.1535,1.2608,1.3334,1.3596,1.2579,1.212,1.2347,1.0312,0.9373,0.0,0.0,0.0,0.0,0.0,0.0,0.0,0.0,0.0,0.0,0.0,0.0,0.0,0.0,0.0,0.0,0.0,0.0,0.0,0.0,0.0,0.0,0.0,0.0,0.0,0.0,0.0,0.0,0.0,0.0,0.0,0.0,0.0,0.0,0.0,0.0,0.0,0.0,0.0,0.0,0.0,-0.5324,-0.6523,-0.5603,0.0,0.0,0.0,0.0,-0.3378,-0.3146,0.0,0.0,0.0,0.0,0.0,0.0,0.0,0.0,0.0,0.0,0.0,0.0,0.0,0.0,0.0,0.0,0.0,0.0,0.0,0.0,0.0,0.0,0.0,0.0,0.0,0.0,0.0,0.0,0.0,0.0,0.0,0.0,0.0,0.0,0.0,0.0,0.0,0.0,0.0,0.0,0.0,0.0,0.0,0.0,0.0,0.0,0.0,0.0,0.0,0.0,0.0,0.0,0.0,0.0,0.0,0.0,1.2483,1.2188,1.2319,1.2855,1.2136,1.1527,1.104,0.9548,0.896,0.0,0.0,0.0,0.0,0.0,0.0,0.0,0.0,0.0,0.0,0.0,0.0,0.0,0.0,0.0,0.0,0.0,0.0,0.0,0.0,0.0,0.0,0.0,0.0,0.0,0.0,0.0,0.0,0.0,0.0,0.0,0.0,0.0,0.0,0.0,0.0,0.0,0.0,0.0,0.0,0.0,-0.5831,-0.4866,-0.527,-0.5139,0.0,0.0,-0.489,-0.5286,-0.5214,0.0,0.0,0.0,0.0,0.0,0.0,0.0,0.0,0.0,0.0,0.0,0.0,0.0,0.0,0.0,0.0,0.0,0.0,0.0,0.0,0.0,0.0,0.0,0.0,0.0,0.0,0.0,0.0,0.0,0.0,0.0,0.0,0.0,0.0,0.0,0.0,0.0,0.0,0.0,0.0,0.0,0.0,0.0,0.0,0.0,0.0,0.0,0.0,0.0,0.0,0.0,0.0,0.0,0.0,0.0,1.192,1.1286,1.1988,1.1945,1.1064,1.0343,0.9908,0.9607,0.8018,0.7668,0.0,0.0,0.0,0.0,0.0,0.0,0.0,0.0,0.0,0.0,0.0,0.0,0.0,0.0,0.0,0.0,0.0,0.0,0.0,0.0,0.0,0.0,0.0,0.0,0.0,0.0,0.0,0.0,0.0,0.0,0.0,0.0,0.0,0.0,0.0,0.0,0.0,0.0,0.0,0.0,0.0,0.0,-0.6949,-0.6753,0.0,0.0,0.0,-0.5055,-0.4853,0.0,0.0,0.0,0.0,0.0,0.0,0.0,0.0,0.0,0.0,0.0,0.0,0.0,0.0,0.0,0.0,0.0,0.0,0.0,0.0,0.0,0.0,0.0,0.0,0.0,0.0,0.0,0.0,0.0,0.0,0.0,0.0,0.0,0.0,0.0,0.0,0.0,0.0,0.0,0.0,0.0,0.0,0.0,0.0,0.0,0.0,0.0,0.0,0.0,0.0,0.0,0.0,0.0,0.0,0.0,0.0,0.0,1.0082,1.1198,1.0939,0.9261,0.8508,0.8159,0.814,0.6724,0.0,0.0,0.0,0.0,0.0,0.0,0.0,0.0,0.0,0.0,0.0,0.0,0.0,0.0,0.0,0.0,0.0,0.0,0.0,0.0,0.0,0.0,0.0,0.0,0.0,0.0,0.0,0.7929,0.0,0.0,0.0,0.0,0.0,0.0,0.0,0.0,0.0,0.0,0.0,0.0,0.0,0.0,-0.695,-0.852,-0.8061,-0.7732,0.0,0.0,-0.5733,-0.5418,-0.6361,-0.6427,0.0,0.0,0.0,0.0,0.0,0.0,0.0,0.0,0.0,0.0,0.0,0.0,0.0,0.0,0.0,0.0,0.0,0.0,0.0,0.0,0.0,0.0,0.0,0.0,0.0,0.0,0.0,0.0,0.0,0.0,0.0,0.0,0.0,0.0,0.0,0.0,0.0,0.0,0.0,0.0,0.0,0.0,0.0,0.0,0.0,0.0,0.0,0.0,0.0,0.0,0.0,0.0,0.0,0.0,0.0,0.9848,0.9275,0.8613,0.7764,0.7106,0.675,0.6735,0.6167,0.6083,0.0,0.0,0.0,0.0,0.0,0.0,0.0,0.0,0.0,0.0,0.0,0.0,0.0,0.0,0.0,0.0,0.0,0.0,0.0,0.0,0.0,0.0,0.0,0.0,0.0,0.0,0.0,0.0,0.0,0.0,0.0,0.0,0.0,0.0,0.0,0.0,0.0,0.0,0.0,0.0,0.0,-0.678,-0.7822,-0.8503,-0.9063,0.0,0.0,-0.797,-0.8505,-0.8553,-0.7885,-0.5893,0.0,0.0,0.0,0.0,0.0,0.0,0.0,0.0,0.0,0.0,0.0,0.0,0.0,0.0,0.0,0.0,0.0,0.0,0.0,0.0,0.0,0.0,0.0,0.0,0.0,0.0,0.0,0.0,0.0,0.0,0.0,0.0,0.0,0.0,0.0,0.0,0.0,0.0,0.0,0.0,0.0,0.0,0.0,0.0,0.0,0.0,0.0,0.0,0.0,0.0,0.0,0.0,0.0,0.9902,0.8533,0.8166,0.7452,0.6338,0.6027,0.5928,0.5928,0.5391,0.5466,0.0,0.0,0.0,0.0,0.0,0.0,0.0,0.0,0.0,0.0,0.0,0.0,0.0,0.0,0.0,0.0,0.0,0.0,0.0,0.0,0.0,0.0,0.0,0.0,0.0,0.0,0.0,0.0,0.448,0.3637,0.1849,0.0,0.0,0.0,0.0,0.0,0.0,0.0,0.0,0.0,0.0,-0.844,-0.9747,-0.988,0.0,0.0,-0.9564,-0.881,-0.877,-0.8575,-0.7801,-0.5867,-0.4757,0.0,0.0,0.0,0.0,0.0,0.0,0.0,0.0,0.0,0.0,0.0,0.0,0.0,0.0,0.0,0.0,0.0,0.0,0.0,0.0,0.0,0.0,0.0,0.0,0.0,0.0,0.0,0.0,0.0,0.0,0.0,0.0,0.0,0.0,0.0,0.0,0.0,0.0,0.0,0.0,0.0,0.0,0.0,0.0,0.0,0.0,0.0,0.0,0.0,0.0,0.0,0.0,0.8707,0.723,0.7063,0.6387,0.5218,0.5218,0.5218,0.521,0.4827,0.4927,0.0,0.0,0.0,0.0,0.0,0.0,0.0,0.0,0.0,0.0,0.0,0.0,0.0,0.0,0.0,0.0,0.0,0.0,0.0,0.0,0.0,0.0,0.0,0.0,0.0,0.0,0.0,0.0,0.2986,0.2101,0.054,0.0,0.0,0.0,0.0,0.0,0.0,0.0,0.0,0.0,0.0,-1.0276,-1.1358,-1.0899,-1.0461,-1.0695,-0.9683,-0.877,-0.8561,-0.8453,-0.7937,-0.6481,0.0,0.0,0.0,0.0,0.0,0.0,0.0,0.0,0.0,0.0,0.0,0.0,0.0,0.0,0.0,0.0,0.0,0.0,0.0,0.0,0.0,0.0,0.0,0.0,0.0,0.0,0.0,0.0,0.0,0.0,1.4885,0.0,0.0,0.0,0.0,0.0,0.0,0.0,0.0,0.0,0.0,0.0,0.0,0.0,0.0,0.0,0.0,0.0,0.0,0.0,0.0,0.0,0.0,0.7216,0.6061,0.5736,0.5218,0.457,0.4519,0.4515,0.4515,0.4508,0.4573,0.4738,0.0,0.0,0.0,0.0,0.0,0.0,0.0,0.0,0.0,0.0,0.0,0.0,0.0,0.0,0.0,0.0,0.0,0.0,0.0,0.0,0.0,0.0,0.0,0.0,0.0,0.0,0.2521,0.07,-0.0699,0.0,0.0,0.0,0.0,0.0,0.0,0.0,0.0,0.0,0.0,-1.1111,-1.2141,-1.224,-1.1336,-1.0531,-1.0342,-0.8902,-0.7953,-0.8181,-0.8447,-0.8518,0.0,0.0,0.0,0.0,0.0,0.0,0.0,0.0,0.0,0.0,0.0,0.0,0.0,0.0,0.0,0.0,0.0,0.0,0.0,0.0,0.0,0.0,0.0,0.0,0.0,0.0,0.0,1.4865,1.4908,0.0,0.0,0.0,0.0,0.0,0.0,0.0,0.0,0.0,0.0,0.0,1.3269,1.2489,0.0,0.0,0.0,0.0,0.0,0.0,0.0,0.0,0.0,0.0,0.0,0.0,0.6527,0.5674,0.5102,0.4736,0.4519,0.4463,0.4463,0.4463,0.4463,0.4584,0.4709,0.0,0.0,0.0,0.0,0.0,0.0,0.0,0.0,0.0,0.0,0.0,0.0,0.0,0.0,0.0,0.0,0.0,0.0,0.0,0.0,0.0,0.0,0.0,0.0,0.0,0.218,0.0,0.0,0.0,0.0,0.0,0.0,0.0,0.0,0.0,0.0,0.0,-0.9238,-1.108,-1.1266,-1.1467,-1.2199,-1.1628,-1.1362,0.0,0.0,0.0,0.0,0.0,0.0,0.0,0.0,0.0,0.0,0.0,0.0,0.0,0.0,-0.8799,-0.5974,-0.5121,-0.4853,-0.4853,0.0,0.0,0.0,0.0,0.0,0.0,0.0,0.0,0.0,0.0,0.0,0.0,0.0,0.0,1.4978,0.0,1.5496,0.0,0.0,0.0,0.0,0.0,0.0,0.0,0.0,1.3134,1.262,1.2257,1.1248,1.044,0.0,0.9715,0.9545,0.0,0.0,0.0,0.0,0.0,0.0,0.0,0.0,0.5668,0.5058,0.4397,0.407,0.4125,0.3846,0.368,0.368,0.3956,0.4146,0.4213,0.4307,0.4568,0.0,0.0,0.0,0.0,0.0,0.0,0.0,0.0,0.0,0.0,0.0,0.0,0.0,0.0,0.0,0.0,0.0,0.0,0.0,0.0,0.0,0.0,0.0,0.0409,0.0,0.0,0.0,0.0,0.0,0.0,0.0,0.0,0.0,-0.7913,-0.9426,-1.1069,-1.2307,-1.2306,-1.214,-1.2041,0.0,0.0,0.0,0.0,0.0,0.0,0.0,-0.8127,-0.8606,-0.8221,-0.8125,-0.8912,-1.0441,-1.1286,-1.0452,0.0,0.0,-0.9225,-0.8293,-0.8005,-0.7999,-0.7679,-0.663,-0.427,-0.5614,-0.787,0.0,0.0,0.0,0.0,0.0,0.0,0.0,0.0,1.4876,1.4713,0.0,1.5042,0.0,0.0,0.0,0.0,0.0,1.397,0.0,0.0,1.3139,1.2564,1.0839,1.01,0.9236,0.8239,0.7781,0.6886,0.5638,0.7584,0.0,0.0,0.0,0.0,0.0,0.0,0.4552,0.4131,0.3585,0.3287,0.3345,0.2621,0.223,0.223,0.2896,0.3287,0.3277,0.4168,0.466,0.4685,0.4941,0.0,0.0,0.0,0.0,0.0,0.0,0.0,0.0,0.0,0.0,0.0,0.0,0.0,0.0,0.0,0.0,0.0,0.0,0.0,0.0,-0.1222,0.0,0.0,0.0,0.0,0.0,0.0,0.0,0.0,0.0,0.0,-0.9135,-1.0736,-1.2366,-1.302,0.0,0.0,0.0,0.0,-1.1407,-0.9391,-0.8343,-0.7959,-0.8084,-0.9012,-1.0176,-1.1441,0.0,0.0,-1.1309,-1.1743,-1.1958,-1.0714,-1.2541,-1.3916,-1.3066,-1.1569,-1.0535,-1.0519,-1.012,-0.9344,-0.8375,-0.9246,-1.0848,1.0261,0.0,0.0,0.0,0.0,1.3061,1.3742,1.4372,1.5606,1.5815,1.5368,1.6094,0.0,0.0,0.0,0.0,0.0,0.0,1.1896,1.1908,1.0575,0.9682,0.9215,0.803,0.7042,0.6282,0.5645,0.4883,0.3974,0.4564,0.5097,0.5558,0.0,0.0,0.0,0.0,0.3314,0.2906,0.266,0.2508,0.251,0.2341,0.2176,0.2176,0.2399,0.251,0.2508,0.3278,0.3745,0.3903,0.4502,0.0,0.0,0.0,0.0,0.0,0.0,0.0,0.0,0.0,0.0,0.0,0.0,0.0,0.0,0.0,0.0,0.0,0.0,0.0,0.0206,-0.3518,-0.5554,0.0,0.0,0.0,0.0,0.0,0.0,0.0,0.0,0.0,-1.2328,-1.2248,-1.2127,0.0,0.0,-1.143,-1.0189,-1.1652,-1.2806,-1.2623,-1.246,0.0,-1.3478,-1.2827,-1.2498,-1.3434,-1.4132,-1.4155,-1.2974,-1.3719,-1.4301,-1.358,-1.4318,-1.4961,-1.4756,-1.4305,-1.3905,-1.3923,-1.3802,-1.3606,-1.3291,-1.3431,-1.3437,1.0416,1.1104,1.1399,1.1656,1.1971,1.3435,1.4079,1.4243,1.6073,1.6253,1.5267,1.6024,1.5737,1.47,1.4539,0.0,0.0,0.0,1.0236,1.001,0.8405,0.7374,0.6849,0.5742,0.4695,0.3705,0.3585,0.2802,0.1463,0.1834,0.2162,0.2477,0.0,0.0,0.3135,0.2441,0.1947,0.1699,0.118,0.0889,0.0889,0.0612,0.0613,0.0892,0.117,0.1448,0.1786,0.2454,0.2896,0.3034,0.3808,0.4215,0.0,0.0,0.0,0.0,0.0,0.0,0.0,0.0,0.0,0.0,0.0,0.2503,0.2412,0.0,0.0,0.0,-0.1729,-0.2211,-0.3078,-0.5732,0.0,0.0,0.0,0.0,0.0,0.0,0.0,-1.1475,-1.3488,-1.4706,-1.453,-1.4038,-1.3552,-1.3214,-1.3074,-1.2564,-1.14,0.0,-1.4406,-1.4136,-1.4337,-1.4796,-1.5484,-1.494,-1.4672,-1.5302,-1.5681,-1.5642,-1.4881,-1.5454,-1.5918,-1.5773,-1.5731,-1.5806,-1.5864,-1.5642,-1.542,-1.542,-1.542,-1.5419,-1.5548,-1.5225,-1.4817,1.0652,1.0684,1.0508,1.0669,1.1303,1.3662,1.4306,1.3873,1.6252,1.6125,1.4246,1.5215,1.4767,1.331,1.2798,0.0,1.1405,0.9897,0.8509,0.728,0.6536,0.5416,0.4053,0.3365,0.2209,0.0757,0.1503,0.0751,-0.1276,-0.0579,-0.0648,-0.1551,0.0501,0.1595,0.1703,0.0907,0.0497,0.0501,-0.0586,-0.1104,-0.1109,-0.1838,-0.1842,-0.1006,-0.039,0.0279,0.1006,0.173,0.2122,0.2124,0.2987,0.3471,0.3497,0.0,0.0,0.0,0.0,0.0,0.0,0.0,0.0,0.0,0.0,0.0,0.0,0.0,0.0,0.0,-0.6044,0.0,-0.7978,-0.7881,0.0,0.0,0.0,-0.9614,-1.194,-1.3049,-1.4027,-1.4992,0.0,0.0,-1.5957,-1.5894,-1.6107,-1.6697,-1.6554,-1.5881,-1.4325,-1.5558,-1.6124,-1.4727,-1.4992,-1.5374,-1.5788,-1.6212,-1.6679,-1.7043,-1.713,-1.6972,-1.657,-1.6744,-1.7025,-1.6953,-1.6797,-1.6595,-1.6595,-1.6083,-1.5584,-1.5633,-1.5526,-1.5476,-1.5811,-1.5538,-1.5332,1.0448,1.0691,1.0647,1.0751,1.1017,1.2959,1.3638,1.3631,1.5505,1.5992,1.5541,1.5804,1.5355,1.4339,1.2964,1.1951,1.1032,0.7825,0.6201,0.5788,0.407,0.2721,0.1826,0.1147,0.0233,-0.0756,-0.1022,-0.1537,-0.2159,-0.1836,-0.1691,-0.1712,-0.1204,-0.0724,-0.0402,-0.0908,-0.123,-0.1203,-0.1481,-0.1481,-0.1113,-0.1785,-0.162,-0.0336,-0.067,-0.0503,0.0224,0.095,0.1356,0.1388,0.2115,0.242,0.225,0.2971,0.0,0.0,0.0,0.0,0.0,0.0,0.0,0.0,0.0,0.0579,0.0389,0.0,-0.1328,0.0,-0.796,-0.9506,-0.8463,-1.0017,0.0,0.0,-1.1325,-1.2074,-1.4574,-1.5452,-1.5905,-1.6113,-1.7115,-1.7752,-1.7626,-1.7614,-1.7965,-1.8832,-1.7212,-1.5499,-1.4504,-1.6705,-1.8046,-1.701,-1.8119,-1.9219,-1.8657,-1.8821,-1.8753,-1.8331,-1.826,-1.8065,-1.7416,-1.7375,-1.7465,-1.7465,-1.7379,-1.7357,-1.7302,-1.718,-1.7079,-1.7024,-1.6187,-1.5613,-1.6187,-1.6221,-1.6231,0.9325,0.982,0.9751,0.9897,1.0486,1.2938,1.3638,1.3337,1.5424,1.6071,1.5588,1.5142,1.4253,1.3076,1.1415,1.0079,0.8752,0.5831,0.3931,0.293,0.1699,0.0528,-0.0512,-0.0954,-0.1644,-0.2493,-0.2815,-0.3159,-0.3525,-0.3417,-0.3222,-0.3006,-0.3004,-0.2817,-0.2464,-0.2249,-0.2011,-0.1815,-0.2471,-0.2704,-0.2613,-0.3012,-0.2528,-0.1071,-0.139,-0.1106,-0.0051,0.0408,0.0622,0.0644,0.1298,0.1534,0.1137,0.176,0.1937,0.0,0.0,0.0,0.0,0.0,0.0,0.0,0.0,0.0,0.0,0.0,-0.3523,-0.5813,-0.9557,-1.1152,-0.9388,-1.109,-1.236,-1.2706,-1.2814,-1.3887,-1.6362,-1.6876,-1.7284,-1.79,-1.853,-1.8907,-1.8907,-1.8907,-1.912,-1.9736,-1.8493,-1.728,-1.6702,-1.8198,-1.9114,-1.8336,-1.9415,-2.0245,-1.985,-1.9798,-1.9695,-1.9307,-1.9202,-1.9032,-1.8661,-1.8555,-1.8555,-1.8555,-1.834,-1.8058,-1.807,-1.7786,-1.7633,-1.749,-1.6983,-1.6634,-1.7026,-1.7135,-1.7258,0.8037,0.8696,0.8423,0.8818,0.9675,1.2709,1.3533,1.2931,1.527,1.5711,1.459,1.3632,1.2297,1.0773,0.9114,0.7502,0.5898,0.3811,0.1804,0.0,-0.0365,-0.1275,-0.2663,-0.2871,-0.3396,-0.4102,-0.4146,-0.4412,-0.4938,-0.4792,-0.4633,-0.447,-0.4463,-0.4433,-0.4206,-0.3203,-0.249,-0.2072,-0.3311,-0.4017,-0.42,-0.4287,-0.357,-0.2121,-0.2203,-0.1603,-0.032,-0.0227,-0.0185,-0.0193,0.0372,0.0472,-0.0051,0.0321,0.048,0.0,-0.0206,0.0,0.0,0.0,0.0,0.0,0.0,0.0,0.0,-0.5862,-0.6558,-0.7656,-1.0899,-1.2395,-1.1073,-1.1957,-1.2969,-1.3768,-1.4294,-1.5378,-1.7455,-1.7797,-1.8394,-1.9643,-1.9798,-1.9798,-1.9761,-1.9798,-1.9798,-1.9786,-1.9685,-1.9384,-1.9196,-1.9522,-1.975,-1.9183,-1.9497,-1.985,-1.9811,-1.9798,-1.9798,-1.9798,-1.9747,-1.9798,-1.9747,-1.9747,-1.9747,-1.9695,-1.9254,-1.8886,-1.8927,-1.8489,-1.8101,-1.8282,-1.8175,-1.8046,-1.7981,-1.8106,-1.84,0.8024,0.8153,0.8106,0.8154,0.8471,0.9706,1.1158,1.2662,1.3351,1.3152,1.2278,1.1426,1.0444,0.9339,0.7578,0.5848,0.4179,0.1607,0.0244,-0.0182,-0.1567,-0.2691,-0.3544,-0.4275,-0.4728,-0.4928,-0.5489,-0.5544,-0.5087,-0.4945,-0.4738,-0.4522,-0.4463,-0.4531,-0.4496,0.0,0.0,0.0,-0.3586,-0.3324,-0.2666,-0.3132,-0.267,-0.1257,-0.2097,0.0,-0.1523,-0.1338,-0.1359,-0.145,-0.1307,0.0,0.0,0.0,0.0,0.0,0.0,0.0,0.0,0.0,0.0,0.0,-0.5024,-0.5427,-0.5962,-0.7926,-0.957,-1.0699,-1.2254,-1.3558,-1.4345,-1.4665,-1.511,-1.5873,-1.6486,-1.7377,-1.8382,-1.8992,-1.9527,-1.9747,-1.9798,-1.9798,-1.9798,-1.9798,-1.9798,-1.9798,-1.9798,-1.9761,-1.966,-2.013,-2.0357,-1.9775,-1.9787,-1.9798,-1.9798,-1.9798,-1.9798,-1.9798,-1.9798,-1.9798,-1.9811,-1.9862,-1.9811,-1.9798,-1.9708,-1.9786,-2.0219,-2.027,-2.0244,-2.0801,-2.0481,-1.9845,-1.882,-1.9003,-1.9556,0.6985,0.0,0.7372,0.7637,0.0,0.8879,0.9862,1.092,1.1463,1.1214,1.0428,0.9505,0.8424,0.709,0.5314,0.3558,0.1822,0.0064,-0.1208,-0.2068,-0.3352,-0.4374,-0.5075,-0.5657,-0.5864,-0.5936,-0.6299,-0.6191,-0.5754,-0.5677,-0.5747,-0.5944,-0.5538,-0.5596,-0.611,-0.6049,-0.5372,-0.4179,-0.4058,-0.3868,-0.3589,-0.3817,-0.3452,-0.2387,-0.2916,0.0,0.0,0.0,0.0,0.0,0.0,0.0,0.0,-0.2733,0.0,-0.3114,-0.2895,-0.321,-0.4116,-0.4212,-0.5057,-0.7077,-0.8323,-0.8776,-0.8508,-1.069,-1.2287,-1.2814,-1.3746,-1.4649,-1.5293,-1.542,-1.569,-1.6425,-1.6824,-1.7478,-1.8489,-1.9032,-1.9423,-1.9747,-1.9798,-1.9798,-1.9798,-1.9798,-1.9798,-1.9798,-1.9798,-1.9798,-1.9798,-2.0105,-2.0258,-2.0245,-2.0003,-1.9952,-2.0194,-2.0003,-1.9964,-2.0156,-2.0041,-1.9977,-2.0233,-2.0552,-2.0552,-2.0042,-2.0295,-2.0818,-2.0795,-2.1028,-2.1342,-2.1608,-2.1471,-2.108,-2.03,-2.022,-2.0574,0.5815,0.6461,0.6457,0.685,0.7572,0.8243,0.8548,0.8606,0.0,0.0,0.0,0.753,0.625,0.4722,0.2926,0.1265,-0.0267,-0.1338,-0.2576,-0.407,-0.5075,-0.5917,-0.6696,-0.6841,-0.685,-0.6719,-0.6719,-0.6642,-0.6438,-0.6434,-0.6853,-0.7431,-0.6871,-0.6889,-0.7486,-0.7866,-0.692,-0.4758,-0.465,-0.4676,-0.4686,-0.4707,-0.44,-0.3802,-0.3831,-0.3619,-0.3077,-0.3001,-0.2992,-0.304,-0.3014,-0.3279,-0.3784,-0.3817,-0.4158,-0.4826,-0.4855,-0.5428,-0.6661,-0.6728,-0.7648,-0.9627,-1.1149,-1.1783,-1.1291,-1.3067,-1.4273,-1.4392,-1.4991,-1.541,-1.542,-1.5508,-1.5798,-1.6265,-1.6553,-1.7203,-1.8328,-1.8661,-1.8992,-1.9631,-1.9798,-1.9798,-1.9798,-1.9798,-1.9798,-1.9798,-1.9798,-1.9798,-1.9798,-1.985,-1.9991,-2.0346,-2.0194,-2.0194,-2.0547,-2.0521,-2.0361,-2.0809,-2.0501,-2.036,-2.0882,-2.1362,-2.1232,-2.0409,-2.1037,-2.1424,-2.1259,-2.1595,-2.1899,-2.2025,-2.1939,-2.1946,-2.1975,-2.1567,-2.149,0.5491,0.5554,0.5557,0.5624,0.5752,0.5877,0.5943,0.6067,0.7589,0.7316,0.5774,0.4926,0.3992,0.286,0.1133,-0.02,-0.1205,-0.2876,-0.4132,-0.5101,-0.6044,-0.6967,-0.7787,-0.7817,-0.7437,-0.6719,-0.6719,-0.6706,-0.6681,-0.6681,-0.7057,-0.7866,-0.7802,-0.749,-0.6941,-0.7618,-0.7126,-0.5294,-0.5251,-0.4772,-0.401,-0.3852,-0.3721,-0.3677,-0.3974,-0.416,-0.4229,-0.4075,-0.4068,-0.42,-0.4245,-0.4369,-0.471,-0.4773,-0.5243,-0.6277,-0.6419,-0.709,-0.8701,-0.888,-0.9592,-1.1315,-1.2328,-1.2769,-1.2748,-1.3605,-1.451,-1.5167,-1.5352,-1.542,-1.542,-1.5956,-1.6093,-1.5788,-1.6736,-1.7545,-1.7886,-1.8394,-1.9056,-1.9733,-1.9798,-1.9798,-1.9798,-1.9798,-1.9798,-1.9798,-1.9798,-1.9798,-1.9798,-1.9798,-1.985,-1.9991,-2.0346,-2.0646,-2.0845,-2.1197,-2.134,-2.1556,-2.1442,-2.1322,-2.1525,-2.1738,-2.1698,-2.1424,-2.1602,-2.1899,-2.2221,-2.2466,-2.2725,-2.3054,-2.286,-2.2708,-2.3109,-2.2829,-2.2545,0.5428,0.5428,0.5428,0.5428,0.5428,0.5881,0.5807,0.5408,0.6171,0.5774,0.4469,0.3141,0.2071,0.1132,-0.0134,-0.1471,-0.2811,-0.3613,-0.4737,-0.6056,-0.6972,-0.7637,-0.7962,-0.8027,-0.7507,-0.6785,-0.7177,-0.7442,-0.7437,-0.7832,-0.8544,-0.9326,-0.8935,-0.8484,-0.8156,-0.8027,-0.7372,-0.6133,-0.5586,-0.5106,-0.4675,-0.4613,-0.4575,-0.4574,-0.476,-0.488,-0.5006,-0.5359,-0.5695,-0.5934,-0.6365,-0.6741,-0.7012,-0.6872,-0.7019,-0.7588,-0.7461,-0.7992,-0.921,-1.0173,-1.1162,-1.232,-1.3183,-1.3666,-1.3666,-1.4392,-1.4991,-1.5352,-1.542,-1.542,-1.542,-1.5722,-1.608,-1.6595,-1.72,-1.8045,-1.9029,-1.9255,-1.9547,-2.011,-1.9987,-1.9811,-1.9798,-1.9798,-1.9798,-1.9798,-1.9811,-1.9811,-1.9811,-1.9811,-1.9952,-2.0308,-2.061,-2.0944,-2.121,-2.152,-2.1821,-2.2166,-2.1938,-2.1909,-2.2169,-2.2443,-2.2427,-2.1927,-2.2225,-2.2665,-2.2799,-2.2979,-2.329,-2.3435,-2.3415,-2.3443,-2.3842,-2.3994,-2.3971,0.5276,0.5413,0.548,0.5326,0.5156,0.5997,0.5785,0.4731,0.4923,0.4397,0.3276,0.1874,0.0804,-0.0067,-0.1138,-0.2409,-0.3613,-0.4148,-0.5272,-0.6981,-0.7697,-0.8091,-0.8226,-0.8091,-0.7567,-0.6785,-0.7181,-0.7637,-0.8027,-0.8678,-0.946,-1.0117,-0.9456,-0.9068,-0.9011,-0.8343,-0.7686,-0.6985,-0.6338,-0.5818,-0.5428,-0.5557,-0.5686,-0.5686,-0.5881,-0.6028,-0.6133,-0.6721,-0.7207,-0.7468,-0.8093,-0.8574,-0.8803,-0.8543,-0.8493,-0.8611,-0.8485,-0.8875,-1.0049,-1.1305,-1.2492,-1.3504,-1.4171,-1.4544,-1.4786,-1.5336,-1.5615,-1.5459,-1.542,-1.5498,-1.583,-1.5888,-1.6304,-1.7531,-1.7557,-1.8155,-1.9752,-1.965,-1.958,-2.0143,-2.0157,-1.9997,-1.9927,-2.007,-2.0238,-2.025,-2.0188,-2.015,-2.0037,-2.0075,-2.0385,-2.0649,-2.0894,-2.1259,-2.1805,-2.2072,-2.237,-2.2826,-2.2502,-2.2489,-2.2878,-2.3319,-2.3257,-2.2512,-2.2891,-2.3275,-2.3054,-2.3363,-2.3709,-2.3822,-2.3903,-2.412,-2.4471,-2.4831,-2.5041,0.4801,0.55,0.5493,0.5002,0.4287,0.5067,0.4532,0.3205,0.3796,0.3131,0.1608,0.134,0.0805,-0.0134,-0.181,-0.2678,-0.3011,-0.4553,-0.6207,-0.7702,-0.7957,-0.842,-0.8947,-0.8355,-0.7572,-0.6654,-0.6079,-0.6666,-0.7962,-0.8161,-0.8554,-0.9233,-0.8634,-0.8307,-0.8148,-0.8169,-0.8102,-0.7907,-0.7832,-0.699,-0.5557,-0.6203,-0.6588,-0.6593,-0.7377,-0.7861,-0.7966,-0.8188,-0.8356,-0.8633,-0.8728,-0.8808,-0.8808,-0.8548,-0.8767,-0.9533,-0.9574,-1.0381,-1.2316,-1.2676,-1.3565,-1.5085,-1.5305,-1.5696,-1.6311,-1.6519,-1.626,-1.5674,-1.5449,-1.5919,-1.7026,-1.7005,-1.7189,-1.7758,-1.7611,-1.7634,-1.8453,-1.8091,-1.8253,-1.9385,-2.0175,-2.0523,-2.0285,-2.0754,-2.1242,-2.1154,-2.1129,-2.1004,-2.0743,-2.0923,-2.1128,-2.1036,-2.1272,-2.188,-2.2466,-2.3098,-2.326,-2.3422,-2.3436,-2.3362,-2.342,-2.3478,-2.348,-2.326,-2.3363,-2.3508,-2.3666,-2.3948,-2.4266,-2.4389,-2.4632,-2.5044,-2.5121,-2.5239,-2.525,0.3499,0.3923,0.3862,0.3976,0.4071,0.4392,0.3794,0.2732,0.2994,0.2202,0.0605,0.0,-0.0402,-0.0873,-0.2143,-0.2945,-0.3547,-0.4821,-0.6338,-0.7897,-0.8027,-0.8221,-0.8484,-0.8161,-0.7312,-0.6141,-0.6597,-0.7316,-0.7982,-0.8614,-0.9085,-0.9317,-0.8722,-0.8442,-0.8366,-0.8511,-0.8506,-0.8492,-0.8482,-0.8147,-0.75,-0.7432,-0.7437,-0.7517,-0.7951,-0.8256,-0.8425,-0.9026,-0.9569,-0.9871,-1.032,-1.0682,-1.0833,-1.059,-1.0659,-1.1013,-1.1369,-1.2423,-1.4313,-1.4461,-1.4941,-1.6128,-1.6201,-1.6392,-1.6665,-1.6665,-1.65,-1.6218,-1.6191,-1.6454,-1.6941,-1.6919,-1.7147,-1.7727,-1.8144,-1.8621,-1.931,-1.94,-1.9703,-2.0128,-2.049,-2.0686,-2.0637,-2.1045,-2.1455,-2.1481,-2.1493,-2.1418,-2.1247,-2.1393,-2.1603,-2.1934,-2.2422,-2.2729,-2.2841,-2.3201,-2.3508,-2.3595,-2.3595,-2.3595,-2.3595,-2.3595,-2.3595,-2.3595,-2.3638,-2.3794,-2.4059,-2.4184,-2.4471,-2.4792,-2.5285,-2.5659,-2.5668,-2.5914,-2.604,0.2569,0.2702,0.2478,0.2697,0.3271,0.3509,0.2975,0.2045,0.2382,0.1641,-0.0069,-0.1157,-0.149,-0.149,-0.2552,-0.3413,-0.4084,-0.4954,-0.6366,-0.7977,-0.8113,-0.8154,-0.8139,-0.8139,-0.7216,-0.6015,-0.7024,-0.7883,-0.823,-0.8834,-0.9265,-0.9168,-0.8604,-0.8543,-0.899,-0.9168,-0.9308,-0.9522,-0.9528,-0.9528,-0.9477,-0.912,-0.8805,-0.8623,-0.8969,-0.9293,-0.9371,-1.017,-1.0762,-1.1093,-1.1696,-1.2222,-1.2631,-1.2456,-1.2431,-1.2684,-1.3104,-1.4095,-1.5689,-1.5794,-1.6188,-1.6941,-1.7025,-1.7135,-1.7328,-1.7392,-1.752,-1.7818,-1.7765,-1.7787,-1.7593,-1.7359,-1.7714,-1.8703,-1.9258,-1.9644,-2.0288,-2.0568,-2.06,-2.0779,-2.1051,-2.1192,-2.1368,-2.1744,-2.202,-2.2008,-2.1983,-2.1845,-2.187,-2.2102,-2.2565,-2.2857,-2.3582,-2.3778,-2.3182,-2.3526,-2.3761,-2.361,-2.3595,-2.3595,-2.3595,-2.3595,-2.3752,-2.3837,-2.3794,-2.4032,-2.4552,-2.4712,-2.5012,-2.5486,-2.5901,-2.6132,-2.6191,-2.6505,-2.6607,0.2109,0.2618,0.1786,0.1418,0.1515,0.2313,0.169,0.0433,0.1797,0.1585,-0.0144,-0.1685,-0.2082,-0.153,-0.3195,-0.3954,-0.4148,-0.503,-0.6501,-0.824,-0.8405,-0.8455,-0.8589,-0.8529,-0.7601,-0.5951,-0.6925,-0.7915,-0.8563,-0.8599,-0.8609,-0.8624,-0.8038,-0.8476,-0.978,-1.0219,-1.0627,-1.1095,-1.1145,-1.1243,-1.1243,-1.1204,-1.076,-1.014,-1.0773,-1.1316,-1.1622,-1.1759,-1.1906,-1.2198,-1.2258,-1.2712,-1.3506,-1.3375,-1.3615,-1.4429,-1.4602,-1.5223,-1.6345,-1.6587,-1.6949,-1.7765,-1.7976,-1.8295,-1.8989,-1.9044,-1.936,-2.0233,-2.0081,-1.999,-1.9687,-1.8957,-1.9335,-2.0966,-2.0502,-2.0354,-2.0866,-2.0732,-2.0604,-2.1019,-2.1629,-2.2176,-2.2765,-2.2977,-2.2937,-2.2924,-2.3,-2.2824,-2.2642,-2.3366,-2.3794,-2.3948,-2.4489,-2.4994,-2.3926,-2.4149,-2.4209,-2.3968,-2.3803,-2.3625,-2.361,-2.3638,-2.3921,-2.4158,-2.4307,-2.4592,-2.5067,-2.554,-2.5944,-2.6297,-2.6401,-2.6556,-2.647,-2.6624,-2.6708,0.0767,0.0981,0.0667,0.044,0.0509,0.0791,0.0576,0.0073,0.0654,0.0582,-0.0073,-0.1294,-0.2283,-0.3343,-0.389,-0.4084,-0.4167,-0.5713,-0.7216,-0.8435,-0.9122,-0.9173,-0.8614,-0.8624,-0.7641,-0.6297,-0.7354,-0.8549,-0.927,-0.8969,-0.8754,-0.8722,-0.8694,-0.9347,-1.0475,-1.1272,-1.1788,-1.1925,-1.1984,-1.1984,-1.1971,-1.1984,-1.184,-1.1539,-1.1655,-1.1757,-1.1864,-1.2044,-1.2483,-1.3164,-1.3171,-1.3665,-1.4514,-1.4545,-1.4895,-1.5791,-1.5938,-1.6345,-1.7326,-1.751,-1.7901,-1.871,-1.8844,-1.9166,-1.9944,-2.0139,-2.0268,-2.0526,-2.059,-2.0669,-2.0996,-2.0393,-2.0165,-2.0877,-2.1193,-2.1104,-2.1105,-2.1328,-2.1543,-2.1457,-2.1886,-2.2523,-2.2915,-2.3125,-2.3125,-2.3125,-2.3125,-2.3263,-2.3612,-2.411,-2.449,-2.4859,-2.556,-2.5893,-2.5073,-2.5061,-2.5031,-2.4551,-2.4234,-2.3996,-2.3893,-2.4146,-2.441,-2.4817,-2.4916,-2.5208,-2.5696,-2.6016,-2.647,-2.6556,-2.6708,-2.6708,-2.6708,-2.6708,-2.6708,0.0,0.0,0.0,0.0,0.0,0.0,0.0,0.0,0.0,0.0,0.0,-0.1912,-0.3356,-0.4442,-0.5219,-0.5399,-0.5225,-0.6559,-0.7679,-0.8656,-0.9723,-0.9777,-0.9052,-0.9124,-0.8332,-0.7037,-0.8404,-0.9482,-0.9642,-0.9567,-0.9269,-0.9,-0.952,-1.0265,-1.1236,-1.1996,-1.2305,-1.2305,-1.2305,-1.2298,-1.2305,-1.2305,-1.2445,-1.2705,-1.2604,-1.2506,-1.2506,-1.2635,-1.3171,-1.4034,-1.4178,-1.4665,-1.5517,-1.5939,-1.6367,-1.6922,-1.707,-1.7276,-1.793,-1.8279,-1.8654,-1.9233,-1.9562,-2.0074,-2.091,-2.1049,-2.1112,-2.1302,-2.1416,-2.1667,-2.1966,-2.1735,-2.1401,-2.1444,-2.1945,-2.214,-2.1789,-2.2206,-2.2351,-2.2176,-2.2351,-2.2749,-2.2977,-2.3113,-2.3125,-2.3125,-2.3305,-2.3767,-2.4155,-2.4791,-2.5191,-2.5782,-2.6438,-2.6698,-2.6414,-2.6479,-2.5644,-2.5062,-2.4819,-2.4534,-2.4559,-2.4821,-2.5164,-2.548,-2.5709,-2.5912,-2.6184,-2.6504,-2.6624,-2.6691,-2.6708,-2.6708,-2.6708,-2.6708,-2.6742,0.0,0.0,0.0,0.0,0.0,0.0,0.0,0.0,0.0,0.0,-0.1003,-0.3913,-0.5058,-0.5347,-0.7229,-0.7995,-0.7637,-0.7655,-0.817,-0.9104,-1.0179,-1.0244,-0.9456,-1.0187,-0.9665,-0.8098,-0.9782,-1.0232,-0.9541,-1.0215,-1.0151,-0.9653,-1.0243,-1.1093,-1.2224,-1.2231,-1.2305,-1.2305,-1.2305,-1.2305,-1.2305,-1.2445,-1.2879,-1.36,-1.3715,-1.37,-1.3787,-1.3738,-1.4171,-1.5021,-1.5234,-1.5658,-1.6567,-1.7295,-1.793,-1.7862,-1.794,-1.794,-1.8076,-1.8721,-1.9177,-1.9562,-2.015,-2.0974,-2.1678,-2.1877,-2.2137,-2.2641,-2.2884,-2.3005,-2.2944,-2.2919,-2.2859,-2.3065,-2.2955,-2.2942,-2.2955,-2.304,-2.3113,-2.3025,-2.3037,-2.31,-2.3125,-2.3125,-2.3125,-2.3365,-2.3767,-2.4292,-2.4681,-2.5507,-2.6293,-2.6596,-2.6975,-2.7215,-2.7599,-2.7856,-2.6585,-2.551,-2.5455,-2.53,-2.5694,-2.5973,-2.655,-2.6888,-2.6695,-2.6853,-2.6589,-2.6841,-2.6808,-2.6858,-2.6791,-2.6775,-2.6725,-2.6725,-2.6859,0.0,0.0,0.0,0.0,0.0,0.0,0.0,0.0,0.0,0.0,-0.3081,-0.4334,-0.6268,-0.8286,-0.8993,-0.9577,-1.0574,-1.0008,-0.9547,-0.951,-1.0961,-1.123,-1.0548,-1.064,-1.049,-1.0034,-1.0484,-1.0634,-1.0415,-1.064,-1.0634,-1.049,-1.0634,-1.1316,-1.2224,-1.2305,-1.2305,-1.2305,-1.2305,-1.2592,-1.3164,-1.3237,-1.3738,-1.4593,-1.4736,-1.5013,-1.557,-1.5084,-1.5226,-1.614,-1.614,-1.6576,-1.7432,-1.7862,-1.8008,-1.8008,-1.8008,-1.8008,-1.8134,-1.8854,-1.9628,-2.0204,-2.0974,-2.1865,-2.2567,-2.2702,-2.2823,-2.3078,-2.3125,-2.3125,-2.3125,-2.3125,-2.3125,-2.3125,-2.3125,-2.3125,-2.3125,-2.3125,-2.3125,-2.3125,-2.3125,-2.3125,-2.3125,-2.3125,-2.3365,-2.3826,-2.4176,-2.4624,-2.5618,-2.6108,-2.6707,-2.7137,-2.7458,-2.766,-2.7879,-2.8117,-2.7581,-2.6918,-2.6729,-2.6533,-2.6835,-2.729,-2.79,-2.8046,-2.7857,-2.7547,-2.7299,-2.7122,-2.7125,-2.7087,-2.7103,-2.7006,-2.6791,-2.6891,-2.7103,-0.2489,-0.1392,-0.1712,-0.1145,0.0,0.0,0.0,0.0,0.0,0.0,-0.4203,-0.5328,-0.7497,-1.0188,-1.0704,-1.1261,-1.2145,-1.1857,-1.1468,-1.0979,-1.2012,-1.2124,-1.1013,-1.0789,-1.1013,-1.1316,-1.1316,-1.1168,-1.0858,-1.1162,-1.1162,-1.0864,-1.1162,-1.162,-1.2231,-1.2305,-1.2445,-1.2732,-1.2879,-1.331,-1.4027,-1.4243,-1.4736,-1.5587,-1.5728,-1.6219,-1.7001,-1.6515,-1.6507,-1.7001,-1.7139,-1.7423,-1.794,-1.8008,-1.8008,-1.8008,-1.8008,-1.8134,-1.8462,-1.9365,-2.0139,-2.1049,-2.1877,-2.2506,-2.3005,-2.3125,-2.3125,-2.3125,-2.3125,-2.3125,-2.3125,-2.3125,-2.3125,-2.3125,-2.3125,-2.3125,-2.3125,-2.3125,-2.3125,-2.3125,-2.3125,-2.3125,-2.3125,-2.3424,-2.3708,-2.4234,-2.4781,-2.5287,-2.6351,-2.6721,-2.7203,-2.7458,-2.7509,-2.7745,-2.7963,-2.8153,-2.8383,-2.831,-2.8279,-2.8057,-2.8075,-2.864,-2.9198,-2.9121,-2.8958,-2.8289,-2.7947,-2.7606,-2.7486,-2.7478,-2.75,-2.7083,-2.692,-2.7269,-2.7552,-0.6559,-0.4066,-0.4608,-0.3062,0.0,0.0,0.0,0.0,0.0,-0.1892,-0.4928,-0.6928,-0.9079,-1.1212,-1.3085,-1.3411,-1.2795,-1.3417,-1.3761,-1.3682,-1.3973,-1.3266,-1.1736,-1.123,-1.1539,-1.2291,-1.2224,-1.1768,-1.1087,-1.1774,-1.1842,-1.1162,-1.1768,-1.2231,-1.2305,-1.2305,-1.2879,-1.3455,-1.3665,-1.4314,-1.5163,-1.5305,-1.5728,-1.6636,-1.6706,-1.707,-1.7716,-1.7725,-1.7862,-1.794,-1.7872,-1.7862,-1.8008,-1.8008,-1.8202,-1.8202,-1.8134,-1.8654,-1.9375,-2.0204,-2.0974,-2.1616,-2.2445,-2.3125,-2.3065,-2.3125,-2.3125,-2.3125,-2.3125,-2.3125,-2.3125,-2.3125,-2.3125,-2.3125,-2.3125,-2.3125,-2.3125,-2.3125,-2.3125,-2.3125,-2.3125,-2.3125,-2.3245,-2.3826,-2.4234,-2.4781,-2.5618,-2.6229,-2.6669,-2.7086,-2.7458,-2.761,-2.766,-2.7944,-2.8207,-2.8963,-2.9143,-2.9274,-2.9388,-2.9411,-2.9304,-2.9773,-2.9945,-2.9911,-2.9762,-2.9107,-2.8625,-2.8305,-2.8219,-2.8384,-2.8053,-2.7336,-2.7265,-2.7619,-2.7986,-0.6641,-0.712,-0.4893,-0.3888,-0.3306,-0.1132,0.0,0.0,0.0,-0.3257,-0.7406,-0.8793,-1.1481,-1.5259,-1.5918,-1.5968,-1.5632,-1.5547,-1.5704,-1.587,-1.6555,-1.573,-1.3988,-1.2565,-1.2432,-1.3171,-1.2732,-1.215,-1.1922,-1.2291,-1.2218,-1.1922,-1.2291,-1.2378,-1.2378,-1.3032,-1.339,-1.3818,-1.4537,-1.5259,-1.6088,-1.6245,-1.6706,-1.7501,-1.7598,-1.7754,-1.8018,-1.8008,-1.8008,-1.8008,-1.8008,-1.8008,-1.8076,-1.8529,-1.8787,-1.8854,-1.9431,-1.9944,-2.0333,-2.0974,-2.1491,-2.1604,-2.2567,-2.3065,-2.3125,-2.3125,-2.3125,-2.3125,-2.3125,-2.3125,-2.3125,-2.3125,-2.3125,-2.3125,-2.3125,-2.3125,-2.3125,-2.3125,-2.3125,-2.3125,-2.3125,-2.3424,-2.3872,-2.4279,-2.4794,-2.5618,-2.6215,-2.6721,-2.7086,-2.7291,-2.761,-2.7745,-2.7894,-2.8222,-2.8685,-2.9496,-3.0005,-3.0156,-3.0327,-3.062,-3.0526,-3.0683,-3.051,-3.0222,-3.0205,-2.9736,-2.9433,-2.9145,-2.9228,-2.9261,-2.8697,-2.8115,-2.7889,-2.8042,-2.8362,-0.97,-1.0184,-0.7125,-0.697,-0.7796,-0.2463,-0.1223,-0.287,-0.2577,-0.4831,-0.9082,-1.1019,-1.4014,-1.7915,-1.775,-1.8037,-1.8476,-1.7937,-1.8034,-1.8614,-1.8111,-1.7055,-1.5632,-1.4163,-1.381,-1.4171,-1.3803,-1.3585,-1.3513,-1.3513,-1.3513,-1.3585,-1.352,-1.352,-1.368,-1.4172,-1.4808,-1.5275,-1.5952,-1.6732,-1.7339,-1.7647,-1.7697,-1.8144,-1.8301,-1.8545,-1.8555,-1.8555,-1.8408,-1.8115,-1.8008,-1.8008,-1.8076,-1.8462,-1.8721,-1.8777,-1.9233,-1.9748,-2.0526,-2.1112,-2.1604,-2.2051,-2.2823,-2.3005,-2.3125,-2.3125,-2.3125,-2.3125,-2.3125,-2.3125,-2.3125,-2.3125,-2.3125,-2.3125,-2.3125,-2.3125,-2.3125,-2.3125,-2.3305,-2.3484,-2.3649,-2.3872,-2.4667,-2.5021,-2.5563,-2.6283,-2.6721,-2.7137,-2.7458,-2.756,-2.771,-2.7944,-2.8304,-2.8685,-2.9134,-2.9935,-3.0435,-3.0601,-3.0742,-3.1151,-3.119,-3.119,-3.097,-3.0666,-3.0598,-3.0438,-3.012,-2.9955,-3.0058,-2.9899,-2.9376,-2.9039,-2.8788,-2.8388,-2.8702,-1.3932,-1.3157,-1.0562,-1.139,-1.2618,-0.5297,-0.4799,-0.7922,-0.7398,-0.8461,-1.1532,-1.4001,-1.7233,-1.9952,-1.9521,-1.9695,-2.1292,-1.9857,-2.0309,-2.0351,-1.9489,-1.7881,-1.6964,-1.5508,-1.5084,-1.5226,-1.5234,-1.5021,-1.4879,-1.5013,-1.5092,-1.4879,-1.5021,-1.5133,-1.5088,-1.5599,-1.6439,-1.6989,-1.7569,-1.8089,-1.8504,-1.8802,-1.8818,-1.8745,-1.9163,-1.9615,-1.9665,-1.9521,-1.9252,-1.8516,-1.834,-1.8556,-1.8526,-1.8564,-1.8846,-1.9147,-1.9582,-2.0149,-2.0857,-2.155,-2.1816,-2.2924,-2.3255,-2.3278,-2.3489,-2.3477,-2.3326,-2.3326,-2.3178,-2.3349,-2.3457,-2.3359,-2.3475,-2.3556,-2.3458,-2.3352,-2.3305,-2.3185,-2.3424,-2.4176,-2.4279,-2.4667,-2.5398,-2.6,-2.6496,-2.6759,-2.7152,-2.7357,-2.763,-2.7784,-2.8012,-2.8334,-2.8732,-2.918,-2.9717,-3.0351,-3.0699,-3.0952,-3.1009,-3.119,-3.119,-3.119,-3.119,-3.1089,-3.0903,-3.0798,-3.0702,-3.066,-3.075,-3.0595,-3.0138,-2.9913,-2.966,-2.904,-2.9016,-1.4002,-1.6891,-1.3312,-1.4453,-1.7171,-1.2675,-1.1927,-1.4582,-1.4381,-1.547,-1.826,-2.0255,-2.185,-2.3304,-2.2315,-2.2246,-2.2489,-2.1327,-2.0899,-2.153,-2.0685,-1.9596,-1.8325,-1.654,-1.579,-1.6,-1.5517,-1.5305,-1.5305,-1.5446,-1.5234,-1.5384,-1.5655,-1.5455,-1.5931,-1.6802,-1.7197,-1.7825,-1.8663,-1.9204,-1.9272,-1.9486,-1.9755,-2.0141,-2.0398,-2.0885,-2.1226,-2.0885,-2.0779,-2.0978,-2.0658,-2.0578,-2.0975,-2.1587,-2.1845,-2.1901,-2.2624,-2.3263,-2.3765,-2.3615,-2.3836,-2.3816,-2.418,-2.4569,-2.4795,-2.4155,-2.3866,-2.3816,-2.3816,-2.4024,-2.4416,-2.4593,-2.4577,-2.4607,-2.4697,-2.4808,-2.4654,-2.3872,-2.3708,-2.4163,-2.4452,-2.4794,-2.6054,-2.6336,-2.6774,-2.7255,-2.7458,-2.756,-2.775,-2.8033,-2.8386,-2.8764,-2.9287,-2.9761,-3.0166,-3.0658,-3.0878,-3.1095,-3.1151,-3.119,-3.119,-3.119,-3.119,-3.119,-3.1157,-3.1096,-3.1048,-3.1131,-3.1116,-3.1025,-3.0958,-3.0659,-3.0297,-2.9699,-2.9088,-1.6869,-2.0475,-1.663,-1.8211,-2.205,-1.7389,-1.6473,-1.8844,-1.9538,-2.0514,-2.2122,-2.3916,-2.5448,-2.6239,-2.4927,-2.4509,-2.5011,-2.401,-2.2987,-2.2591,-2.1868,-2.1055,-1.9933,-1.8506,-1.7697,-1.7335,-1.6784,-1.6706,-1.6964,-1.6802,-1.7213,-1.7898,-1.725,-1.7571,-1.8059,-1.8754,-1.9307,-1.9826,-2.0698,-2.1157,-2.1051,-2.1219,-2.1397,-2.1891,-2.1925,-2.2132,-2.2599,-2.2336,-2.2622,-2.3106,-2.3024,-2.2506,-2.2263,-2.2604,-2.2887,-2.3021,-2.3234,-2.3845,-2.3976,-2.4186,-2.423,-2.448,-2.472,-2.4883,-2.5008,-2.4619,-2.4443,-2.4507,-2.4772,-2.5234,-2.5857,-2.5577,-2.5657,-2.5714,-2.5813,-2.5744,-2.5369,-2.4667,-2.4496,-2.5119,-2.5453,-2.6,-2.6602,-2.6826,-2.7034,-2.7458,-2.7509,-2.766,-2.8094,-2.837,-2.8917,-2.9358,-2.9892,-3.0309,-3.0658,-3.0935,-3.1055,-3.1151,-3.119,-3.119,-3.119,-3.119,-3.119,-3.119,-3.119,-3.1372,-3.1391,-3.1432,-3.1623,-3.1914,-3.1852,-3.1426,-3.0856,-3.0222,-2.9547,-2.0,-2.3614,-1.9934,-2.2242,-2.6739,-2.1644,-2.1028,-2.3835,-2.4494,-2.5297,-2.5201,-2.7279,-2.8927,-2.8665,-2.7024,-2.706,-2.7095,-2.6805,-2.5037,-2.3592,-2.3204,-2.2348,-2.1267,-2.0658,-1.9899,-1.862,-1.8405,-1.8808,-1.8992,-1.9028,-1.9417,-2.0806,-1.9938,-1.9767,-2.0839,-2.1413,-2.147,-2.168,-2.2535,-2.2955,-2.2784,-2.3017,-2.3234,-2.3541,-2.341,-2.3567,-2.395,-2.3899,-2.4112,-2.5146,-2.5229,-2.4389,-2.3398,-2.2834,-2.2834,-2.3017,-2.3384,-2.3839,-2.4359,-2.4353,-2.4529,-2.5071,-2.5109,-2.5121,-2.5146,-2.5071,-2.4958,-2.5179,-2.5575,-2.6519,-2.7336,-2.7139,-2.6884,-2.6888,-2.6885,-2.6624,-2.6231,-2.6008,-2.6422,-2.6176,-2.6162,-2.6496,-2.7034,-2.7408,-2.7509,-2.764,-2.764,-2.7775,-2.8271,-2.8686,-2.9164,-2.9536,-2.9978,-3.0518,-3.0878,-3.1066,-3.1224,-3.1275,-3.1258,-3.1224,-3.1207,-3.119,-3.119,-3.119,-3.1252,-3.1372,-3.147,-3.1449,-3.1808,-3.2588,-3.2378,-3.1544,-3.1048,-3.0679,-2.9909,-1.9815,-2.3381,-2.2372,-2.5382,-2.9931,-2.8394,-2.9038,-3.2164,-3.1918,-3.2498,-3.2328,-3.3243,-3.2536,-3.1388,-2.9779,-2.7929,-2.6689,-2.6433,-2.604,-2.4896,-2.4399,-2.3513,-2.2909,-2.2599,-2.1858,-2.0952,-2.0588,-2.0599,-2.0676,-2.0801,-2.1229,-2.1834,-2.1661,-2.1915,-2.2351,-2.2655,-2.2828,-2.305,-2.3593,-2.3704,-2.3693,-2.3788,-2.4108,-2.4624,-2.4625,-2.5027,-2.5521,-2.5217,-2.5205,-2.6094,-2.6233,-2.6039,-2.5735,-2.5673,-2.5605,-2.5387,-2.5362,-2.5394,-2.5623,-2.5872,-2.6015,-2.6189,-2.6211,-2.6236,-2.6148,-2.587,-2.5894,-2.5986,-2.6543,-2.7307,-2.8536,-2.8608,-2.8697,-2.8788,-2.8813,-2.8777,-2.866,-2.8498,-2.7886,-2.7026,-2.6852,-2.6788,-2.7269,-2.7679,-2.7814,-2.8006,-2.8248,-2.8228,-2.8437,-2.8873,-2.9275,-2.9633,-2.9951,-3.0518,-3.1038,-3.1162,-3.1292,-3.1376,-3.1376,-3.1292,-3.1258,-3.1207,-3.119,-3.119,-3.119,-3.1252,-3.1312,-3.1372,-3.1565,-3.2022,-3.181,-3.1558,-3.1354,-3.1034,-2.9762,-2.1274,-2.4475,-2.4732,-2.6406,-2.917,-3.1145,-3.2041,-3.2819,-3.435,-3.5065,-3.4908,-3.4694,-3.4018,-3.2605,-3.1049,-2.8958,-2.747,-2.7208,-2.6938,-2.6094,-2.5563,-2.5254,-2.4699,-2.4619,-2.4142,-2.3652,-2.3442,-2.284,-2.2207,-2.1902,-2.2659,-2.3494,-2.3133,-2.3049,-2.3791,-2.4001,-2.4093,-2.4385,-2.4767,-2.5052,-2.5052,-2.5052,-2.5358,-2.5581,-2.5734,-2.6025,-2.6314,-2.6607,-2.6595,-2.7095,-2.755,-2.7736,-2.7736,-2.7604,-2.7364,-2.6714,-2.6521,-2.6521,-2.6521,-2.6521,-2.662,-2.7069,-2.7095,-2.7417,-2.7617,-2.7641,-2.7468,-2.7853,-2.7752,-2.8663,-3.0125,-2.9964,-2.9871,-2.9888,-3.0003,-2.9924,-2.9714,-2.9639,-2.8896,-2.7904,-2.792,-2.7862,-2.7497,-2.7799,-2.8038,-2.8357,-2.8763,-2.8893,-2.8891,-2.9454,-3.0046,-3.0359,-3.0806,-3.1099,-3.1573,-3.1658,-3.1755,-3.1772,-3.1732,-3.1647,-3.1478,-3.1495,-3.1326,-3.119,-3.119,-3.1326,-3.1329,-3.1411,-3.1449,-3.1507,-3.1735,-3.1864,-3.1826,-3.1285,-2.9991,-2.2271,-2.5318,-2.5898,-2.6721,-2.8106,-3.1426,-3.2498,-3.2257,-3.4427,-3.5531,-3.5419,-3.4576,-3.3779,-3.2805,-3.1358,-2.9762,-2.8685,-2.8543,-2.7715,-2.6907,-2.6644,-2.6619,-2.6652,-2.6655,-2.6364,-2.5947,-2.6242,-2.5614,-2.3951,-2.3311,-2.4157,-2.4847,-2.4154,-2.4249,-2.5284,-2.5332,-2.5417,-2.5963,-2.6289,-2.6714,-2.6714,-2.6726,-2.6658,-2.6589,-2.6645,-2.6782,-2.6905,-2.7471,-2.7789,-2.8117,-2.8505,-2.8925,-2.8925,-2.8812,-2.8182,-2.7229,-2.7011,-2.7037,-2.7053,-2.7117,-2.7509,-2.7934,-2.7999,-2.8363,-2.8607,-2.8757,-2.9136,-2.995,-2.9723,-2.9771,-3.0866,-3.0896,-3.0661,-3.0639,-3.0672,-3.0567,-3.0338,-3.0253,-3.0273,-2.9637,-2.9372,-2.9037,-2.8697,-2.915,-2.9639,-2.9701,-3.0105,-3.0188,-3.029,-3.0879,-3.1359,-3.1586,-3.1875,-3.1941,-3.2205,-3.2391,-3.2449,-3.2507,-3.2483,-3.2408,-3.2161,-3.1907,-3.1715,-3.1681,-3.1546,-3.167,-3.1589,-3.1445,-3.1389,-3.1562,-3.1986,-3.2004,-3.1689,-3.1218,-3.0226,-2.1023,-2.4189,-2.4281,-2.6308,-2.9242,-3.0669,-3.2373,-3.4072,-3.5018,-3.5505,-3.5077,-3.4426,-3.3379,-3.2114,-3.0553,-2.9569,-2.9134,-2.8779,-2.8174,-2.7401,-2.7302,-2.7353,-2.7467,-2.7827,-2.7899,-2.7803,-2.8332,-2.7117,-2.5654,-2.5197,-2.548,-2.6176,-2.6294,-2.6488,-2.7018,-2.6731,-2.7149,-2.809,-2.7855,-2.7537,-2.7537,-2.7537,-2.7229,-2.6973,-2.7162,-2.755,-2.767,-2.8363,-2.8812,-2.8876,-2.8939,-2.9052,-2.8862,-2.8233,-2.8363,-2.8495,-2.8719,-2.8671,-2.856,-2.8403,-2.8563,-2.8734,-2.8876,-2.8939,-2.9254,-2.9317,-2.9642,-3.0208,-3.0133,-3.045,-3.1278,-3.1351,-3.1334,-3.1317,-3.124,-3.127,-3.1234,-3.1201,-3.119,-3.1405,-3.117,-3.051,-3.0029,-3.0686,-3.1278,-3.131,-3.139,-3.1502,-3.1692,-3.2199,-3.2462,-3.2627,-3.2757,-3.2882,-3.2949,-3.3102,-3.3177,-3.3277,-3.3177,-3.3136,-3.2831,-3.256,-3.2584,-3.25,-3.2297,-3.1924,-3.1659,-3.1494,-3.1359,-3.1428,-3.162,-3.1524,-3.1295,-3.0759,-3.0296,-1.7624,-2.1658,-2.3037,-2.5131,-2.7803,-2.9454,-3.1425,-3.3312,-3.4202,-3.4211,-3.3801,-3.3609,-3.2601,-3.1174,-3.041,-2.9613,-2.8764,-2.8779,-2.8448,-2.7806,-2.7654,-2.7992,-2.8616,-2.8924,-2.9074,-2.9387,-2.9459,-2.8941,-2.7682,-2.7302,-2.7525,-2.7219,-2.7683,-2.7946,-2.8376,-2.8117,-2.8298,-2.8671,-2.862,-2.8441,-2.8427,-2.8427,-2.8233,-2.792,-2.8247,-2.8376,-2.862,-2.9254,-2.969,-2.9827,-3.0072,-3.0404,-3.0389,-3.0133,-3.0072,-3.0343,-3.043,-2.9988,-2.9178,-2.9086,-2.9313,-2.9662,-2.9766,-2.9936,-3.0269,-3.0404,-3.045,-3.0955,-3.097,-3.1161,-3.1409,-3.1467,-3.1467,-3.1524,-3.164,-3.1894,-3.2048,-3.2296,-3.2384,-3.2661,-3.2932,-3.2321,-3.1791,-3.2015,-3.245,-3.2434,-3.2707,-3.3028,-3.3132,-3.3326,-3.3501,-3.352,-3.3625,-3.3728,-3.3812,-3.3931,-3.3973,-3.4016,-3.3846,-3.3736,-3.3482,-3.3313,-3.3355,-3.3059,-3.2577,-3.2205,-3.185,-3.1517,-3.1303,-3.123,-3.119,-3.119,-3.114,-3.0675,-3.0263,-1.4635,-1.8339,-2.112,-2.3689,-2.624,-2.8269,-3.0485,-3.261,-3.3339,-3.3349,-3.2918,-3.284,-3.1942,-3.0734,-3.0684,-2.9996,-2.8532,-2.8951,-2.8602,-2.8122,-2.8098,-2.8697,-2.9322,-2.9784,-3.0288,-3.0569,-3.054,-3.0011,-2.9566,-2.9352,-2.9059,-2.8103,-2.8492,-2.8989,-2.9192,-2.9002,-2.9002,-2.938,-2.9628,-2.9566,-2.938,-2.9303,-2.9192,-2.9066,-2.9192,-2.9331,-2.9442,-3.0133,-3.0584,-3.0718,-3.1029,-3.1292,-3.1278,-3.0896,-3.0955,-3.1073,-3.1057,-3.0623,-3.0076,-2.9909,-2.9987,-3.0337,-3.0658,-3.0777,-3.1204,-3.1467,-3.1467,-3.1394,-3.1409,-3.1409,-3.1467,-3.1467,-3.1682,-3.1739,-3.1853,-3.2272,-3.268,-3.3024,-3.3344,-3.3611,-3.3924,-3.4322,-3.3865,-3.358,-3.3581,-3.3566,-3.3937,-3.4388,-3.4422,-3.4359,-3.4169,-3.4071,-3.4115,-3.4218,-3.4303,-3.4438,-3.4583,-3.4684,-3.4556,-3.4479,-3.431,-3.4252,-3.4295,-3.3787,-3.3119,-3.2848,-3.2696,-3.1918,-3.119,-3.119,-3.119,-3.119,-3.1038,-3.062,-3.0631,-1.2738,-1.442,-1.7863,-2.1956,-2.6038,-2.6922,-2.9345,-3.2391,-3.3182,-3.3383,-3.3157,-3.2776,-3.1948,-3.1241,-3.0838,-3.0564,-3.0038,-2.9077,-2.8759,-2.8852,-2.9116,-2.9385,-2.9924,-3.0567,-3.1183,-3.1306,-3.1219,-3.0837,-3.0524,-3.0703,-3.0072,-2.9178,-2.938,-2.9628,-2.9827,-2.9704,-2.9766,-3.0194,-3.0644,-3.0703,-3.0389,-3.0133,-2.9889,-2.9456,-2.9842,-3.0208,-3.0283,-3.1057,-3.1426,-3.1441,-3.1558,-3.1497,-3.1439,-3.1029,-3.1087,-3.1279,-3.1026,-3.0817,-3.0807,-3.0954,-3.1203,-3.1379,-3.1351,-3.1292,-3.1467,-3.1467,-3.1467,-3.1467,-3.1467,-3.1467,-3.1467,-3.1524,-3.1739,-3.1951,-3.216,-3.268,-3.3182,-3.3887,-3.4219,-3.4543,-3.4795,-3.504,-3.5132,-3.4655,-3.4512,-3.4529,-3.4609,-3.5057,-3.5031,-3.4925,-3.4655,-3.4513,-3.4539,-3.4556,-3.4607,-3.4776,-3.5064,-3.5182,-3.5148,-3.5205,-3.5301,-3.5216,-3.4972,-3.4634,-3.4032,-3.3778,-3.3389,-3.2577,-3.1867,-3.1393,-3.1224,-3.136,-3.137,-3.1108,-3.1382,-1.1658,-1.3612,-1.649,-2.0286,-2.446,-2.587,-2.828,-3.0969,-3.2003,-3.2478,-3.266,-3.2109,-3.1602,-3.1265,-3.1506,-3.0924,-2.9988,-2.9931,-2.948,-2.9358,-2.949,-2.9789,-3.0238,-3.0642,-3.1076,-3.1377,-3.1467,-3.1409,-3.1146,-3.1336,-3.1219,-3.0658,-3.0404,-3.0703,-3.0777,-3.0584,-3.0703,-3.0896,-3.1278,-3.1278,-3.1219,-3.1029,-3.0896,-3.0644,-3.126,-3.1589,-3.1752,-3.2377,-3.2393,-3.2228,-3.2108,-3.1869,-3.1526,-3.1102,-3.1161,-3.1482,-3.1071,-3.1191,-3.1352,-3.1467,-3.1467,-3.1467,-3.1467,-3.1467,-3.1467,-3.1467,-3.1467,-3.1467,-3.1524,-3.1539,-3.1524,-3.1539,-3.164,-3.1951,-3.2453,-3.3049,-3.3684,-3.4431,-3.483,-3.5018,-3.5237,-3.5436,-3.5498,-3.5481,-3.5481,-3.5498,-3.5577,-3.5605,-3.5487,-3.5402,-3.5131,-3.4996,-3.4979,-3.503,-3.5081,-3.5351,-3.5639,-3.5639,-3.5639,-3.5639,-3.5639,-3.5605,-3.5318,-3.5081,-3.4827,-3.4421,-3.388,-3.3152,-3.2527,-3.1952,-3.1715,-3.1698,-3.1647,-3.1492,-3.1671,-1.0869,-1.2778,-1.5482,-1.9088,-2.3086,-2.5257,-2.7719,-3.0179,-3.1204,-3.1787,-3.2233,-3.224,-3.1992,-3.1765,-3.1738,-3.1326,-3.0239,-2.9992,-2.9871,-2.9786,-2.9804,-3.0103,-3.0432,-3.0806,-3.1195,-3.1407,-3.1467,-3.1467,-3.1409,-3.1467,-3.1409,-3.1409,-3.1467,-3.1409,-3.1409,-3.1467,-3.1467,-3.1467,-3.1467,-3.1631,-3.1721,-3.1795,-3.1989,-3.2035,-3.2497,-3.2646,-3.275,-3.308,-3.2961,-3.2662,-3.2392,-3.2123,-3.1779,-3.1467,-3.1467,-3.1467,-3.1467,-3.1467,-3.1467,-3.1467,-3.1467,-3.1467,-3.1467,-3.1467,-3.1467,-3.1467,-3.1467,-3.1467,-3.1539,-3.1597,-3.1727,-3.1932,-3.2419,-3.2897,-3.3279,-3.3794,-3.4333,-3.4941,-3.5207,-3.5407,-3.5577,-3.5639,-3.5639,-3.5639,-3.5639,-3.5639,-3.5639,-3.5639,-3.5588,-3.5537,-3.552,-3.5453,-3.547,-3.552,-3.5605,-3.5639,-3.5639,-3.5639,-3.5639,-3.5639,-3.5639,-3.5639,-3.5622,-3.5419,-3.5148,-3.4895,-3.459,-3.4218,-3.3355,-3.2425,-3.2104,-3.1698,-3.1517,-3.1325,-3.1269,-1.0172,-1.1575,-1.453,-1.8423,-2.2509,-2.5098,-2.7576,-2.9997,-3.1029,-3.1753,-3.2447,-3.3485,-3.3337,-3.2349,-3.1924,-3.1321,-3.0593,-3.0084,-2.9858,-3.0038,-3.0328,-3.0522,-3.0761,-3.1106,-3.136,-3.1422,-3.1467,-3.1467,-3.1467,-3.1467,-3.1467,-3.1467,-3.1467,-3.1467,-3.1467,-3.1467,-3.1467,-3.1497,-3.1541,-3.19,-3.2377,-3.2497,-3.2751,-3.3036,-3.3365,-3.3469,-3.3544,-3.3754,-3.3574,-3.3051,-3.2751,-3.2362,-3.1794,-3.1541,-3.1482,-3.1467,-3.1467,-3.1467,-3.1467,-3.1467,-3.1467,-3.1467,-3.1467,-3.1467,-3.1467,-3.1467,-3.1467,-3.1467,-3.1524,-3.1826,-3.2175,-3.2553,-3.3123,-3.3599,-3.3893,-3.431,-3.4758,-3.5207,-3.547,-3.556,-3.5577,-3.5639,-3.5639,-3.5639,-3.5639,-3.5639,-3.5639,-3.5639,-3.5639,-3.5639,-3.5639,-3.5639,-3.5639,-3.5639,-3.5639,-3.5639,-3.5639,-3.5639,-3.5639,-3.5639,-3.5639,-3.5639,-3.5622,-3.556,-3.5487,-3.525,-3.5351,-3.5436,-3.4286,-3.3102,-3.2002,-3.1495,-3.1292,-3.119,-3.119,-1.0013,-1.1163,-1.3746,-1.6482,-1.9515,-2.3201,-2.6225,-2.8552,-3.0058,-3.1157,-3.194,-3.2924,-3.276,-3.2013,-3.2066,-3.1774,-3.1089,-3.1082,-3.0881,-3.0851,-3.1046,-3.115,-3.1285,-3.1345,-3.1467,-3.1467,-3.1467,-3.1467,-3.1467,-3.1467,-3.1467,-3.1467,-3.1467,-3.1467,-3.1467,-3.1511,-3.1631,-3.2108,-3.2258,-3.2482,-3.3066,-3.317,-3.329,-3.3574,-3.3948,-3.4143,-3.4188,-3.4457,-3.4277,-3.3649,-3.335,-3.2826,-3.2183,-3.1913,-3.1571,-3.1526,-3.1511,-3.1467,-3.1467,-3.1467,-3.1467,-3.1511,-3.1482,-3.1497,-3.1482,-3.1467,-3.1467,-3.1541,-3.1719,-3.2013,-3.2357,-3.2516,-3.3008,-3.356,-3.3947,-3.4376,-3.4818,-3.5287,-3.5577,-3.5577,-3.5639,-3.5774,-3.5842,-3.6096,-3.6129,-3.6028,-3.6045,-3.574,-3.5656,-3.5639,-3.5639,-3.5639,-3.5639,-3.5639,-3.5639,-3.5639,-3.5639,-3.5639,-3.5639,-3.5639,-3.5639,-3.5639,-3.5622,-3.5622,-3.5622,-3.5622,-3.5571,-3.5402,-3.4742,-3.3761,-3.2756,-3.1861,-3.1596,-3.141,-3.1207,-0.9593,-1.095,-1.2831,-1.5089,-1.767,-2.1315,-2.4585,-2.7457,-2.9511,-3.0804,-3.1546,-3.2283,-3.2237,-3.1836,-3.1897,-3.1634,-3.0914,-3.1317,-3.1225,-3.1285,-3.145,-3.1392,-3.1422,-3.1467,-3.1467,-3.1467,-3.1467,-3.1467,-3.1467,-3.1467,-3.1467,-3.1467,-3.1467,-3.1467,-3.1467,-3.1526,-3.178,-3.2258,-3.2497,-3.2916,-3.3514,-3.3873,-3.3963,-3.4292,-3.4607,-3.4846,-3.4951,-3.507,-3.5085,-3.4397,-3.3888,-3.338,-3.2721,-3.2377,-3.2168,-3.2213,-3.2213,-3.2213,-3.2258,-3.2258,-3.2333,-3.2347,-3.1825,-3.1631,-3.1809,-3.1943,-3.2123,-3.2198,-3.2138,-3.2554,-3.2974,-3.3148,-3.3472,-3.4098,-3.4514,-3.498,-3.5481,-3.6011,-3.6262,-3.6177,-3.6299,-3.6315,-3.6315,-3.6502,-3.6755,-3.662,-3.6485,-3.6129,-3.5825,-3.5825,-3.5842,-3.5859,-3.5791,-3.5757,-3.5723,-3.5639,-3.5639,-3.5639,-3.5594,-3.5611,-3.5639,-3.5639,-3.5639,-3.5639,-3.5639,-3.5605,-3.552,-3.5233,-3.4861,-3.4411,-3.3734,-3.29,-3.2121,-3.1867,-3.1742,-0.8983,-1.0777,-1.1864,-1.4191,-1.7303,-1.9792,-2.3203,-2.7156,-2.9331,-3.0654,-3.1482,-3.205,-3.1989,-3.1636,-3.1596,-3.1054,-3.0378,-3.112,-3.1091,-3.1016,-3.1345,-3.1392,-3.1467,-3.1467,-3.1467,-3.1467,-3.1467,-3.1467,-3.1467,-3.1467,-3.1467,-3.1467,-3.1467,-3.1467,-3.1467,-3.1719,-3.2078,-3.2557,-3.2796,-3.3425,-3.4233,-3.4517,-3.4756,-3.504,-3.5265,-3.5325,-3.537,-3.54,-3.4861,-3.4397,-3.4128,-3.3589,-3.3245,-3.32,-3.3365,-3.3455,-3.338,-3.3257,-3.3255,-3.3168,-3.3245,-3.2991,-3.2332,-3.2213,-3.2332,-3.2557,-3.2721,-3.2976,-3.3066,-3.3637,-3.4161,-3.4373,-3.4586,-3.506,-3.5514,-3.599,-3.6518,-3.6904,-3.7117,-3.7295,-3.7486,-3.7516,-3.7415,-3.7516,-3.7381,-3.7297,-3.7144,-3.6891,-3.6569,-3.6299,-3.6315,-3.6282,-3.618,-3.5915,-3.5943,-3.618,-3.6254,-3.6469,-3.5763,-3.5633,-3.5628,-3.5673,-3.5639,-3.5639,-3.5639,-3.5605,-3.5554,-3.5453,-3.5284,-3.479,-3.4425,-3.3777,-3.2933,-3.2883,-3.2757,-0.9216,-0.9965,-1.2258,-1.4266,-1.6122,-1.9241,-2.2491,-2.554,-2.7244,-2.87,-3.0054,-3.0675,-3.1183,-3.1498,-3.1492,-3.1225,-3.1195,-3.13,-3.1317,-3.1332,-3.1347,-3.1437,-3.1467,-3.1467,-3.1467,-3.1467,-3.1467,-3.1467,-3.1467,-3.1467,-3.1467,-3.1467,-3.1467,-3.1467,-3.1719,-3.1988,-3.2572,-3.3036,-3.32,-3.3978,-3.4771,-3.5115,-3.534,-3.5429,-3.5489,-3.5489,-3.5489,-3.5489,-3.507,-3.5011,-3.4577,-3.4128,-3.4098,-3.3709,-3.3529,-3.3493,-3.3481,-3.3498,-3.3538,-3.3511,-3.3589,-3.3664,-3.3155,-3.3095,-3.317,-3.3275,-3.338,-3.3649,-3.3814,-3.4197,-3.4516,-3.4759,-3.5155,-3.5615,-3.6036,-3.6458,-3.695,-3.7366,-3.7636,-3.8083,-3.8294,-3.8311,-3.8261,-3.8142,-3.8007,-3.7956,-3.7855,-3.7669,-3.7364,-3.7094,-3.6857,-3.684,-3.6857,-3.6738,-3.7026,-3.728,-3.7313,-3.7234,-3.6514,-3.6033,-3.6152,-3.6101,-3.5757,-3.5639,-3.5639,-3.5639,-3.5622,-3.552,-3.5436,-3.5504,-3.5155,-3.4462,-3.3905,-3.3845,-3.3633,-0.8922,-0.9669,-1.2024,-1.4068,-1.6123,-1.9236,-2.1702,-2.3372,-2.5561,-2.7475,-2.9016,-2.9985,-3.0514,-3.0765,-3.118,-3.1168,-3.0687,-3.124,-3.1422,-3.1422,-3.1467,-3.1467,-3.1467,-3.1467,-3.1467,-3.1467,-3.1467,-3.1467,-3.1467,-3.1467,-3.1467,-3.1467,-3.1467,-3.1704,-3.1958,-3.2347,-3.2991,-3.3544,-3.4023,-3.4577,-3.507,-3.5489,-3.5489,-3.5489,-3.5489,-3.5489,-3.5489,-3.5489,-3.54,-3.5265,-3.4741,-3.4726,-3.4666,-3.4292,-3.4337,-3.439,-3.4409,-3.4409,-3.4435,-3.4409,-3.4337,-3.4262,-3.4247,-3.4307,-3.4158,-3.4128,-3.4218,-3.4367,-3.4397,-3.4505,-3.4748,-3.5024,-3.5523,-3.6086,-3.6369,-3.6702,-3.7205,-3.7722,-3.8186,-3.8688,-3.887,-3.8903,-3.8836,-3.8734,-3.8785,-3.8954,-3.9022,-3.8954,-3.8481,-3.7939,-3.7669,-3.7499,-3.7601,-3.7669,-3.7973,-3.8108,-3.795,-3.7789,-3.7343,-3.6941,-3.6871,-3.6469,-3.6107,-3.5825,-3.5639,-3.5639,-3.5639,-3.5639,-3.5588,-3.5639,-3.5639,-3.5148,-3.4699,-3.4699,-3.4428,-0.8542,-0.9669,-1.1569,-1.4316,-1.6954,-1.9585,-2.0741,-2.1076,-2.4468,-2.6854,-2.8311,-2.9662,-3.0105,-3.0428,-3.1106,-3.0971,-3.0806,-3.118,-3.1467,-3.1467,-3.1467,-3.1467,-3.1467,-3.1467,-3.1467,-3.1467,-3.1467,-3.1467,-3.1467,-3.1467,-3.1467,-3.1467,-3.1616,-3.1913,-3.2317,-3.2811,-3.3455,-3.4098,-3.4502,-3.4921,-3.528,-3.5489,-3.5489,-3.5489,-3.5489,-3.5489,-3.5489,-3.54,-3.522,-3.5026,-3.4966,-3.5085,-3.5011,-3.5011,-3.528,-3.534,-3.5205,-3.519,-3.5126,-3.516,-3.525,-3.531,-3.5474,-3.5265,-3.4966,-3.4771,-3.4816,-3.4936,-3.4966,-3.4981,-3.5179,-3.5289,-3.567,-3.629,-3.6742,-3.7424,-3.8257,-3.8645,-3.8922,-3.9328,-3.9495,-3.9512,-3.9529,-3.9428,-3.9377,-3.9766,-3.9851,-3.98,-3.9512,-3.8819,-3.8548,-3.8294,-3.8481,-3.8599,-3.8565,-3.8633,-3.8413,-3.8176,-3.8024,-3.7567,-3.7301,-3.6864,-3.6383,-3.6011,-3.5639,-3.5639,-3.5639,-3.5639,-3.5639,-3.5639,-3.5639,-3.5639,-3.552,-3.5324,-3.5121,-0.9523,-1.0708,-1.3331,-1.6105,-1.867,-2.0063,-2.0974,-2.1737,-2.3592,-2.5707,-2.7496,-2.8741,-2.9978,-3.0812,-3.1093,-3.1076,-3.1106,-3.115,-3.1407,-3.1467,-3.1467,-3.1467,-3.1467,-3.1467,-3.1467,-3.1467,-3.1467,-3.1467,-3.1467,-3.1467,-3.1497,-3.1599,-3.1884,-3.2362,-3.2662,-3.3245,-3.4098,-3.4622,-3.4966,-3.519,-3.5429,-3.5489,-3.5489,-3.5489,-3.5489,-3.5489,-3.5489,-3.5474,-3.5415,-3.5355,-3.54,-3.5385,-3.5295,-3.5429,-3.5489,-3.5489,-3.5489,-3.5489,-3.5489,-3.5489,-3.5489,-3.5489,-3.5489,-3.5489,-3.5415,-3.531,-3.531,-3.5429,-3.5489,-3.5489,-3.5489,-3.5619,-3.5782,-3.6415,-3.7038,-3.8068,-3.9106,-3.9385,-3.9558,-3.9782,-4.002,-4.007,-4.007,-4.007,-4.0087,-4.0054,-4.0037,-4.0003,-3.9986,-3.958,-3.9495,-3.9326,-3.9512,-3.958,-3.9411,-3.9242,-3.9073,-3.9022,-3.8937,-3.841,-3.778,-3.6971,-3.6282,-3.5926,-3.5639,-3.5639,-3.5639,-3.5639,-3.5639,-3.5639,-3.5639,-3.5639,-3.5639,-3.5476,-3.5442,-1.0553,-1.1723,-1.4625,-1.717,-1.9222,-2.0268,-2.1112,-2.2035,-2.3368,-2.4848,-2.6435,-2.7718,-2.9137,-3.0592,-3.0926,-3.0941,-3.0956,-3.1273,-3.1407,-3.1467,-3.1467,-3.1467,-3.1467,-3.1467,-3.1467,-3.1467,-3.1467,-3.1467,-3.1467,-3.1467,-3.1497,-3.1644,-3.2168,-3.2706,-3.2991,-3.3948,-3.4666,-3.4966,-3.5355,-3.5474,-3.5489,-3.5489,-3.5489,-3.5489,-3.5489,-3.5489,-3.5489,-3.5489,-3.5489,-3.5489,-3.5489,-3.5489,-3.5444,-3.5474,-3.5489,-3.5489,-3.5489,-3.5489,-3.5489,-3.5489,-3.5489,-3.5489,-3.5489,-3.5489,-3.5489,-3.5385,-3.5385,-3.5489,-3.5489,-3.5489,-3.5489,-3.5554,-3.5619,-3.6072,-3.6315,-3.6883,-3.789,-3.8635,-3.8924,-3.9315,-3.9489,-3.9731,-3.9662,-3.9542,-3.9662,-4.007,-4.007,-4.002,-4.002,-4.0087,-4.0087,-4.0087,-4.0087,-4.0087,-3.9851,-3.9783,-3.98,-3.9783,-3.9681,-3.9172,-3.8393,-3.7077,-3.6163,-3.6062,-3.5876,-3.5639,-3.5639,-3.5639,-3.5639,-3.5639,-3.5639,-3.5639,-3.5639,-3.5639,-3.5588,-1.1723,-1.3092,-1.5545,-1.7531,-1.9166,-2.0204,-2.0974,-2.1886,-2.3269,-2.4372,-2.5402,-2.6485,-2.7954,-2.9337,-3.0193,-3.0058,-3.0328,-3.1195,-3.148,-3.1467,-3.1467,-3.1467,-3.1467,-3.1467,-3.1467,-3.1467,-3.1467,-3.1467,-3.1467,-3.1467,-3.1511,-3.1616,-3.2243,-3.2916,-3.3544,-3.4262,-3.4921,-3.5235,-3.5489,-3.5489,-3.5489,-3.5489,-3.5489,-3.5489,-3.5489,-3.5489,-3.5489,-3.5489,-3.5489,-3.5489,-3.5489,-3.5489,-3.5489,-3.5489,-3.5489,-3.5489,-3.5489,-3.5489,-3.5489,-3.5489,-3.5489,-3.5489,-3.5489,-3.5489,-3.5489,-3.5489,-3.5489,-3.5489,-3.5489,-3.5489,-3.5489,-3.5489,-3.5554,-3.58,-3.5967,-3.6099,-3.7128,-3.8003,-3.8398,-3.8745,-3.8924,-3.9156,-3.9156,-3.9016,-3.9193,-3.9662,-3.9901,-3.9952,-3.9952,-4.007,-4.0087,-4.0087,-4.0087,-4.0087,-4.0087,-4.0087,-4.0087,-4.0037,-3.9851,-3.9546,-3.8988,-3.7736,-3.6857,-3.6552,-3.6332,-3.5977,-3.5707,-3.5639,-3.5639,-3.5639,-3.5639,-3.5639,-3.5639,-3.5639,-3.5639,-1.3454,-1.5834,-1.6419,-1.7267,-1.8452,-1.9955,-2.0707,-2.1112,-2.2616,-2.3974,-2.4985,-2.5666,-2.7046,-2.9463,-3.0179,-3.0492,-3.0806,-3.139,-3.148,-3.1467,-3.1467,-3.1467,-3.1467,-3.1467,-3.1467,-3.1467,-3.1467,-3.1467,-3.1467,-3.1467,-3.1511,-3.1659,-3.2811,-3.338,-3.3649,-3.4442,-3.5295,-3.5489,-3.5489,-3.5489,-3.5489,-3.5489,-3.5489,-3.5489,-3.5489,-3.5489,-3.5489,-3.5489,-3.5489,-3.5489,-3.5489,-3.5489,-3.5489,-3.5489,-3.5489,-3.5489,-3.5489,-3.5489,-3.5489,-3.5489,-3.5489,-3.5489,-3.5489,-3.5489,-3.5489,-3.5489,-3.5489,-3.5489,-3.5489,-3.5489,-3.5489,-3.5489,-3.5554,-3.6211,-3.6533,-3.6758,-3.7424,-3.7648,-3.7905,-3.8019,-3.8019,-3.8189,-3.8262,-3.8189,-3.8133,-3.8596,-3.9049,-3.9049,-3.9209,-3.961,-4.002,-4.002,-4.002,-4.0087,-4.0087,-4.0087,-4.0087,-4.0087,-4.002,-3.9732,-3.9208,-3.8379,-3.7669,-3.7161,-3.6721,-3.6349,-3.6079,-3.5639,-3.5639,-3.5639,-3.5639,-3.5639,-3.5639,-3.5639,-3.5639]},{"header":{"parameterUnit":"m.s-1","parameterCategory":1,"la1":31.0,"la2":29.5877,"lo1":-88.7671,"lo2":-86.6584,"dy":0.0162,"dx":0.0185,"nx":115,"ny":88,"refTime":"2023-08-26T06:00:00:Z","depth":0,"parameterNumber":3,"parameterNumberName":"V-component_of_WINDS"},"data":[0.0,0.0,0.0,0.0,0.0,0.0,0.0,0.0,0.0,0.0,0.0,0.0,0.0,0.0,0.0,0.0,0.0,0.0,0.0,0.0,0.0,0.0,0.0,0.0,0.0,0.0,0.0,0.0,0.0,0.0,0.0,0.0,0.0,0.0,0.0,0.0,0.0,0.0,0.0,0.0,0.0,0.0,0.0,0.0,0.0,0.0,0.0,0.0,0.0,0.0,0.0,0.0,0.0,0.0,0.0,0.0,0.0,0.0,0.0,0.0,0.0,0.0,0.0,0.0,0.0,0.0,0.0,0.0,0.0,0.0,0.0,0.0,0.0,0.0,0.0,0.0,0.0,0.0,0.0,0.0,0.0,0.0,0.0,0.0,0.0,0.0,0.0,0.0,0.0,0.0,0.0,0.0,0.0,0.0,0.0,0.0,0.0,0.0,0.0,0.0,0.0,0.0,0.0,0.0,0.0,0.0,0.0,0.0,0.0,0.0,0.0,0.0,0.0,0.0,0.0,0.0,0.0,0.0,0.0,0.0,0.0,0.0,0.0,0.0,0.0,0.0,0.0,0.0,0.0,0.0,0.0,0.0,0.0,0.0,0.0,0.0,0.0,0.0,0.0,0.0,0.0,0.0,0.0,0.0,0.0,0.0,0.0,0.0,0.0,0.0,0.0,0.0,0.0,0.0,0.0,0.0,0.0,0.0,0.0,0.0,0.0,0.0,0.0,0.0,0.0,0.0,0.0,0.0,0.0,0.0,0.0,0.0,0.0,0.0,0.0,0.0,0.0,0.0,0.0,0.0,0.0,0.0,0.0,0.0,0.0,0.0,0.0,0.0,0.0,0.0,0.0,0.0,0.0,0.0,0.0,0.0,0.0,0.0,0.0,0.0,0.0,0.0,0.0,0.0,0.0,0.0,0.0,0.0,0.0,0.0,0.0,0.0,0.0,0.0,0.0,0.0,0.0,0.0,0.0,0.0,0.0,0.0,0.0,0.0,0.0,0.0,0.0,0.0,0.0,0.0,0.0,0.0,0.0,0.0,0.0,0.0,0.0,0.0,0.0,0.0,0.0,0.0,0.0,0.0,0.0,0.0,0.0,0.0,0.0,0.0,0.0,0.0,0.0,0.0,0.0,0.0,0.0,0.0,0.0,0.0,0.0,0.0,0.0,0.0,0.0,0.0,0.0,0.0,0.0,0.0,0.0,0.0,0.0,0.0,0.0,0.0,0.0,0.0,0.0,0.0,0.0,0.0,0.0,0.0,0.0,0.0,0.0,0.0,0.0,0.0,0.0,0.0,0.0,0.0,0.0,0.0,0.0,0.0,0.0,0.0,0.0,0.0,0.0,0.0,0.0,0.0,0.0,0.0,0.0,0.0,0.0,0.0,0.0,0.0,0.0,0.0,0.0,0.0,0.0,0.0,0.0,0.0,0.0,0.0,0.0,0.0,0.0,0.0,0.0,0.0,0.0,0.0,0.0,0.0,0.0,0.0,0.0,0.0,0.0,0.0,0.0,0.0,0.0,0.0,0.0,0.0,0.0,0.0,0.0,0.0,0.0,0.0,0.0,0.0,0.0,0.0,0.0,0.0,0.0,0.0,0.0,0.0,0.0,0.0,0.0,0.0,0.0,0.0,0.0,0.0,0.0,0.0,0.0,0.0,0.0,0.0,0.0,0.0,0.0,0.0,0.0,0.0,0.0,0.0,0.0,0.0,0.0,0.0,0.0,0.0,0.0,0.0,0.0,0.0,0.0,0.0,0.0,0.0,0.0,0.0,0.0,0.0,0.0,0.0,0.0,0.0,0.0,0.0,0.0,0.0,0.0,0.0,0.0,0.0,0.0,0.0,0.0,0.0,0.0,0.0,0.0,0.0,0.0,0.0,0.0,0.0,0.0,0.0,0.0,0.0,0.0,0.0,0.0,0.0,0.0,0.0,0.0,0.0,0.0,0.0,0.0,0.0,0.0,0.0,0.0,0.0,0.0,0.0,0.0,0.0,0.0,0.0,0.0,0.0,0.0,0.0,0.0,0.0,0.0,0.0,0.0,0.0,0.0,0.0,0.0,0.0,0.0,0.0,0.0,0.0,0.0,0.0,0.0,0.0,0.0,0.0,0.0,0.0,0.0,0.0,0.0,0.0,0.0,0.0,0.0,0.0,0.0,0.0,0.0,0.0,0.0,0.0,0.0,0.0,0.0,0.0,0.0,0.0,0.0,0.0,0.0,0.0,0.0,0.0,0.0,0.0,0.0,0.0,0.0,0.0,0.0,0.0,0.0,0.0,0.0,0.0,0.0,0.0,0.0,0.0,0.0,0.0,0.0,0.0,0.0,0.0,0.0,0.0,0.0,0.0,0.0,0.0,0.0,0.0,0.0,0.0,0.0,0.0,0.0,0.0,0.0,0.0,0.0,0.0,0.0,0.0,0.0,0.0,0.0,0.0,0.0,0.0,0.0,0.0,0.0,0.0,0.0,0.0,0.0,0.0,0.0,0.0,0.0,0.0,0.0,0.0,0.0,0.0,0.0,0.0,0.0,0.0,0.0,0.0,0.0,0.0,0.0,0.0,0.0,0.0,0.0,0.0,0.0,0.0,0.0,0.0,0.0,0.0,0.0,0.0,0.0,0.0,0.0,0.0,0.0,0.0,0.0,0.0,0.0,0.0,0.0,0.0,0.0,0.0,0.0,0.0,0.0,0.0,0.0,0.0,0.0,0.0,0.0,0.0,0.0,0.0,0.0,0.0,0.0,0.0,0.0,0.0,0.0,0.0,0.0,0.0,0.0,0.0,0.0,0.0,0.0,0.0,0.0,0.0,0.0,0.0,0.0,0.0,0.0,0.0,0.0,0.0,0.0,0.0,0.0,0.0,0.0,0.0,0.0,0.0,0.0,0.0,0.0,0.0,0.0,0.0,0.0,0.0,0.0,0.0,0.0,0.0,0.0,0.0,0.0,0.0,0.0,0.0,0.0,0.0,0.0,0.0,0.0,0.0,0.0,0.0,0.0,0.0,0.0,0.0,0.0,0.0,0.0,0.0,0.0,0.0,0.0,0.0,0.0,0.0,0.0,0.0,0.0,0.0,0.0,0.0,0.0,0.0,0.0,0.0,0.0,0.0,0.0,0.0,0.0,0.0,0.0,0.0,0.0,0.0,0.0,0.0,0.0,0.0,0.0,0.0,0.0,0.0,0.0,0.0,0.0,0.0,0.0,0.0,0.0,0.0,0.0,0.0,0.0,0.0,0.0,0.0,0.0,0.0,0.0,0.0,0.0,0.0,0.0,0.0,0.0,0.0,0.0,0.0,0.0,0.0,0.0,0.0,0.0,0.0,0.0,0.0,0.0,0.0,0.0,0.0,0.0,0.0,0.0,0.0,0.0,0.0,0.0,0.0,0.0,0.0,0.0,0.0,0.0,0.0,0.0,0.0,0.0,0.0,0.0,0.0,0.0,0.0,0.0,0.0,0.0,0.0,0.0,0.0,0.0,0.0,0.0,0.0,0.0,0.0,0.0,0.0,0.0,0.0,0.0,0.0,0.0,0.0,0.0,0.0,0.0,0.0,0.0,0.0,0.0,0.0,0.0,0.0,0.0,0.0,0.0,0.0,0.0,0.0,0.0,0.0,0.0,0.0,0.0,0.0,0.0,0.0,0.0,0.0,0.0,0.0,0.0,0.0,0.0,0.0,0.0,0.0,0.0,0.0,0.0,0.0,0.0,0.0,0.0,0.0,0.0,0.0,0.0,0.0,0.0,0.0,0.0,0.0,0.0,0.0,0.0,0.0,0.0,0.0,0.0,0.0,0.0,0.0,0.0,0.0,0.0,0.0,0.0,0.0,0.0,0.0,0.0,0.0,0.0,0.0,0.0,0.0,0.0,0.0,0.0,0.0,0.0,0.0,0.0,0.0,0.0,0.0,0.0,0.0,0.0,0.0,0.0,0.0,0.0,0.0,0.0,0.0,0.0,0.0,0.0,0.0,0.0,0.0,0.0,0.0,0.0,0.0,0.0,0.0,0.0,0.0,0.0,0.0,0.0,0.0,0.0,0.0,0.0,0.0,0.0,0.0,0.0,0.0,0.0,0.0,0.0,0.0,0.0,0.0,0.0,0.0,0.0,0.0,0.0,0.0,0.0,0.0,0.0,0.0,0.0,0.0,0.0,0.0,0.0,0.0,0.0,0.0,0.0,0.0,0.0,0.0,0.0,0.0,0.0,0.0,0.0,0.0,0.0,0.0,0.0,0.0,0.0,0.0,0.0,0.0,0.0,0.0,0.0,0.0,0.0,0.0,-0.1935,0.0,0.0,0.0,0.0,0.0,0.0,0.0,0.0,0.0,0.0,0.0,0.0,0.0,0.0,0.0,0.0,0.0,0.0,0.0,0.0,0.0,0.0,0.0,0.0,0.0,0.0,0.0,0.0,0.0,0.0,0.0,0.0,0.0,0.0,0.0,0.0,0.0,0.0,0.0,0.0,0.0,0.0,0.0,0.0,0.0,0.0,0.0,0.0,0.0,0.0,0.0,0.0,0.0,0.0,0.0,0.0,0.0,0.0,0.0,0.0,0.0,0.0,0.0,0.0,0.0,0.0,0.0,0.0,0.0,0.0,0.0,0.0,0.0,0.0,0.0,0.0,0.0,0.0,0.0,0.0,0.0,0.0,0.0,0.0,0.0,0.0,0.0,0.0,0.0,0.0,0.0,0.0,0.0,0.0,0.0,0.0,0.0,0.0,0.0,0.0,0.0,0.0,0.0,0.0,0.0,0.0,0.0,0.0,0.0,0.0,-0.2526,-0.1828,-0.1913,-0.1916,-0.1816,0.0,0.0,0.0,0.0,0.0,0.0,0.0,0.0,0.0,0.0,0.0,0.0,0.0,0.0,0.0,0.0,0.0,0.0,0.0,0.0,0.0,0.0,0.0,0.0,0.0,0.0,0.0,0.0,0.0,0.0,0.0,0.0,0.0,0.0,0.0,0.0,0.0,0.0,0.0,0.0,0.0,0.0,0.0,0.0,0.0,0.0,0.0,0.0,0.0,0.0,0.0,0.0,0.0,0.0,0.0,0.0,0.0,0.0,0.0,0.0,0.0,0.0,0.0,0.0,0.0,0.0,0.0,0.0,0.0,0.0,0.0,0.0,0.0,0.0,0.0,0.0,0.0,0.0,0.0,0.0,0.0,0.0,0.0,0.0,0.0,0.0,0.0,0.0,0.0,0.0,0.0,0.0,0.0,0.0,0.0,0.0,0.0,0.0,0.0,0.0,0.0,0.0,0.0,0.0,0.0,0.0,0.0,0.0,0.0,0.0,0.0,0.0,-0.1806,-0.1743,-0.1597,0.0,0.0,0.0,0.0,0.0,0.0,0.0,0.0,0.0,0.0,0.0,0.0,0.0,0.0,0.0,0.0,0.0,0.0,0.0,0.0,0.0,0.0,0.0,0.0,0.0,0.0,0.0,0.0,0.0,0.0,0.0,0.0,0.0,0.0,0.0,0.0,0.0,0.0,0.0,0.0,0.0,0.0,0.0,0.0,0.0,0.0,0.0,0.0,0.0,0.0,0.0,0.0,0.0,0.0,0.0,0.0,0.0,0.0,0.0,0.0,0.0,0.0,0.0,0.0,0.0,0.0,0.0,0.0,0.0,0.0,0.0,0.0,0.0,0.0,0.0,0.0,0.0,0.0,0.0,0.0,0.0,0.0,0.0,0.0,0.0,0.0,0.0,0.0,0.0,0.0,0.0,0.0,0.0,0.0,0.0,0.0,0.0,0.0,0.0,0.0,0.0,0.0,0.0,0.0,0.0,0.0,0.0,0.0,0.0,0.0,-0.1869,-0.1803,-0.1791,0.0,-0.1054,0.0,0.0,0.0,0.0,0.0,0.0,0.0,0.0,0.0,0.0,0.0,0.0,0.0,0.0,0.0,0.0,0.0,0.0,0.0,0.0,0.0,0.0,0.0,0.0,0.0,0.0,0.0,0.0,0.0,0.0,0.0,0.0,0.0,0.0,0.0,0.0,0.0,0.0,0.0,0.0,0.0,0.0,0.0,0.0,0.0,0.0,0.0,0.0,0.0,0.0,0.0,0.0,0.0,0.0,0.0,0.0,0.0,0.0,0.0,0.0,0.0,0.0,0.0,0.0,0.0,0.0,0.0,0.0,0.0,0.0,0.0,0.0,0.0,0.0,0.0,0.0,0.0,0.0,0.0,0.0,0.0,0.0,0.0,0.0,0.0,0.0,0.0,0.0,0.0,0.0,0.0,0.0,0.0,0.0,0.0,0.0,0.0,0.0,0.0,0.0,0.0,0.0,0.0,0.0,0.0,0.0,0.0,0.0,0.0,0.0,-0.1982,-0.1791,-0.1798,-0.1705,0.0,0.0,0.0,0.0,0.0,0.0,0.0,0.0,0.0,0.0,0.0,0.0,0.0,0.0,0.0,0.0,0.0,0.0,0.0,0.0,0.0,0.0,0.0,0.0,0.0,0.0,0.0,0.0,0.0,0.0,0.0,0.0,0.0,0.0,0.0,0.0,0.0,0.0,0.0,0.0,0.0,0.0,0.0,0.0,0.0,0.0,0.0,0.0,0.0,0.0,0.0,0.0,0.0,0.0,0.0,0.0,0.0,0.0,0.0,0.0,0.0,0.0,0.0,0.0,0.0,0.0,0.0,0.0,0.0,0.0,0.0,0.0,0.0,0.0,0.0,0.0,0.0,0.0,0.0,0.0,0.0,0.0,0.0,0.0,0.0,0.0,0.0,0.0,0.0,0.0,0.0,0.0,0.0,0.0,0.0,0.0,0.0,0.0,0.0,0.0,0.0,0.0,0.0,0.0,0.0,0.0,0.0,0.0,0.0,0.0,-0.2017,-0.1937,-0.1794,-0.1798,-0.1639,-0.1301,0.0,0.0,0.0,0.0,0.0,0.0,0.0,0.0,0.0,0.0,0.0,0.0,0.0,0.0,0.0,0.0,0.0,0.0,0.0,0.0,0.0,0.0,0.0,0.0,0.0,0.0,0.0,0.0,0.0,0.0,0.0,0.0,0.0,0.0,0.0,0.0,0.0,0.0,0.0,0.0,0.0,0.0,0.0,0.0,0.0,0.0,0.0,0.0,0.0,0.0,0.0,0.0,0.0,0.0,0.0,0.0,0.0,0.0,0.0,0.0,0.0,0.0,0.0,0.0,0.0,0.0,0.0,0.0,0.0,0.0,0.0,0.0,0.0,0.0,0.0,0.0,0.0,0.0,0.0,0.0,0.0,0.0,0.0,0.0,0.0,0.0,0.0,0.0,0.0,0.0,0.0,0.0,0.0,0.0,0.0,0.0,0.0,0.0,0.0,0.0,0.0,0.0,0.0,0.0,0.0,0.0,0.0,0.0,-0.1558,-0.1538,-0.1604,-0.1743,-0.1798,-0.1254,0.0,0.0,0.0,0.0,0.0,0.0,0.0,0.0,0.0,0.0,0.0,0.0,0.0,0.0,0.0,0.0,0.0,0.0,0.0,0.0,0.0,0.0,0.0,0.0,0.0,0.0,0.0,0.0,0.0,0.0,0.0,0.0,0.0,0.0,0.0,0.0,0.0,0.0,0.0,0.0,0.0,0.0,0.0,0.0,0.0,0.0,0.0,0.0,0.0,0.0,0.0,0.0,0.0,0.0,0.0,0.0,0.0,0.0,0.0,0.0,0.0,0.0,0.0,0.0,0.0,0.0,0.0,0.0,0.0,0.0,0.0,0.0,0.0,0.0,0.0,0.0,0.0,0.0,0.0,0.0,0.0,0.0,0.0,0.0,0.0,0.0,0.0,0.0,0.0,0.0,0.0,0.0,0.0,0.0,0.0,0.0,0.0,0.0,0.0,0.0,0.0,0.0,0.0,0.0,0.0,0.0,0.0,0.0,0.0,-0.1392,-0.1195,-0.0781,-0.0081,0.0307,0.0527,0.0,0.0,0.0,0.0,0.0,0.0,0.0,0.0,0.0,0.0,0.0,0.0,0.0,0.0,0.0,0.0,0.0,0.0,0.0,0.0,0.0,0.0,0.0,0.0,0.0,0.0,0.0,0.0,0.0,0.0,0.0,0.0,0.0,0.0,0.0,0.0,0.0,0.0,0.0,0.0,0.0,0.0,0.0,0.0,0.0,0.0,0.0,0.0,0.0,0.0,0.0,0.0,0.0,0.0,0.0,0.0,0.0,0.0,0.0,0.0,0.0,0.0,0.0,0.0,0.0,0.0,0.0,0.0,0.0,0.0,0.0,0.0,0.0,0.0,0.0,0.0,0.0,0.0,0.0,0.0,0.0,0.0,0.0,0.0,0.0,0.0,0.0,0.0,0.0,0.0,0.0,0.0,0.0,0.0,0.0,0.0,0.0,0.0,0.0,0.0,0.0,0.0,0.0,0.0,0.0,0.0,0.0,0.0,0.0,-0.0498,0.0,0.0224,0.0,0.1634,0.182,0.0,0.0,0.0,0.0,0.0,0.0,0.0,0.0,0.0,0.0,0.0,0.0,0.0,0.0,0.0,0.0,0.0,0.0,0.0,0.0,0.0,0.0,0.0,0.0,0.0,0.0,0.0,0.0,0.0,0.0,0.0,0.0,0.0,0.0,0.0,0.0,0.0,0.0,0.0,0.0,0.0,0.0,0.0,0.0,0.0,0.0,0.0,0.0,0.0,0.0,0.0,0.0,0.0,0.0,0.0,0.0,0.0,0.0,0.0,0.0,0.0,0.0,0.0,0.0,0.0,0.0,0.0,0.0,0.0,0.0,0.0,0.0,0.0,0.0,0.0,0.0,0.0,0.0,0.0,0.0,0.0,0.0,0.0,0.0,0.0,0.0,0.0,0.0,0.0,0.0,0.0,0.0,0.0,0.0,0.0,0.0,0.0,0.0,0.0,0.0,0.0,0.0,0.0,0.0,0.0,0.0,0.0,0.0,-0.0581,0.1178,0.1555,0.135,0.0522,0.1926,0.2419,0.0,0.0,0.0,0.0,0.0,0.0,0.0,0.0,0.0,0.0,0.0,0.0,0.0,0.0,0.0,0.0,0.0,0.0,0.0,0.0,0.0,0.0,0.0,0.0,0.0,0.0,0.0,0.0,0.0,0.0,0.0,0.0,0.0,0.0,0.0,0.0,0.0,0.0,0.0,0.0,0.0,0.0,0.0,0.0,0.0,0.0,0.0,0.0,0.0,0.0,0.0,0.0,0.0,0.0,0.0,0.0,0.0,0.0,0.0,0.0,0.0,0.0,0.0,0.0,0.0,0.0,0.0,0.0,0.0,0.0,0.0,0.0,0.0,0.0,0.0,0.0,0.0,0.0,0.0,0.0,0.0,0.0,0.0,0.0,0.0,0.0,0.0,0.0,0.0,0.0,0.0,0.0,0.0,0.0,0.0,0.0,0.0,0.0,0.0,0.0,0.0,0.0,0.0,0.0,0.0,0.0,0.0,0.0,0.0,0.067,0.1498,0.2138,0.2522,0.273,0.2881,0.0,0.0,0.0,0.0,0.0,0.0,0.0,0.0,0.0,0.0,0.0,0.0,0.0,0.0,0.0,0.0,0.0,0.0,0.0,0.0,0.0,0.0,0.0,0.0,0.0,0.0,0.0,0.0,0.0,0.0,0.0,0.0,0.0,0.0,0.0,0.0,0.0,0.0,0.0,0.0,0.0,0.0,0.0,0.0,0.0,0.0,0.0,0.0,0.0,0.0,0.0,0.0,0.0,0.0,0.0,0.0,0.0,0.0,0.0,0.0,0.0,0.0,0.0,0.0,0.0,0.0,0.0,0.0,0.0,0.0,0.0,0.0,0.0,0.0,0.0,0.0,0.0,0.0,0.0,0.0,0.0,0.0,0.0,0.0,0.0,0.0,0.0,0.0,0.0,0.0,0.0,0.0,0.0,0.0,0.0,0.0,0.0,0.0,0.0,0.0,0.0,0.0,0.0,0.0,0.0,0.0,0.0,0.0,0.0,0.2415,0.2913,0.3479,0.4051,0.3766,0.3486,0.3233,0.0,0.0,0.0,0.0,0.0,0.0,0.0,0.0,0.0,0.0,0.0,0.0,0.0,0.0,0.0,0.0,0.0,0.0,0.0,0.0,0.0,0.0,0.0,0.0,0.0,0.0,0.0,0.0,0.0,0.0,0.0,0.0,0.0,0.0,0.0,0.0,0.0,0.0,0.0,0.0,0.0,0.0,0.0,0.0,0.0,0.0,0.0,0.0,0.0,0.0,0.0,0.0,0.0,0.0,0.0,0.0,0.0,0.0,0.0,0.0,0.0,0.0,0.0,0.0,0.0,0.0,0.0,0.0,0.0,0.0,0.0,0.0,0.0,0.0,0.0,0.0,0.0,0.0,0.0,0.0,0.0,0.0,0.0,0.0,0.0,0.0,0.0,0.0,0.0,0.0,0.0,0.0,0.0,0.0,0.0,0.0,0.0,0.0,0.0,0.0,0.0,0.0,0.0,0.0,0.0,0.0,0.0,0.0,0.5848,0.5566,0.5349,0.5171,0.4979,0.4315,0.0,0.0,0.0,0.0,0.0,0.0,0.0,0.0,0.0,0.0,0.0,0.0,0.0,0.0,0.0,0.0,0.0,0.0,0.0,0.0,0.0,0.0,0.0,0.0,0.0,0.0,0.0,0.0,0.0,0.0,0.0,0.0,0.0,0.0,0.0,0.0,0.0,0.0,0.0,0.0,0.0,0.0,0.0,0.0,0.0,0.0,0.0,0.0,0.0,0.0,0.0,0.0,0.0,0.0,0.0,0.0,0.0,0.0,0.0,0.0,0.0,0.0,0.0,0.0,0.0,0.0,0.0,0.0,0.0,0.0,0.0,0.0,0.0,0.0,0.0,0.0,0.0,0.0,0.0,0.0,0.0,0.0,0.0,0.0,0.0,0.0,0.0,0.0,0.0,0.0,0.0,0.0,0.0,0.0,0.0,0.0,0.0,0.0,0.0,0.0,0.0,0.0,0.0,0.0,0.0,0.0,0.0,0.0,0.0,0.7626,0.8047,0.779,0.6968,0.6302,0.5932,0.0,0.0,0.0,0.0,0.0,0.0,0.0,0.0,0.0,0.0,0.0,0.0,0.0,0.0,0.0,0.0,0.0,0.0,0.0,0.0,0.0,0.0,0.0,0.0,0.0,0.0,0.0,0.0,0.0,0.0,0.0,0.0,0.0,0.0,0.0,0.0,0.0,0.0,0.0,0.0,0.0,0.0,0.0,0.0,0.0,0.0,0.0,0.0,0.0,0.0,0.0,0.0,0.0,0.0,0.0,0.0,0.0,0.0,0.0,0.0,0.0,0.0,0.0,0.0,0.0,0.0,0.0,0.0,0.0,0.0,0.0,0.0,0.0,0.0,0.0,0.0,0.0,0.0,0.0,0.0,0.0,0.0,0.0,0.0,0.0,0.0,0.0,0.0,0.0,0.0,0.0,0.0,0.0,0.0,0.0,0.0,0.0,0.0,0.0,0.0,0.0,0.0,0.0,0.0,0.0,0.0,0.0,0.0,0.7472,0.8887,1.0498,1.1092,1.0663,0.8792,0.755,0.0,0.0,0.0,0.0,0.0,0.0,0.0,0.0,0.0,0.0,0.0,0.0,0.0,0.0,0.0,0.0,0.0,0.0,0.0,0.0,0.0,0.0,0.0,0.0,0.0,0.0,0.0,0.0,0.0,0.0,0.0,0.0,0.0,0.0,0.0,0.0,0.0,0.0,0.0,0.0,0.0,0.0,0.0,0.0,0.0,0.0,0.0,0.0,0.0,0.0,0.0,0.0,0.0,0.0,0.0,0.0,0.0,0.0,0.0,0.0,0.0,0.0,0.0,0.0,0.0,0.0,0.0,0.0,0.0,0.0,0.0,0.0,0.0,0.0,0.0,0.0,0.0,0.0,0.0,0.0,0.0,0.0,0.0,0.0,0.0,0.0,0.0,0.0,0.0,0.0,0.0,0.0,0.0,0.0,0.0,0.0,0.0,0.0,0.0,0.0,0.0,0.0,0.0,0.0,0.0,0.0,0.0,0.0,0.9285,1.0052,1.2753,1.4521,1.5081,1.1841,0.9333,0.0,0.0,0.0,0.0,0.0,0.0,0.0,0.0,0.0,0.0,0.0,0.0,0.0,0.0,0.0,0.0,0.0,0.0,0.0,0.0,0.0,0.0,0.0,0.0,0.0,0.0,0.0,0.0,0.0,0.0,0.0,0.0,0.0,0.0,0.0,0.0,0.0,0.0,0.0,0.0,0.0,0.0,0.0,0.0,0.0,0.0,0.0,0.0,0.0,0.0,0.0,0.0,0.0,0.0,0.0,0.0,0.0,0.0,0.0,0.0,0.0,0.0,0.0,0.0,0.0,0.0,0.0,0.0,0.0,0.0,0.0,0.0,0.0,0.0,0.0,0.0,0.0,0.0,0.0,0.0,0.0,0.0,0.0,0.0,0.0,0.0,0.0,0.0,0.0,0.0,0.0,0.0,0.0,0.0,0.0,0.0,0.0,0.0,0.0,0.0,0.0,0.0,0.0,0.0,0.0,0.0,0.0,0.0,0.9928,1.2755,1.409,1.5535,1.7216,1.3771,1.1635,0.0,0.0,0.0,0.0,0.0,0.0,0.0,0.0,0.0,0.0,0.0,0.0,0.0,0.0,0.0,0.0,0.0,0.0,0.0,0.0,0.0,0.0,0.0,0.0,0.0,0.0,0.0,0.0,0.0,0.0,0.0,0.0,0.0,0.0,0.0,0.0,0.0,0.0,0.0,0.0,0.0,0.0,0.0,0.0,0.0,0.0,0.0,0.0,1.6034,0.0,0.0,0.0,0.0,0.0,0.0,0.0,0.0,0.0,0.0,0.0,0.0,0.0,0.0,0.0,0.0,0.0,0.0,0.0,0.0,0.0,0.0,0.0,0.0,0.0,0.0,0.0,0.0,0.0,0.0,0.0,0.0,0.0,0.0,0.0,0.0,0.0,0.0,0.0,0.0,0.0,0.0,0.0,0.0,0.0,0.0,0.0,0.0,0.0,0.0,0.0,0.0,0.0,0.0,0.0,0.0,0.0,0.0,0.0,1.1046,1.4068,1.5469,1.6965,1.849,1.6337,1.4235,0.0,0.0,0.0,0.0,0.0,0.0,0.0,0.0,0.0,0.0,0.0,0.0,0.0,0.0,0.0,0.0,0.0,0.0,0.0,0.0,0.0,0.0,0.0,0.0,0.0,0.0,0.0,0.0,0.0,0.0,0.0,0.0,0.0,0.0,0.0,0.0,0.0,0.0,0.0,0.0,0.0,0.0,0.0,0.0,0.0,0.0,0.0,0.0,0.0,0.0,0.0,0.0,0.0,0.0,0.0,0.0,0.0,0.0,0.0,0.0,0.0,0.0,0.0,0.0,0.0,0.0,0.0,0.0,0.0,0.0,0.0,0.0,0.0,0.0,0.0,0.0,0.0,0.0,0.0,0.0,0.0,0.0,0.0,0.0,0.0,0.0,0.0,0.0,0.0,0.0,0.0,0.0,0.0,0.0,0.0,0.0,0.0,0.0,0.0,0.0,0.0,0.0,0.0,0.0,0.0,0.0,0.0,0.9724,1.2348,1.5247,1.7008,1.8515,1.9758,1.8728,1.6716,1.3815,0.0,0.0,0.0,0.0,0.0,0.0,0.0,0.0,0.0,0.0,0.0,0.0,0.0,0.0,0.0,0.0,0.0,0.0,0.0,0.0,0.0,0.0,0.0,0.0,0.0,0.0,0.0,0.0,0.0,0.0,0.0,0.0,0.0,0.0,0.0,0.0,0.0,0.0,1.2617,1.3211,0.0,0.0,0.0,0.0,0.0,0.0,0.0,0.0,1.6673,0.0,0.0,0.0,0.0,0.0,0.0,0.0,0.0,0.0,0.0,0.0,0.0,0.0,0.0,0.0,0.0,0.0,0.0,0.0,0.0,0.0,0.0,0.0,0.0,0.0,0.0,0.0,0.0,0.0,0.0,0.0,0.0,0.0,0.0,0.0,0.0,0.0,0.0,0.0,0.0,0.0,0.0,0.0,0.0,0.0,0.0,0.0,0.0,0.0,0.0,0.0,0.0,0.0,0.0,0.0,0.0,0.9751,1.0926,1.3601,1.79,1.8852,1.9745,2.0701,1.9725,1.8216,1.6249,0.0,0.0,0.0,0.0,0.0,0.0,0.0,0.0,0.0,0.0,0.0,0.0,0.0,0.0,0.0,0.0,0.0,0.0,0.0,0.0,0.0,0.0,0.0,0.0,0.0,0.0,0.0,0.0,0.0,0.0,0.0,0.0,0.0,0.0,0.0,0.0,0.0,0.0,0.0,1.4072,1.4186,0.0,0.0,0.0,0.0,0.0,0.0,0.0,0.0,1.7754,0.0,0.0,0.0,0.0,0.0,0.0,0.0,0.0,0.0,0.0,0.0,0.0,0.0,0.0,0.0,0.0,0.0,0.0,0.0,0.0,0.0,0.0,0.0,0.0,0.0,0.0,0.0,0.0,0.0,0.0,0.0,0.0,0.0,0.0,0.0,0.0,0.0,0.0,0.0,0.0,0.0,0.0,0.0,0.0,0.0,0.0,0.0,0.0,0.0,0.0,0.0,0.0,0.0,0.0,0.0,1.0978,1.3291,1.6069,1.9248,2.0004,2.0728,2.1497,2.028,1.8873,0.0,0.0,0.0,0.0,0.0,0.0,0.0,0.0,0.0,0.0,0.0,0.0,0.0,0.0,0.0,0.0,0.0,0.0,0.0,0.0,0.0,0.0,0.0,0.0,0.0,0.0,0.0,0.0,0.0,0.0,0.0,0.0,0.0,0.0,0.0,0.0,0.0,0.0,0.0,0.0,1.4999,1.5301,1.7734,0.0,0.0,0.0,0.0,0.0,0.0,1.8136,1.7946,0.0,0.0,0.0,0.0,0.0,0.0,0.0,0.0,0.0,0.0,0.0,0.0,0.0,0.0,0.0,0.0,0.0,0.0,0.0,0.0,0.0,0.0,0.0,0.0,0.0,0.0,0.0,0.0,0.0,0.0,0.0,0.0,0.0,0.0,0.0,0.0,0.0,0.0,0.0,0.0,0.0,0.0,0.0,0.0,0.0,0.0,0.0,0.0,0.0,0.0,0.0,0.0,0.0,0.0,0.0,1.2156,1.55,1.8269,2.0348,2.1038,2.1642,2.2275,2.0458,1.9006,0.0,0.0,0.0,0.0,0.0,0.0,0.0,0.0,0.0,0.0,0.0,0.0,0.0,0.0,0.0,0.0,0.0,0.0,0.0,0.0,0.0,0.0,0.0,0.0,0.0,0.0,0.0,0.0,0.0,0.0,0.0,0.0,0.0,0.0,0.0,0.0,0.0,0.0,0.0,0.0,0.0,1.6507,1.8679,1.777,0.0,0.0,0.0,0.0,1.8006,1.8306,0.0,0.0,0.0,0.0,0.0,0.0,0.0,0.0,0.0,0.0,0.0,0.0,0.0,0.0,0.0,0.0,0.0,0.0,0.0,0.0,0.0,0.0,0.0,0.0,0.0,0.0,0.0,0.0,0.0,0.0,0.0,0.0,0.0,0.0,0.0,0.0,0.0,0.0,0.0,0.0,0.0,0.0,0.0,0.0,0.0,0.0,0.0,0.0,0.0,0.0,0.0,0.0,0.0,0.0,0.0,0.0,1.3622,1.6322,1.9061,2.1715,2.2236,2.2623,2.3017,2.0244,1.8577,0.0,0.0,0.0,0.0,0.0,0.0,0.0,0.0,0.0,0.0,0.0,0.0,0.0,0.0,0.0,0.0,0.0,0.0,0.0,0.0,0.0,0.0,0.0,0.0,0.0,0.0,0.0,0.0,0.0,0.0,0.0,0.0,0.0,0.0,0.0,0.0,0.0,0.0,0.0,0.0,0.0,1.6934,1.9338,1.7933,1.681,0.0,0.0,1.9433,1.939,2.0721,0.0,0.0,0.0,0.0,0.0,0.0,0.0,0.0,0.0,0.0,0.0,0.0,0.0,0.0,0.0,0.0,0.0,0.0,0.0,0.0,0.0,0.0,0.0,0.0,0.0,0.0,0.0,0.0,0.0,0.0,0.0,0.0,0.0,0.0,0.0,0.0,0.0,0.0,0.0,0.0,0.0,0.0,0.0,0.0,0.0,0.0,0.0,0.0,0.0,0.0,0.0,0.0,0.0,0.0,0.0,1.2839,1.5046,1.8461,2.1113,2.281,2.3231,2.3484,2.3629,2.0751,1.8978,0.0,0.0,0.0,0.0,0.0,0.0,0.0,0.0,0.0,0.0,0.0,0.0,0.0,0.0,0.0,0.0,0.0,0.0,0.0,0.0,0.0,0.0,0.0,0.0,0.0,0.0,0.0,0.0,0.0,0.0,0.0,0.0,0.0,0.0,0.0,0.0,0.0,0.0,0.0,0.0,0.0,0.0,1.8837,1.8306,0.0,0.0,0.0,1.9371,1.8434,0.0,0.0,0.0,0.0,0.0,0.0,0.0,0.0,0.0,0.0,0.0,0.0,0.0,0.0,0.0,0.0,0.0,0.0,0.0,0.0,0.0,0.0,0.0,0.0,0.0,0.0,0.0,0.0,0.0,0.0,0.0,0.0,0.0,0.0,0.0,0.0,0.0,0.0,0.0,0.0,0.0,0.0,0.0,0.0,0.0,0.0,0.0,0.0,0.0,0.0,0.0,0.0,0.0,0.0,0.0,0.0,0.0,1.6293,2.0411,2.2935,2.3662,2.4026,2.4209,2.4153,2.1656,0.0,0.0,0.0,0.0,0.0,0.0,0.0,0.0,0.0,0.0,0.0,0.0,0.0,0.0,0.0,0.0,0.0,0.0,0.0,0.0,0.0,0.0,0.0,0.0,0.0,0.0,0.0,1.2939,0.0,0.0,0.0,0.0,0.0,0.0,0.0,0.0,0.0,0.0,0.0,0.0,0.0,0.0,1.8712,1.8375,1.8538,1.8783,0.0,0.0,1.9201,1.8439,2.0644,2.2051,0.0,0.0,0.0,0.0,0.0,0.0,0.0,0.0,0.0,0.0,0.0,0.0,0.0,0.0,0.0,0.0,0.0,0.0,0.0,0.0,0.0,0.0,0.0,0.0,0.0,0.0,0.0,0.0,0.0,0.0,0.0,0.0,0.0,0.0,0.0,0.0,0.0,0.0,0.0,0.0,0.0,0.0,0.0,0.0,0.0,0.0,0.0,0.0,0.0,0.0,0.0,0.0,0.0,0.0,0.0,1.7318,2.1588,2.3989,2.4256,2.4579,2.476,2.4704,2.3016,2.1215,0.0,0.0,0.0,0.0,0.0,0.0,0.0,0.0,0.0,0.0,0.0,0.0,0.0,0.0,0.0,0.0,0.0,0.0,0.0,0.0,0.0,0.0,0.0,0.0,0.0,0.0,0.0,0.0,0.0,0.0,0.0,0.0,0.0,0.0,0.0,0.0,0.0,0.0,0.0,0.0,0.0,1.8629,1.8428,1.8339,1.8896,0.0,0.0,1.9361,2.0788,2.2575,2.3229,2.1431,0.0,0.0,0.0,0.0,0.0,0.0,0.0,0.0,0.0,0.0,0.0,0.0,0.0,0.0,0.0,0.0,0.0,0.0,0.0,0.0,0.0,0.0,0.0,0.0,0.0,0.0,0.0,0.0,0.0,0.0,0.0,0.0,0.0,0.0,0.0,0.0,0.0,0.0,0.0,0.0,0.0,0.0,0.0,0.0,0.0,0.0,0.0,0.0,0.0,0.0,0.0,0.0,0.0,1.7151,1.8196,2.2135,2.4375,2.4728,2.4866,2.493,2.493,2.3351,2.1524,0.0,0.0,0.0,0.0,0.0,0.0,0.0,0.0,0.0,0.0,0.0,0.0,0.0,0.0,0.0,0.0,0.0,0.0,0.0,0.0,0.0,0.0,0.0,0.0,0.0,0.0,0.0,0.0,1.5884,1.6238,1.7971,0.0,0.0,0.0,0.0,0.0,0.0,0.0,0.0,0.0,0.0,1.8519,1.9234,1.9495,0.0,0.0,2.028,2.0022,1.9698,2.1224,2.2184,2.1337,1.9627,0.0,0.0,0.0,0.0,0.0,0.0,0.0,0.0,0.0,0.0,0.0,0.0,0.0,0.0,0.0,0.0,0.0,0.0,0.0,0.0,0.0,0.0,0.0,0.0,0.0,0.0,0.0,0.0,0.0,0.0,0.0,0.0,0.0,0.0,0.0,0.0,0.0,0.0,0.0,0.0,0.0,0.0,0.0,0.0,0.0,0.0,0.0,0.0,0.0,0.0,0.0,0.0,1.7853,1.8836,2.2573,2.4695,2.5088,2.5088,2.5088,2.505,2.3992,2.2454,0.0,0.0,0.0,0.0,0.0,0.0,0.0,0.0,0.0,0.0,0.0,0.0,0.0,0.0,0.0,0.0,0.0,0.0,0.0,0.0,0.0,0.0,0.0,0.0,0.0,0.0,0.0,0.0,1.6311,1.6232,1.7667,0.0,0.0,0.0,0.0,0.0,0.0,0.0,0.0,0.0,0.0,1.8444,1.8809,1.9662,2.0096,1.9596,1.9528,1.9356,1.8786,1.9794,2.0677,2.0872,0.0,0.0,0.0,0.0,0.0,0.0,0.0,0.0,0.0,0.0,0.0,0.0,0.0,0.0,0.0,0.0,0.0,0.0,0.0,0.0,0.0,0.0,0.0,0.0,0.0,0.0,0.0,0.0,0.0,0.0,0.3988,0.0,0.0,0.0,0.0,0.0,0.0,0.0,0.0,0.0,0.0,0.0,0.0,0.0,0.0,0.0,0.0,0.0,0.0,0.0,0.0,0.0,0.0,1.8799,1.9223,2.3007,2.5088,2.5274,2.5303,2.5284,2.5284,2.5245,2.4379,2.2534,0.0,0.0,0.0,0.0,0.0,0.0,0.0,0.0,0.0,0.0,0.0,0.0,0.0,0.0,0.0,0.0,0.0,0.0,0.0,0.0,0.0,0.0,0.0,0.0,0.0,0.0,1.548,1.688,1.7779,0.0,0.0,0.0,0.0,0.0,0.0,0.0,0.0,0.0,0.0,1.7191,1.8431,1.677,1.8319,1.9195,1.8003,1.701,1.6958,1.8592,1.8752,1.902,0.0,0.0,0.0,0.0,0.0,0.0,0.0,0.0,0.0,0.0,0.0,0.0,0.0,0.0,0.0,0.0,0.0,0.0,0.0,0.0,0.0,0.0,0.0,0.0,0.0,0.0,0.0,0.7862,0.7392,0.0,0.0,0.0,0.0,0.0,0.0,0.0,0.0,0.0,0.0,0.0,1.3385,1.4116,0.0,0.0,0.0,0.0,0.0,0.0,0.0,0.0,0.0,0.0,0.0,0.0,1.9091,1.9626,2.3255,2.5243,2.5303,2.5313,2.5313,2.5313,2.5313,2.4437,2.264,0.0,0.0,0.0,0.0,0.0,0.0,0.0,0.0,0.0,0.0,0.0,0.0,0.0,0.0,0.0,0.0,0.0,0.0,0.0,0.0,0.0,0.0,0.0,0.0,0.0,1.5038,0.0,0.0,0.0,0.0,0.0,0.0,0.0,0.0,0.0,0.0,0.0,1.5298,1.5751,1.624,1.6529,1.6412,1.6607,1.7166,0.0,0.0,0.0,0.0,0.0,0.0,0.0,0.0,0.0,0.0,0.0,0.0,0.0,0.0,2.0984,2.0332,2.1126,2.189,2.189,0.0,0.0,0.0,0.0,0.0,0.0,0.0,0.0,0.0,0.0,0.0,0.0,0.0,0.0,1.0103,0.0,0.9173,0.0,0.0,0.0,0.0,0.0,0.0,0.0,0.0,1.427,1.5866,1.6564,1.7404,1.7901,0.0,1.7527,1.5729,0.0,0.0,0.0,0.0,0.0,0.0,0.0,0.0,1.9445,1.9915,2.3439,2.5339,2.533,2.5354,2.5379,2.5379,2.5337,2.4773,2.3592,2.1905,2.0393,0.0,0.0,0.0,0.0,0.0,0.0,0.0,0.0,0.0,0.0,0.0,0.0,0.0,0.0,0.0,0.0,0.0,0.0,0.0,0.0,0.0,0.0,0.0,1.562,0.0,0.0,0.0,0.0,0.0,0.0,0.0,0.0,0.0,1.5784,1.5458,1.5447,1.6111,1.6037,1.5821,1.5551,0.0,0.0,0.0,0.0,0.0,0.0,0.0,1.6571,1.7075,1.763,1.8574,2.0255,2.1527,2.1913,2.0737,0.0,0.0,2.1864,2.263,2.3415,2.3397,2.2949,2.2745,2.3323,2.1708,2.0368,0.0,0.0,0.0,0.0,0.0,0.0,0.0,0.0,1.3572,1.2456,0.0,1.2181,0.0,0.0,0.0,0.0,0.0,1.2359,0.0,0.0,1.9479,2.091,1.9962,2.0258,2.0624,2.0916,1.9627,1.9047,1.9189,1.8422,0.0,0.0,0.0,0.0,0.0,0.0,1.9916,2.0307,2.3636,2.5394,2.5406,2.5471,2.5489,2.5489,2.5421,2.5394,2.5316,2.3639,2.2651,2.2526,1.9279,0.0,0.0,0.0,0.0,0.0,0.0,0.0,0.0,0.0,0.0,0.0,0.0,0.0,0.0,0.0,0.0,0.0,0.0,0.0,0.0,1.7477,0.0,0.0,0.0,0.0,0.0,0.0,0.0,0.0,0.0,0.0,1.5586,1.5917,1.6188,1.5794,0.0,0.0,0.0,0.0,1.4733,1.3045,1.3096,1.3785,1.4812,1.5928,1.7715,2.0746,0.0,0.0,2.1725,2.1516,2.1352,2.0802,2.286,2.4103,2.2745,2.2952,2.3252,2.3216,2.3414,2.342,2.3327,2.2321,2.1062,1.8898,0.0,0.0,0.0,0.0,1.4443,1.5196,1.6827,1.5606,1.4943,1.4648,1.4555,0.0,0.0,0.0,0.0,0.0,0.0,1.6077,1.7906,1.9993,2.1494,2.2524,2.2994,2.3397,2.3652,2.329,2.3223,2.3435,2.3208,2.0831,1.6491,0.0,0.0,0.0,0.0,2.0634,2.2075,2.4288,2.5463,2.5482,2.5479,2.5513,2.5513,2.5493,2.5482,2.5463,2.4902,2.3987,2.2714,2.1646,0.0,0.0,0.0,0.0,0.0,0.0,0.0,0.0,0.0,0.0,0.0,0.0,0.0,0.0,0.0,0.0,0.0,0.0,0.0,1.8925,1.8755,1.7888,0.0,0.0,0.0,0.0,0.0,0.0,0.0,0.0,0.0,1.7524,1.618,1.511,0.0,0.0,1.3865,1.2809,1.4914,1.6317,1.5588,1.6165,0.0,1.8381,1.8319,1.8616,1.9916,2.1866,2.3212,2.2932,2.4126,2.4896,2.4249,2.5178,2.5913,2.5558,2.5544,2.5609,2.5644,2.5687,2.5725,2.5669,2.4866,2.3994,2.2856,2.1105,1.798,1.7039,1.7581,1.6965,1.77,1.9249,1.8247,1.7505,1.703,1.7184,1.5944,1.3648,1.3677,0.0,0.0,0.0,1.8756,2.0868,2.1753,2.2864,2.4084,2.4873,2.533,2.5553,2.5511,2.5589,2.5759,2.4678,2.2455,1.9137,0.0,0.0,1.8486,2.0244,2.171,2.2867,2.4561,2.5453,2.5453,2.5481,2.552,2.5551,2.552,2.5506,2.5543,2.5488,2.493,2.3851,2.3067,2.1684,0.0,0.0,0.0,0.0,0.0,0.0,0.0,0.0,0.0,0.0,0.0,1.7004,1.6386,0.0,0.0,0.0,1.8376,1.9032,2.0907,1.9507,0.0,0.0,0.0,0.0,0.0,0.0,0.0,1.7419,1.8228,1.8823,1.8514,1.7258,1.6367,1.6391,1.6002,1.5309,1.4141,0.0,1.7789,1.6847,1.7392,1.8353,1.9553,1.9825,2.0194,2.1256,2.271,2.3632,2.3358,2.4613,2.5475,2.5243,2.5797,2.6436,2.6401,2.6556,2.6708,2.6708,2.6708,2.6573,2.6135,2.5464,2.466,2.6199,2.5636,2.0402,1.9052,2.0286,1.9879,2.0431,2.1568,2.1084,2.0091,1.8905,2.0009,1.9245,1.7113,1.7061,0.0,2.0788,2.0749,2.188,2.3998,2.4393,2.4686,2.4887,2.5994,2.6588,2.6688,2.6461,2.6474,2.6571,2.4114,2.2842,2.2897,2.2963,2.211,2.0496,2.1876,2.2768,2.2944,2.4407,2.5288,2.5405,2.5481,2.5539,2.5605,2.5544,2.5545,2.5605,2.5547,2.5537,2.5556,2.3896,2.2883,2.2721,0.0,0.0,0.0,0.0,0.0,0.0,0.0,0.0,0.0,0.0,0.0,0.0,0.0,0.0,0.0,1.9617,0.0,2.2846,2.0008,0.0,0.0,0.0,1.9388,2.0891,2.0681,2.041,2.054,0.0,0.0,1.9016,1.8942,1.9196,1.9899,1.9816,1.8927,1.7071,1.8459,1.9131,1.7396,1.7709,1.8485,1.976,2.0844,2.2134,2.3565,2.4127,2.3904,2.3446,2.3802,2.4201,2.4324,2.5139,2.5924,2.5924,2.6245,2.659,2.6539,2.6624,2.6404,2.5426,2.4745,2.395,2.6868,2.5971,2.4633,2.3454,2.2463,2.2333,2.2475,2.2798,2.2665,2.242,2.2093,2.2362,2.2341,2.2081,2.19,2.2358,2.3259,2.3558,2.3977,2.4582,2.5695,2.5892,2.5325,2.6264,2.6718,2.6649,2.6015,2.6068,2.669,2.5461,2.4179,2.3042,2.2976,2.2117,2.0465,2.08,2.1664,2.2957,2.3371,2.4213,2.5503,2.5524,2.5574,2.5662,2.5597,2.56,2.5663,2.5607,2.5882,2.6487,2.5459,2.4569,2.3918,2.114,0.0,0.0,0.0,0.0,0.0,0.0,0.0,0.0,0.0,1.8956,1.7828,0.0,1.8997,0.0,2.1149,2.2126,2.2191,2.1728,0.0,0.0,2.1187,2.0497,2.0432,2.1365,2.1494,2.0076,2.067,2.1156,2.1006,2.0991,2.141,2.2443,2.0513,1.8635,1.7911,1.9302,2.0308,1.9916,2.0661,2.1723,2.2334,2.2832,2.3366,2.4215,2.4342,2.4414,2.4643,2.4814,2.4942,2.4942,2.5169,2.5373,2.5411,2.547,2.5561,2.5598,2.6158,2.6505,2.5905,2.5584,2.5114,2.767,2.6979,2.6609,2.5783,2.4703,2.4333,2.4105,2.3938,2.3751,2.3603,2.3551,2.4232,2.4811,2.5253,2.5341,2.5586,2.5967,2.6035,2.5914,2.5712,2.6821,2.6889,2.6089,2.7327,2.7881,2.7799,2.7355,2.72,2.7234,2.6401,2.5323,2.4051,2.4032,2.3366,2.205,2.0954,2.088,2.1839,2.256,2.3733,2.5393,2.5447,2.5107,2.4527,2.4472,2.4115,2.3457,2.3395,2.3761,2.4601,2.3773,2.3407,2.3664,2.1177,1.967,0.0,0.0,0.0,0.0,0.0,0.0,0.0,0.0,0.0,0.0,0.0,2.05,2.0439,2.1849,2.2614,2.2389,2.2122,2.2647,2.4278,2.3356,2.2551,2.2418,2.3228,2.3146,2.1618,2.2084,2.2532,2.2532,2.2532,2.2787,2.352,2.2039,2.0685,2.0352,2.1213,2.1892,2.166,2.2433,2.3187,2.3551,2.3595,2.3681,2.3948,2.4032,2.4142,2.443,2.4511,2.4511,2.4511,2.4672,2.4855,2.4871,2.5051,2.5182,2.5211,2.5179,2.5131,2.489,2.4815,2.4419,2.8498,2.8222,2.755,2.7138,2.6948,2.6202,2.5587,2.5108,2.4797,2.4543,2.4523,2.591,2.6828,2.7349,2.7638,2.7997,2.8358,2.8004,2.7519,2.7012,2.7869,2.7803,2.7037,2.8508,2.9237,2.9186,2.9041,2.8666,2.8005,2.7178,2.6274,2.5351,2.5313,2.4822,2.3851,2.1758,2.0651,2.0579,2.2156,2.3685,2.51,2.4947,2.425,2.3086,2.2882,2.2227,2.0974,2.0799,2.121,2.2108,2.1325,2.1635,2.3301,2.1013,1.9994,0.0,1.8905,0.0,0.0,0.0,0.0,0.0,0.0,0.0,0.0,2.2874,2.2318,2.1924,2.2347,2.2829,2.3347,2.2488,2.3159,2.6169,2.5394,2.473,2.5045,2.5067,2.4632,2.3724,2.3595,2.3595,2.355,2.3595,2.3595,2.358,2.346,2.3101,2.2877,2.3061,2.3124,2.2862,2.3236,2.3551,2.361,2.3595,2.3595,2.3595,2.3638,2.3595,2.3638,2.3638,2.3638,2.3681,2.3991,2.4282,2.4225,2.4536,2.48,2.4594,2.3794,2.3203,2.3328,2.328,2.2622,2.9433,2.9398,2.9229,2.9155,2.9064,2.8593,2.7616,2.6398,2.6778,2.7115,2.7415,2.7929,2.8311,2.853,2.828,2.8428,2.882,2.8294,2.7987,2.787,2.8707,2.8604,2.7861,2.8608,2.9032,2.9058,2.8241,2.8191,2.8852,2.8044,2.6871,2.5322,2.5313,2.4447,2.2863,0.0,0.0,0.0,2.2964,2.4029,2.4347,2.301,2.2557,2.3032,2.2284,0.0,2.2487,2.1873,2.2224,2.3706,2.301,0.0,0.0,0.0,0.0,0.0,0.0,0.0,0.0,0.0,0.0,0.0,2.3892,2.3743,2.4138,2.369,2.3392,2.3478,2.405,2.4842,2.588,2.579,2.5781,2.603,2.5507,2.4932,2.4617,2.4199,2.3794,2.3638,2.3595,2.3595,2.3595,2.3595,2.3595,2.3595,2.3595,2.355,2.343,2.3157,2.301,2.3359,2.3477,2.3595,2.3595,2.3595,2.3595,2.3595,2.3595,2.3595,2.361,2.3566,2.361,2.3595,2.3696,2.358,2.3157,2.3113,2.3084,2.2503,2.1867,2.1657,2.2529,2.2349,2.1814,2.9958,0.0,2.9845,2.9799,0.0,2.9269,2.8642,2.79,2.8019,2.8288,2.865,2.8825,2.9139,2.9532,2.9387,2.9513,2.9788,2.9512,2.9116,2.8675,2.9419,2.9265,2.8418,2.9104,2.9481,2.9506,2.9011,2.8815,2.8925,2.8542,2.7631,2.6269,2.6338,2.6046,2.5449,2.5945,2.5275,2.3399,2.4253,2.5134,2.5944,2.5161,2.4563,2.4238,2.3747,0.0,0.0,0.0,0.0,0.0,0.0,0.0,0.0,2.4457,0.0,2.5829,2.316,2.2842,2.5985,2.8183,2.8679,2.7119,2.6599,2.6041,2.5245,2.5337,2.5473,2.5562,2.5717,2.6024,2.6623,2.6708,2.6505,2.6033,2.566,2.5195,2.4536,2.4142,2.3879,2.3638,2.3595,2.3595,2.3595,2.3595,2.3595,2.3595,2.3595,2.3595,2.3595,2.3334,2.3201,2.3187,2.3421,2.3465,2.3231,2.3421,2.3583,2.3599,2.3569,2.3598,2.3585,2.3333,2.3229,2.3466,2.3143,2.262,2.2694,2.2452,2.21,2.1702,2.1008,2.0625,2.1205,2.1308,2.1212,3.0267,3.0075,3.0056,2.9969,2.9815,2.9474,2.9326,2.9289,0.0,0.0,0.0,2.9382,2.9721,3.0239,3.0387,3.0501,3.0604,3.0635,3.0203,2.9427,2.9924,2.9749,2.9003,2.9631,2.9969,2.9999,2.9999,2.9656,2.9041,2.9022,2.8544,2.7733,2.7816,2.8154,2.8688,2.9355,2.8548,2.6311,2.5716,2.6187,2.7633,2.7391,2.6651,2.544,2.5258,2.4579,2.3372,2.3185,2.3521,2.4322,2.3696,2.4094,2.5699,2.5161,2.5186,2.6041,2.6194,2.668,2.7747,2.8574,2.9049,2.9196,2.867,2.7759,2.644,2.694,2.7272,2.721,2.6906,2.6691,2.6708,2.6725,2.6554,2.6156,2.5859,2.5384,2.4657,2.443,2.4199,2.3709,2.3595,2.3595,2.3595,2.3595,2.3595,2.3595,2.3595,2.3595,2.3595,2.3551,2.3406,2.3098,2.3231,2.3231,2.292,2.2891,2.3319,2.3314,2.3274,2.3216,2.3091,2.2808,2.2769,2.3068,2.2363,2.1993,2.2207,2.188,2.152,2.1363,2.0548,1.9847,1.9961,2.0288,2.0482,3.0367,3.0336,3.0355,3.0343,3.0299,3.0235,3.0222,3.0157,2.9609,2.9618,3.0056,3.0246,3.0324,3.0393,3.0526,3.0605,3.0679,3.0568,3.0365,3.0078,3.0043,2.9882,2.9578,2.9691,2.9829,2.9999,2.9999,2.9942,2.9827,2.9827,2.968,2.9355,2.9372,2.9493,2.9768,2.9723,2.9684,2.9648,2.7332,2.6388,2.6831,2.5393,2.4899,2.536,2.4741,2.4532,2.4937,2.4349,2.431,2.51,2.5033,2.5765,2.7411,2.742,2.795,2.9216,2.9565,2.9532,2.9139,2.9044,2.8878,2.8542,2.8183,2.7857,2.7652,2.7437,2.7147,2.6808,2.6725,2.6708,2.6708,2.6687,2.6651,2.6537,2.602,2.5529,2.5075,2.4632,2.4173,2.3726,2.3595,2.3595,2.3595,2.3595,2.3595,2.3595,2.3595,2.3595,2.3595,2.3595,2.3551,2.3406,2.3098,2.283,2.2649,2.2239,2.2292,2.2517,2.2301,2.1983,2.1619,2.1738,2.1888,2.1993,2.1791,2.152,2.1272,2.1042,2.0733,2.0307,1.9697,1.9395,1.9737,1.9584,1.9255,3.0398,3.0398,3.0398,3.0398,3.0398,3.0254,3.0228,3.0283,2.9997,3.0056,3.0356,3.0522,3.0574,3.0506,3.0625,3.0629,3.0594,3.0529,3.0335,3.01,2.9901,2.9799,2.9713,2.9696,2.9832,2.9984,2.9893,2.9848,2.9829,2.9748,2.9551,2.9355,2.9456,2.9589,2.9661,2.9696,2.9845,3.0144,2.9078,2.8591,2.8704,2.7942,2.7711,2.8087,2.7699,2.7678,2.8033,2.757,2.7682,2.853,2.8417,2.8912,3.0072,2.9764,2.981,3.0435,3.0205,2.9827,2.9433,2.8927,2.8518,2.8166,2.7794,2.756,2.756,2.721,2.6906,2.6725,2.6708,2.6708,2.6708,2.669,2.6499,2.5924,2.5621,2.5298,2.4911,2.4315,2.4031,2.4073,2.3819,2.361,2.3595,2.3595,2.3595,2.3595,2.361,2.361,2.361,2.361,2.3465,2.3157,2.2889,2.2558,2.2253,2.1899,2.1821,2.1973,2.1842,2.1343,2.0673,2.0837,2.1282,2.1547,2.1183,2.0769,2.0709,2.051,2.0156,1.9927,1.9648,1.9584,1.9654,1.9,1.8394,3.0702,3.0698,3.0686,3.0595,3.0406,3.0151,3.0113,3.0297,3.0227,3.0327,3.0528,3.0646,3.0693,3.0664,3.0662,3.0608,3.0529,3.0481,3.0287,2.9939,2.9763,2.9678,2.9662,2.9678,2.9796,2.9984,2.9912,2.9799,2.9696,2.9533,2.9332,2.9175,2.9539,2.966,2.9474,2.9832,2.9988,2.9958,3.0142,3.0286,3.0398,3.0355,3.0311,3.0311,3.0254,3.0305,3.0483,3.0318,3.0608,3.1409,3.1295,3.145,3.2015,3.1337,3.0885,3.0791,3.034,2.9963,2.9817,2.9259,2.873,2.8311,2.7962,2.7791,2.7663,2.7385,2.7046,2.6776,2.6708,2.6708,2.674,2.6705,2.6476,2.5869,2.5426,2.5219,2.4943,2.4374,2.418,2.4653,2.4236,2.3938,2.4173,2.4131,2.4118,2.4133,2.4059,2.4014,2.3879,2.3924,2.3763,2.2933,2.2603,2.2207,2.1615,2.1315,2.1229,2.1286,2.126,2.0788,2.0152,2.0271,2.0667,2.0993,2.0521,2.0144,2.0396,2.0042,1.9631,1.9463,1.927,1.9186,1.9119,1.829,1.7698,3.165,3.1595,3.1557,3.1144,3.0501,3.0282,3.0327,3.0496,3.0369,3.0425,3.068,3.0693,3.0751,3.082,3.0689,3.0606,3.0575,3.0462,3.0169,2.9782,2.9695,2.9607,2.9493,2.9626,2.9815,3.0013,3.0215,3.0071,2.9713,2.968,2.9589,2.9507,3.0359,3.047,2.9886,3.0487,3.0505,2.9769,2.9748,2.9977,3.0355,3.015,3.0028,3.0047,2.9864,3.0124,3.0803,3.0826,3.1185,3.194,3.2015,3.2034,3.2034,3.1356,3.0828,3.0702,3.0833,3.1024,3.1066,3.0794,3.0113,2.9447,2.9245,2.9059,2.883,2.8757,2.8163,2.7148,2.6759,2.6891,2.6854,2.6821,2.6982,2.7476,2.6357,2.542,2.587,2.5481,2.5124,2.5377,2.4803,2.4897,2.5617,2.5516,2.5315,2.5211,2.5181,2.5031,2.4612,2.4716,2.4412,2.3057,2.2221,2.1595,2.1042,2.0346,2.022,2.0093,2.0016,1.9953,1.9914,1.9876,1.9965,2.022,2.0042,1.9901,1.9683,1.9307,1.8874,1.8715,1.8394,1.7863,1.7754,1.7346,1.7192,3.2606,3.2538,3.2034,3.1252,3.0412,3.0289,3.035,3.0464,3.04,3.0526,3.0795,3.0742,3.0739,3.0788,3.0648,3.0581,3.0537,3.0441,3.0142,2.9731,2.9696,2.9643,2.9589,2.968,2.988,3.0182,3.0066,2.9899,2.9789,3.0039,3.0186,3.0238,3.1186,3.1506,3.1223,3.1487,3.1468,3.1148,3.1111,3.122,3.1241,3.0373,2.9829,2.9869,3.0201,3.0544,3.0903,3.1221,3.1794,3.254,3.2482,3.2632,3.3096,3.2354,3.1858,3.1758,3.1237,3.0749,3.0349,3.0149,2.9804,2.9246,2.9228,2.9121,2.9011,2.9011,2.8723,2.8232,2.8044,2.8073,2.8055,2.7474,2.7309,2.796,2.7807,2.7348,2.6456,2.5512,2.4882,2.4967,2.4747,2.4762,2.5258,2.553,2.557,2.56,2.5615,2.5525,2.5209,2.4828,2.3992,2.2912,2.213,2.1475,2.0838,2.0258,1.9901,1.9798,1.9798,1.9798,1.9798,1.9798,1.9798,1.9798,1.9747,1.9527,1.9137,1.898,1.8608,1.8178,1.7623,1.7145,1.6989,1.643,1.6193,3.3574,3.3406,3.2386,3.1623,3.1118,3.0797,3.0892,3.1203,3.1139,3.1305,3.1523,3.117,3.1019,3.1019,3.0714,3.0552,3.0509,3.0419,3.0275,3.0033,3.0017,3.0167,3.0374,3.0374,3.0646,3.0944,3.0731,3.0481,3.045,3.0809,3.1029,3.12,3.2109,3.2449,3.2145,3.2237,3.2197,3.189,3.1909,3.1909,3.174,3.0787,3.0208,3.0321,3.077,3.1123,3.1385,3.1771,3.24,3.3154,3.3029,3.313,3.3561,3.2876,3.2383,3.2201,3.1441,3.0752,3.03,3.0179,2.997,2.9641,2.9638,2.9529,2.9416,2.9379,2.9302,2.9076,2.9132,2.9026,2.871,2.8052,2.7805,2.8258,2.8686,2.8185,2.6923,2.5741,2.5213,2.5319,2.5424,2.5255,2.5465,2.5914,2.6243,2.6228,2.6198,2.6033,2.5834,2.5091,2.4197,2.3159,2.2477,2.1694,2.0781,2.0361,2.0026,1.9811,1.9798,1.9798,1.9798,1.9798,1.9579,1.9475,1.9527,1.9202,1.8501,1.8286,1.7841,1.7191,1.674,1.6488,1.6208,1.569,1.5517,3.4486,3.4216,3.2705,3.2469,3.3051,3.2065,3.2241,3.3044,3.292,3.2989,3.3007,3.2143,3.1768,3.1858,3.1047,3.0546,3.0481,3.0466,3.0586,3.0751,3.0828,3.128,3.2053,3.2109,3.2281,3.2506,3.2233,3.2045,3.1958,3.2091,3.2128,3.2185,3.3161,3.3072,3.2241,3.2657,3.2465,3.1771,3.1691,3.1532,3.1532,3.1421,3.1473,3.1678,3.151,3.1734,3.2371,3.2529,3.2934,3.3742,3.3678,3.3552,3.3219,3.2491,3.1882,3.1479,3.1314,3.1386,3.1566,3.1528,3.1379,3.1082,3.0825,3.0751,3.0096,3.0038,2.9812,2.944,2.9355,2.9086,2.8512,2.8371,2.8398,2.8463,2.7834,2.7507,2.744,2.6656,2.6731,2.6903,2.6591,2.6546,2.725,2.7505,2.7335,2.732,2.741,2.72,2.651,2.6294,2.5294,2.3948,2.3138,2.2505,2.0525,2.0353,2.0404,2.0022,1.9885,1.9823,1.9811,1.9747,1.9371,1.9044,1.8821,1.8447,1.7797,1.7146,1.6528,1.6036,1.5864,1.5642,1.5748,1.5526,1.542,3.5148,3.4595,3.3978,3.3591,3.3316,3.2959,3.3022,3.3379,3.3294,3.3315,3.332,3.2924,3.2655,3.2485,3.2266,3.1553,3.0616,3.0823,3.0947,3.0941,3.1295,3.1728,3.2147,3.2185,3.2452,3.2779,3.2499,3.2185,3.2066,3.2617,3.2959,3.3129,3.3923,3.3992,3.3477,3.3445,3.3287,3.2989,3.2926,3.2926,3.2889,3.2926,3.2978,3.3043,3.2463,3.2302,3.2596,3.3091,3.3387,3.3419,3.3437,3.3196,3.2791,3.2478,3.2125,3.1672,3.162,3.1566,3.1418,3.1428,3.1162,3.0683,3.0601,3.0377,2.9848,2.9717,2.9629,2.9451,2.9406,2.9112,2.8635,2.8589,2.8798,2.8867,2.8124,2.7504,2.738,2.6933,2.6485,2.6379,2.6432,2.6841,2.743,2.756,2.756,2.756,2.756,2.7238,2.6572,2.5854,2.4813,2.3798,2.3014,2.2311,2.1226,2.1029,2.1004,2.0329,1.9977,1.9957,1.996,1.9466,1.9071,1.8701,1.8437,1.7733,1.7088,1.6415,1.5748,1.5642,1.542,1.542,1.542,1.542,1.542,3.5644,3.5117,3.4824,3.4531,3.4219,3.3926,3.3984,3.4199,3.4238,3.4238,3.416,3.3676,3.3327,3.318,3.2949,3.2266,3.1226,3.1532,3.168,3.1751,3.2054,3.2486,3.2919,3.2899,3.3108,3.3467,3.309,3.2797,3.2812,3.3362,3.371,3.3884,3.4329,3.4379,3.4074,3.3876,3.3807,3.3807,3.3807,3.3788,3.3807,3.3807,3.3734,3.3533,3.3049,3.2794,3.2794,3.3351,3.3437,3.3063,3.3001,3.2745,3.235,3.2144,3.195,3.166,3.1603,3.149,3.1213,3.1032,3.074,3.0335,3.0123,2.9761,2.918,2.9104,2.9058,2.8919,2.881,2.8622,2.8369,2.8325,2.8529,2.8717,2.8088,2.7585,2.7515,2.7179,2.6756,2.6546,2.6756,2.7111,2.7505,2.7545,2.756,2.756,2.7408,2.6982,2.6477,2.5338,2.4327,2.3728,2.3084,2.2602,2.1968,2.1828,2.1518,2.0844,2.0187,2.0135,1.9887,1.9306,1.8791,1.8428,1.7835,1.7151,1.6441,1.5768,1.5526,1.541,1.542,1.542,1.542,1.542,1.5362,3.5996,3.5898,3.5117,3.5312,3.5762,3.5234,3.5273,3.5762,3.5898,3.5781,3.5357,3.4348,3.3843,3.3759,3.2947,3.2367,3.2433,3.2509,3.2766,3.3107,3.3038,3.3508,3.4388,3.4117,3.4269,3.4732,3.4398,3.4267,3.4405,3.4211,3.427,3.4515,3.4304,3.4141,3.3815,3.3834,3.3807,3.3807,3.3807,3.3807,3.3807,3.3734,3.355,3.3243,3.3112,3.3076,3.3082,3.3166,3.2983,3.2583,3.2484,3.2282,3.1825,3.1524,3.1213,3.1252,3.123,3.123,3.1151,3.0699,3.0393,3.0123,2.9733,2.9134,2.8638,2.8511,2.8334,2.7959,2.776,2.766,2.771,2.768,2.773,2.761,2.76,2.7585,2.76,2.758,2.7545,2.744,2.7455,2.753,2.756,2.756,2.756,2.7357,2.6982,2.651,2.6122,2.5066,2.4412,2.4053,2.3449,2.2836,2.265,2.2457,2.1915,2.1405,2.0705,2.0306,1.9805,1.9307,1.8677,1.8222,1.7419,1.6698,1.5662,1.5108,1.5167,1.5118,1.5235,1.5303,1.5352,1.5352,1.5196,3.6348,3.6855,3.6621,3.6641,3.6953,3.7246,3.6934,3.6113,3.6621,3.6269,3.5217,3.4672,3.4236,3.3864,3.3562,3.34,3.3283,3.3518,3.3571,3.344,3.3486,3.3809,3.4232,3.4265,3.4311,3.4427,3.4292,3.4246,3.4334,3.4265,3.4246,3.4311,3.4246,3.4068,3.3815,3.3807,3.3807,3.3807,3.3807,3.368,3.3419,3.339,3.3166,3.2777,3.2713,3.2565,3.2281,3.2533,3.2466,3.2022,3.2022,3.1842,3.1449,3.1252,3.119,3.119,3.119,3.119,3.1095,3.0617,3.0081,2.9673,2.9134,2.8496,2.7993,2.791,2.781,2.7625,2.756,2.756,2.756,2.756,2.756,2.756,2.756,2.756,2.756,2.756,2.756,2.756,2.756,2.756,2.756,2.756,2.7357,2.693,2.6616,2.6176,2.5175,2.4667,2.4047,2.359,2.3245,2.3005,2.2677,2.2066,2.1356,2.0936,2.051,1.9994,1.9586,1.9287,1.8642,1.7954,1.7154,1.6307,1.521,1.4803,1.4959,1.4784,1.4715,1.4893,1.5235,1.5059,1.4715,3.6752,3.7513,3.7343,3.7482,3.7812,3.8398,3.7988,3.7109,3.7539,3.6855,3.5514,3.5125,3.4527,3.3852,3.3692,3.3654,3.3595,3.3718,3.3543,3.3295,3.3456,3.3768,3.4147,3.4218,3.4147,3.4068,3.4068,3.4117,3.4176,3.4099,3.4099,3.4195,3.4099,3.3986,3.3834,3.3807,3.3734,3.3606,3.355,3.3361,3.3045,3.2952,3.2713,3.2316,3.2248,3.2004,3.164,3.1896,3.1878,3.164,3.1565,3.1432,3.123,3.119,3.119,3.119,3.119,3.1095,3.0878,3.0251,2.9717,2.9104,2.8511,2.8042,2.766,2.756,2.756,2.756,2.756,2.756,2.756,2.756,2.756,2.756,2.756,2.756,2.756,2.756,2.756,2.756,2.756,2.756,2.756,2.7306,2.7034,2.6563,2.6,2.5508,2.4465,2.406,2.3543,2.3245,2.3185,2.2871,2.2543,2.1798,2.0811,2.038,1.9986,1.9555,1.9116,1.9046,1.8691,1.7933,1.7143,1.6663,1.5731,1.5381,1.5314,1.4842,1.4469,1.4628,1.4845,1.4195,1.3812,3.7199,3.7888,3.7531,3.7845,3.8516,3.8789,3.8711,3.8535,3.8652,3.7667,3.6209,3.5641,3.4792,3.3753,3.3219,3.3194,3.3332,3.3002,3.2817,3.2829,3.2919,3.3252,3.3843,3.4056,3.3993,3.377,3.3815,3.3935,3.4123,3.3954,3.391,3.4099,3.3935,3.3834,3.3807,3.3807,3.355,3.3302,3.3196,3.2921,3.2517,3.2451,3.2248,3.1789,3.1752,3.1603,3.1312,3.1329,3.1252,3.123,3.1269,3.1252,3.119,3.119,3.1055,3.1055,3.1095,3.074,3.0267,2.9673,2.9134,2.8685,2.8091,2.756,2.761,2.756,2.756,2.756,2.756,2.756,2.756,2.756,2.756,2.756,2.756,2.756,2.756,2.756,2.756,2.756,2.756,2.756,2.7458,2.693,2.6563,2.6,2.5175,2.4567,2.4118,2.3649,2.3245,2.3065,2.3005,2.2628,2.2237,2.1043,2.0217,2.0026,1.9544,1.9009,1.8669,1.8695,1.853,1.7795,1.7357,1.689,1.6278,1.5771,1.5401,1.5013,1.476,1.4611,1.4118,1.3545,1.305,3.7661,3.7951,3.8459,3.8613,3.8765,3.9886,3.9746,3.8769,3.9277,3.8182,3.6403,3.5932,3.4816,3.329,3.3002,3.2739,3.2229,3.2053,3.202,3.2004,3.1633,3.2073,3.2955,3.3607,3.3698,3.3437,3.3606,3.3842,3.3902,3.377,3.3797,3.3902,3.377,3.378,3.378,3.3512,3.335,3.3154,3.2844,3.2537,3.2092,3.2056,3.1752,3.1411,3.1423,3.138,3.1207,3.119,3.119,3.119,3.119,3.119,3.1151,3.0838,3.0658,3.0617,3.0208,2.9848,2.9585,2.9134,2.8779,2.867,2.7993,2.761,2.756,2.756,2.756,2.756,2.756,2.756,2.756,2.756,2.756,2.756,2.756,2.756,2.756,2.756,2.756,2.756,2.756,2.7306,2.6864,2.6496,2.6014,2.5175,2.4553,2.406,2.3649,2.3412,2.3065,2.2871,2.2689,2.2249,2.1616,2.0462,1.9672,1.9584,1.9135,1.8398,1.8251,1.8255,1.7972,1.7537,1.7527,1.7168,1.6315,1.5578,1.5296,1.5232,1.4622,1.4171,1.3527,1.2928,1.2406,3.8906,3.8682,3.94,3.9031,3.8316,4.0276,4.004,3.8624,3.931,3.8644,3.6766,3.5763,3.4256,3.232,3.2188,3.1399,3.0299,3.0757,3.0769,3.0375,3.0746,3.1411,3.2229,3.2965,3.3136,3.2983,3.3118,3.3207,3.3237,3.3237,3.3237,3.3207,3.3255,3.3255,3.3232,3.3386,3.3259,3.3133,3.3072,3.2838,3.2101,3.2334,3.1927,3.1585,3.1698,3.2121,3.2138,3.2138,3.1884,3.1376,3.119,3.119,3.1151,3.0878,3.0699,3.0642,3.0335,2.9978,2.9451,2.9058,2.867,2.8352,2.781,2.766,2.756,2.756,2.756,2.756,2.756,2.756,2.756,2.756,2.756,2.756,2.756,2.756,2.756,2.756,2.7408,2.7255,2.7086,2.6864,2.6108,2.5797,2.5231,2.4509,2.406,2.359,2.3245,2.3125,2.2944,2.2628,2.2113,2.1616,2.0974,1.9814,1.911,1.9029,1.8838,1.8076,1.8008,1.8008,1.7881,1.7705,1.7666,1.7397,1.6525,1.5844,1.5647,1.5316,1.4487,1.3929,1.3501,1.2639,1.211,4.0461,3.961,4.0117,3.9077,3.7711,3.9569,3.9081,3.7672,3.8057,3.7775,3.6298,3.4872,3.2755,3.0871,3.0938,2.9897,2.8,2.9578,2.9412,2.9335,2.9868,3.097,3.1571,3.2332,3.2533,3.2466,3.2484,3.2583,3.2648,3.2565,3.255,3.2648,3.2583,3.2639,3.2918,3.3262,3.3335,3.3343,3.3571,3.3316,3.2706,3.2897,3.2594,3.1823,3.237,3.2806,3.289,3.2975,3.2522,3.1278,3.1291,3.1345,3.1295,3.1204,3.1057,3.0941,3.0738,3.0298,2.9649,2.9391,2.895,2.8182,2.7961,2.7865,2.7993,2.7979,2.7799,2.7799,2.7745,2.7703,2.7586,2.7593,2.7365,2.7218,2.7225,2.7342,2.7408,2.7509,2.7306,2.6616,2.6496,2.6108,2.5398,2.4781,2.4279,2.3989,2.3603,2.3365,2.298,2.2701,2.2482,2.2137,2.1553,2.091,2.0139,1.9243,1.8721,1.8414,1.8357,1.8008,1.8008,1.8008,1.8008,1.7949,1.7842,1.7514,1.6844,1.6388,1.6178,1.5757,1.5191,1.459,1.3988,1.2854,1.2019,4.0954,3.9552,3.9785,3.8656,3.7033,3.7073,3.6437,3.5205,3.4294,3.3946,3.3111,3.149,3.0212,2.9429,2.9479,2.8991,2.7403,2.856,2.9164,2.8701,2.9268,3.0031,3.0801,3.1773,3.2196,3.2092,3.235,3.2451,3.2451,3.2384,3.2484,3.2435,3.2457,3.2769,3.3213,3.3154,3.339,3.3701,3.3669,3.3431,3.3212,3.3246,3.3041,3.2232,3.2486,3.2315,3.2069,3.2315,3.2151,3.1694,3.181,3.1839,3.1391,3.0973,3.0768,3.0704,3.0297,2.9909,2.9611,2.9556,2.9303,2.8763,2.8816,2.928,2.9549,2.8786,2.8442,2.8382,2.8382,2.8129,2.7842,2.7555,2.6938,2.6272,2.6026,2.6028,2.6094,2.6864,2.7034,2.6602,2.6336,2.6014,2.4724,2.4452,2.4002,2.3484,2.3245,2.3125,2.2774,2.2299,2.188,2.1479,2.0794,2.0074,1.9497,1.8787,1.8462,1.8134,1.8076,1.8008,1.8008,1.8008,1.8008,1.8008,1.7988,1.7504,1.6945,1.7079,1.6983,1.641,1.5604,1.4706,1.3727,1.276,1.2049,4.0726,3.8508,3.8708,3.7338,3.5116,3.4498,3.3775,3.2805,3.1573,3.0994,3.0449,2.8502,2.717,2.6818,2.6614,2.5827,2.5341,2.6318,2.7395,2.7773,2.837,2.8979,2.9832,3.0647,3.1121,3.1435,3.1733,3.1752,3.1571,3.1768,3.1703,3.1635,3.2104,3.2531,3.3088,3.3148,3.344,3.3657,3.3611,3.337,3.3044,3.3307,3.3425,3.2917,3.2659,3.2353,3.2577,3.2805,3.2609,3.2244,3.2278,3.2142,3.1501,3.1112,3.093,3.0829,3.0694,3.0247,3.0143,3.0,2.9788,2.9304,2.946,2.9654,2.9804,2.934,2.9131,2.8949,2.8749,2.8396,2.8467,2.8035,2.6919,2.505,2.5256,2.5632,2.5592,2.6108,2.6269,2.5673,2.5342,2.4781,2.4163,2.3943,2.3708,2.3245,2.3185,2.3005,2.2347,2.1868,2.1106,2.0557,1.9879,1.9309,1.8787,1.8405,1.8202,1.8076,1.8008,1.8008,1.8008,1.8008,1.8008,1.8008,1.8008,1.7569,1.7133,1.7423,1.6991,1.5566,1.46,1.4074,1.3577,1.2828,1.2163,4.0333,3.7246,3.7491,3.5595,3.2581,3.1788,3.0884,2.9831,2.8806,2.7972,2.7744,2.5216,2.374,2.3629,2.3183,2.2505,2.3039,2.382,2.559,2.6902,2.7289,2.7969,2.8872,2.9502,3.0207,3.0989,3.0935,3.0692,3.0991,3.09,3.1073,3.0846,3.1599,3.2257,3.2554,3.2973,3.3379,3.3545,3.3567,3.34,3.2996,3.3333,3.3492,3.3157,3.2819,3.2586,3.2814,3.3045,3.3035,3.2477,3.2437,3.2073,3.162,3.1428,3.1428,3.1391,3.1315,3.1068,3.0761,3.0616,3.0426,2.9879,2.9924,2.9939,2.9968,2.9879,2.9744,2.9481,2.9163,2.8814,2.9442,2.8474,2.6534,2.4747,2.5181,2.5598,2.5442,2.5336,2.5074,2.4624,2.461,2.4279,2.3708,2.3305,2.3185,2.309,2.309,2.2896,2.2187,2.1518,2.0899,2.03,1.9748,1.8977,1.8462,1.8299,1.8027,1.8057,1.8047,1.8027,1.8018,1.8008,1.8008,1.8008,1.7862,1.7569,1.7354,1.7432,1.6558,1.468,1.467,1.53,1.4478,1.3101,1.2465,4.0403,3.7417,3.6868,3.3991,3.0062,2.8643,2.7197,2.5356,2.4271,2.3288,2.2953,2.0772,2.0429,2.0874,2.1045,2.2116,2.3509,2.4116,2.4711,2.5781,2.6279,2.7049,2.779,2.8667,2.9674,3.0202,3.0097,3.0396,3.1238,3.1131,3.0889,3.1182,3.1516,3.1887,3.2369,3.2657,3.306,3.3382,3.3383,3.3232,3.3216,3.3196,3.3182,3.2826,3.2531,3.2322,3.2084,3.2422,3.2407,3.1796,3.1682,3.1588,3.1358,3.1283,3.1339,3.149,3.146,3.1359,3.1222,3.1246,3.1279,3.121,3.0962,3.0991,3.0887,3.0559,3.0051,2.9894,2.9479,2.9283,2.9679,2.8236,2.676,2.5469,2.4937,2.5126,2.5024,2.4882,2.478,2.4334,2.4178,2.4015,2.3497,2.3226,2.3339,2.3292,2.3183,2.296,2.2418,2.1659,2.0978,2.0366,1.9824,1.8977,1.8192,1.8173,1.8066,1.8115,1.8115,1.8066,1.8047,1.8018,1.8008,1.8008,1.8008,1.7862,1.7716,1.7569,1.7139,1.6053,1.6383,1.678,1.5377,1.3898,1.3251,3.9387,3.6804,3.4994,3.2901,3.0207,2.6718,2.5259,2.4731,2.2414,2.1278,2.0665,1.9231,1.876,1.9494,1.9307,2.0751,2.2745,2.3238,2.3728,2.4654,2.5231,2.5924,2.672,2.7584,2.8899,2.9602,2.947,2.9766,3.1277,3.1134,3.0903,3.1036,3.1549,3.2165,3.2447,3.2583,3.2709,3.2955,3.2718,3.2501,3.2501,3.2501,3.2312,3.216,3.2064,3.1853,3.164,3.1291,3.1276,3.0896,3.0464,3.0269,3.0269,3.0389,3.0658,3.1278,3.1467,3.1467,3.1467,3.1467,3.1306,3.0866,3.0896,3.0584,3.0271,2.9772,2.9585,2.9223,2.9373,2.8789,2.8092,2.7577,2.6778,2.5753,2.5287,2.5109,2.4933,2.487,2.457,2.4256,2.4058,2.3796,2.3381,2.3326,2.3527,2.348,2.3292,2.288,2.2471,2.1795,2.1039,2.0094,1.9437,1.8965,1.8321,1.837,1.8241,1.8251,1.832,1.8271,1.8174,1.8184,1.8086,1.8008,1.8008,1.8086,1.7725,1.7501,1.7432,1.7285,1.6697,1.6148,1.5523,1.4755,1.4065,3.8381,3.5824,3.3599,3.1987,3.0273,2.6021,2.4378,2.4308,2.1933,2.0411,1.9937,1.8675,1.8341,1.8844,1.9028,1.9792,2.1616,2.1803,2.2847,2.391,2.4522,2.515,2.5738,2.6655,2.7782,2.9199,2.9145,2.9337,3.0933,3.1076,3.092,3.1097,3.1908,3.2179,3.2072,3.2133,3.2241,3.1777,3.161,3.1278,3.1278,3.1292,3.1351,3.1409,3.1336,3.1219,3.1087,3.051,3.0194,2.9889,2.9518,2.9052,2.9052,2.9192,2.9827,3.0777,3.1073,3.1102,3.0984,3.1058,3.0686,3.0086,3.0025,2.9628,2.9366,2.9136,2.8757,2.8051,2.8206,2.8128,2.7188,2.7095,2.6771,2.6168,2.5737,2.5649,2.5344,2.5049,2.4624,2.4322,2.3998,2.3513,2.3032,2.2775,2.2846,2.2893,2.2686,2.2542,2.2108,2.1722,2.0953,1.9737,1.8964,1.8815,1.8594,1.8701,1.864,1.8579,1.866,1.8711,1.8475,1.8329,1.8311,1.8291,1.8213,1.8193,1.7781,1.752,1.7579,1.7226,1.6298,1.6044,1.6234,1.5565,1.4661,3.8123,3.4707,3.4356,3.1772,2.8116,2.6193,2.4284,2.2552,2.1354,1.9782,1.9144,1.8209,1.8218,1.8635,1.9653,2.0322,2.0974,2.1491,2.231,2.3403,2.4261,2.4846,2.5502,2.7107,2.7536,2.854,2.8705,3.0249,3.1121,3.084,3.091,3.1195,3.1198,3.1289,3.0808,3.116,3.0822,2.986,3.0133,3.045,3.045,3.045,3.0777,3.1029,3.0837,3.0464,3.0329,2.9628,2.9192,2.9129,2.9066,2.8925,2.9115,2.9752,2.9628,2.9637,2.961,2.982,2.9574,2.967,2.9707,2.924,2.9129,2.9066,2.8748,2.8684,2.8376,2.7802,2.7855,2.7537,2.6714,2.6658,2.6526,2.6395,2.6214,2.6239,2.5977,2.5154,2.4699,2.3881,2.3382,2.2991,2.2526,2.2294,2.2105,2.2128,2.2082,2.1956,2.168,2.1312,2.0981,1.9798,1.9199,1.8984,1.9023,1.9111,1.9058,1.8923,1.9058,1.9131,1.8955,1.8799,1.8718,1.8669,1.8553,1.8339,1.8094,1.7909,1.7832,1.751,1.7079,1.7295,1.7706,1.6701,1.5354,3.8673,3.6044,3.4477,3.2167,2.9298,2.7466,2.5561,2.3761,2.2638,2.169,2.0612,1.9209,1.8728,1.8917,1.9187,2.0257,2.1479,2.1491,2.1928,2.2921,2.3828,2.4333,2.4985,2.5816,2.6525,2.7766,2.8201,2.8815,2.9947,3.0189,3.0038,3.063,3.0343,2.9968,2.9642,2.9889,2.969,2.9303,2.938,2.958,2.9566,2.9566,2.9752,3.0072,2.9766,2.9642,2.938,2.8748,2.8298,2.8182,2.792,2.7617,2.7604,2.7855,2.792,2.7683,2.7762,2.821,2.8798,2.8334,2.8184,2.8271,2.8247,2.8038,2.7736,2.7617,2.7537,2.7027,2.704,2.685,2.6589,2.6521,2.6521,2.6452,2.6314,2.5943,2.5721,2.5346,2.4625,2.3729,2.2739,2.2317,2.2054,2.2107,2.1991,2.2083,2.1958,2.1757,2.1311,2.0824,2.0429,1.9942,1.961,1.9473,1.9521,1.959,1.9516,1.9442,1.9541,1.9576,1.9429,1.933,1.9258,1.899,1.8809,1.8594,1.8389,1.8105,1.7891,1.794,1.8008,1.8008,1.7978,1.7532,1.6261,3.8629,3.7189,3.4977,3.2907,3.086,2.8767,2.6734,2.4909,2.3891,2.3028,2.2099,2.0421,1.9383,1.9111,1.9081,2.0424,2.2392,2.1423,2.2047,2.2874,2.3577,2.4079,2.4823,2.5214,2.6098,2.7404,2.7378,2.7986,2.8427,2.8593,2.8807,2.9875,2.9504,2.8989,2.8812,2.9002,2.9002,2.862,2.8363,2.8427,2.862,2.8671,2.8812,2.8939,2.8812,2.8698,2.8556,2.7855,2.7417,2.7297,2.6973,2.6726,2.6714,2.7095,2.7027,2.7011,2.7237,2.7695,2.7802,2.7406,2.7,2.7196,2.7364,2.7229,2.6769,2.6521,2.6521,2.6577,2.6589,2.6589,2.6521,2.6521,2.6233,2.6164,2.6025,2.5441,2.485,2.4325,2.3784,2.2992,2.2136,2.1551,2.1471,2.1807,2.1912,2.2007,2.1829,2.1593,2.1094,2.0442,2.0227,1.9969,1.9895,1.9756,1.9805,1.9883,1.9866,1.9924,1.9951,2.0007,1.9909,1.9775,1.9701,1.9409,1.9121,1.8965,1.8877,1.8428,1.8008,1.8008,1.8008,1.8008,1.792,1.7589,1.6892,3.7526,3.708,3.6422,3.4134,3.1031,2.99,2.7726,2.5193,2.4108,2.2944,2.1739,2.078,1.9674,1.8957,1.9931,2.0908,2.1624,2.1713,2.2672,2.3678,2.4431,2.4657,2.5109,2.5649,2.6282,2.662,2.6782,2.7162,2.7484,2.7284,2.792,2.8798,2.862,2.8363,2.8182,2.8312,2.8247,2.7789,2.7351,2.7284,2.7604,2.7855,2.8117,2.857,2.8195,2.7802,2.7749,2.7237,2.684,2.6853,2.6716,2.6546,2.6615,2.6973,2.6905,2.6833,2.7449,2.7626,2.7136,2.679,2.665,2.6564,2.6658,2.6726,2.6521,2.6521,2.6521,2.6521,2.6521,2.6521,2.6521,2.6452,2.6164,2.5873,2.5581,2.485,2.4108,2.3073,2.2542,2.2006,2.1532,2.1054,2.0901,2.1237,2.1357,2.1367,2.1312,2.1064,2.0841,2.0367,2.021,2.0026,1.9941,1.9951,1.998,2.0078,2.0244,2.0312,2.0293,2.0428,2.0381,2.0332,2.009,1.9895,1.9648,1.9502,1.9277,1.8809,1.8398,1.8125,1.8027,1.8105,1.793,1.76,1.6862,3.6975,3.6406,3.6185,3.461,3.2166,3.0968,2.903,2.6803,2.5685,2.4143,2.2237,2.1658,2.0621,1.9918,2.0265,2.1453,2.219,2.2657,2.3555,2.4201,2.4745,2.4996,2.5372,2.5711,2.6076,2.6445,2.6521,2.6589,2.6837,2.6645,2.6782,2.7364,2.7617,2.7284,2.7229,2.7417,2.7284,2.7095,2.6714,2.6714,2.6782,2.6973,2.7095,2.7351,2.7657,2.746,2.748,2.7531,2.7301,2.7042,2.6942,2.6741,2.6571,2.6918,2.685,2.6533,2.7369,2.7114,2.6777,2.6521,2.6521,2.6521,2.6521,2.6521,2.6521,2.6521,2.6521,2.6521,2.6452,2.6465,2.6452,2.6465,2.6314,2.5873,2.5241,2.4455,2.3368,2.2253,2.1659,2.1354,2.1068,2.0769,2.0702,2.0692,2.0692,2.0702,2.0644,2.0557,2.0488,2.0439,2.0283,2.0205,2.0195,2.0225,2.0254,2.041,2.0576,2.0576,2.0576,2.0576,2.0576,2.0557,2.0391,2.0254,2.0107,1.9873,1.9561,1.9141,1.8779,1.8447,1.8311,1.8301,1.7996,1.7636,1.7107,3.64,3.5837,3.5395,3.426,3.2666,3.1469,2.9725,2.7776,2.6769,2.5172,2.2886,2.2262,2.1376,2.0727,2.1509,2.2139,2.2994,2.3538,2.4189,2.4663,2.5008,2.5259,2.5536,2.585,2.6176,2.6471,2.6521,2.6521,2.6589,2.6521,2.6589,2.6589,2.6521,2.6589,2.6589,2.6521,2.6521,2.6521,2.6521,2.6659,2.6735,2.6798,2.6961,2.7119,2.7511,2.7637,2.7725,2.7758,2.7657,2.7406,2.718,2.6954,2.6666,2.6521,2.6521,2.6521,2.6521,2.6521,2.6521,2.6521,2.6521,2.6521,2.6521,2.6521,2.6521,2.6521,2.6521,2.6521,2.6465,2.6396,2.627,2.6206,2.5443,2.479,2.4964,2.4328,2.2724,2.1517,2.1155,2.0857,2.0644,2.0576,2.0576,2.0576,2.0576,2.0576,2.0576,2.0576,2.0547,2.0518,2.0508,2.0469,2.0478,2.0508,2.0557,2.0576,2.0576,2.0576,2.0576,2.0576,2.0576,2.0576,2.0566,2.0449,2.0293,2.0146,1.9971,1.9756,1.9258,1.8721,1.8535,1.8301,1.8105,1.7813,1.7872,3.5769,3.5361,3.4231,3.3066,3.1997,3.1271,2.9832,2.7973,2.6973,2.5371,2.3359,2.2586,2.1857,2.1615,2.2982,2.3602,2.3687,2.4362,2.4943,2.5094,2.5448,2.5611,2.5812,2.6101,2.6314,2.6483,2.6521,2.6521,2.6521,2.6521,2.6521,2.6521,2.6521,2.6521,2.6521,2.6521,2.6521,2.6546,2.6584,2.6886,2.7168,2.7268,2.7482,2.772,2.7996,2.8084,2.8147,2.8323,2.8172,2.7733,2.7482,2.7155,2.6678,2.6584,2.6533,2.6521,2.6521,2.6521,2.6521,2.6521,2.6521,2.6521,2.6521,2.6521,2.6521,2.6521,2.6521,2.6521,2.6452,2.6119,2.5938,2.5778,2.4847,2.4299,2.4625,2.3802,2.225,2.1155,2.0789,2.0634,2.0644,2.0576,2.0576,2.0576,2.0576,2.0576,2.0576,2.0576,2.0576,2.0576,2.0576,2.0576,2.0576,2.0576,2.0576,2.0576,2.0576,2.0576,2.0576,2.0576,2.0576,2.0576,2.0566,2.0634,2.0488,2.0352,2.041,2.0459,1.9795,1.9111,1.8477,1.8184,1.8066,1.8008,1.8008,3.4921,3.4612,3.4238,3.3422,3.2319,3.1498,3.0436,2.931,2.7907,2.6493,2.5293,2.4362,2.3693,2.3688,2.3945,2.4491,2.429,2.5395,2.5912,2.5887,2.605,2.6138,2.6251,2.6302,2.6521,2.6521,2.6521,2.6521,2.6521,2.6521,2.6521,2.6521,2.6521,2.6521,2.6521,2.6559,2.6659,2.6942,2.7067,2.7256,2.7745,2.7833,2.7934,2.8172,2.8486,2.8649,2.8687,2.8913,2.8762,2.8235,2.7984,2.7544,2.7005,2.6779,2.6609,2.6571,2.6559,2.6521,2.6521,2.6521,2.6521,2.6559,2.6533,2.6546,2.6533,2.6521,2.6521,2.6584,2.6615,2.6507,2.6673,2.6448,2.5673,2.4947,2.4551,2.3187,2.1863,2.1098,2.0644,2.0644,2.0576,2.0654,2.0693,2.084,2.0859,2.0801,2.081,2.0635,2.0586,2.0576,2.0576,2.0576,2.0576,2.0576,2.0576,2.0576,2.0576,2.0576,2.0576,2.0576,2.0576,2.0576,2.0566,2.0566,2.0566,2.0566,2.0537,2.0439,2.0059,1.9492,1.9007,1.8487,1.8242,1.8135,1.8018,3.4593,3.4208,3.4091,3.3496,3.2544,3.1751,3.0632,2.9061,2.752,2.6426,2.566,2.5109,2.4625,2.4539,2.5033,2.505,2.4701,2.5816,2.6201,2.6251,2.6389,2.6458,2.6483,2.6521,2.6521,2.6521,2.6521,2.6521,2.6521,2.6521,2.6521,2.6521,2.6521,2.6521,2.6521,2.6571,2.6785,2.7067,2.7268,2.762,2.8122,2.8423,2.8499,2.8775,2.9038,2.9239,2.9327,2.9428,2.944,2.8863,2.8436,2.8009,2.7457,2.7168,2.6992,2.703,2.703,2.715,2.7309,2.7188,2.7251,2.7143,2.6823,2.6659,2.6691,2.6804,2.6954,2.7017,2.6967,2.6955,2.7061,2.6723,2.6505,2.5695,2.4732,2.3373,2.2387,2.1638,2.1253,2.1204,2.0957,2.0967,2.0967,2.1074,2.1221,2.1143,2.1064,2.0859,2.0684,2.0684,2.0693,2.0703,2.0664,2.0644,2.0625,2.0576,2.0576,2.0576,2.0654,2.0664,2.0576,2.0576,2.0576,2.0576,2.0576,2.0557,2.0508,2.0342,2.0127,1.9968,1.9772,1.9187,1.8545,1.8398,1.8419,3.4736,3.4181,3.3736,3.3229,3.2541,3.1828,2.9832,2.7037,2.6064,2.5269,2.4486,2.5153,2.5105,2.4828,2.5815,2.5827,2.5265,2.6113,2.6088,2.6025,2.6302,2.6458,2.6521,2.6521,2.6521,2.6521,2.6521,2.6521,2.6521,2.6521,2.6521,2.6521,2.6521,2.6521,2.6521,2.6615,2.6917,2.7318,2.7519,2.8047,2.8725,2.8963,2.9164,2.9402,2.9591,2.9641,2.9679,2.9704,2.9252,2.8863,2.8637,2.8185,2.7896,2.7858,2.7996,2.8072,2.8009,2.8154,2.8277,2.8079,2.7896,2.7682,2.713,2.703,2.713,2.7318,2.7457,2.767,2.7745,2.736,2.7051,2.7097,2.7143,2.63,2.5449,2.439,2.3377,2.2726,2.2413,2.2078,2.1752,2.166,2.1602,2.166,2.1582,2.1533,2.1445,2.1299,2.1113,2.0957,2.0967,2.0947,2.0889,2.084,2.0752,2.0889,2.0721,2.0738,2.0752,2.0781,2.0673,2.0596,2.0576,2.0576,2.0576,2.0557,2.0527,2.0469,2.0371,2.0289,2.0177,1.9698,1.9014,1.9177,1.9199,3.4695,3.4467,3.3678,3.3006,3.2336,3.0791,2.9443,2.849,2.8212,2.7355,2.601,2.6665,2.6282,2.5965,2.6308,2.6201,2.6176,2.6264,2.6395,2.6408,2.642,2.6496,2.6521,2.6521,2.6521,2.6521,2.6521,2.6521,2.6521,2.6521,2.6521,2.6521,2.6521,2.6521,2.6615,2.6841,2.7331,2.772,2.7858,2.8511,2.9176,2.9465,2.9654,2.9729,2.9779,2.9779,2.9779,2.9779,2.9428,2.9377,2.9013,2.8637,2.8612,2.8285,2.8134,2.848,2.8344,2.8233,2.8518,2.8369,2.8185,2.8247,2.7821,2.777,2.7833,2.7921,2.8009,2.8235,2.8373,2.8064,2.7951,2.8022,2.7714,2.696,2.6062,2.5057,2.4111,2.3462,2.3063,2.2433,2.2109,2.2119,2.209,2.2021,2.1943,2.1914,2.1855,2.1748,2.1572,2.1416,2.1279,2.1269,2.1279,2.1211,2.1377,2.1523,2.1111,2.0852,2.0975,2.0909,2.0663,2.0634,2.0644,2.0576,2.0576,2.0576,2.0566,2.0508,2.0459,2.0498,2.0399,1.9997,1.9674,1.9738,1.9713,3.4812,3.4572,3.3721,3.2942,3.1987,3.0194,2.9328,2.9251,2.9019,2.7959,2.6588,2.7236,2.6997,2.5929,2.6163,2.6269,2.5749,2.6214,2.6483,2.6483,2.6521,2.6521,2.6521,2.6521,2.6521,2.6521,2.6521,2.6521,2.6521,2.6521,2.6521,2.6521,2.6521,2.6603,2.6816,2.7143,2.7682,2.8147,2.8549,2.9013,2.9428,2.9779,2.9779,2.9779,2.9779,2.9779,2.9779,2.9779,2.9704,2.9591,2.9151,2.9139,2.9089,2.8775,2.8812,2.9113,2.9001,2.9001,2.9151,2.9001,2.8812,2.875,2.8737,2.8787,2.8662,2.8637,2.8712,2.8837,2.8863,2.8825,2.89,2.8872,2.8256,2.7565,2.6667,2.5699,2.486,2.4032,2.34,2.2676,2.2441,2.2461,2.2422,2.2363,2.2393,2.249,2.2529,2.249,2.2217,2.1904,2.1748,2.165,2.1709,2.1748,2.1924,2.2002,2.169,2.138,2.1452,2.1328,2.0861,2.0738,2.0742,2.0684,2.0576,2.0576,2.0576,2.0576,2.0547,2.0576,2.0576,2.0293,2.0134,2.0134,1.9977,3.4908,3.4572,3.3839,3.2729,3.1554,3.0015,2.9348,2.9277,2.8649,2.7446,2.6516,2.7299,2.6869,2.5873,2.6101,2.5988,2.585,2.6163,2.6521,2.6521,2.6521,2.6521,2.6521,2.6521,2.6521,2.6521,2.6521,2.6521,2.6521,2.6521,2.6521,2.6521,2.6647,2.6779,2.7118,2.7532,2.8072,2.8612,2.895,2.9302,2.9603,2.9779,2.9779,2.9779,2.9779,2.9779,2.9779,2.9704,2.9553,2.939,2.934,2.944,2.9377,2.9377,2.9603,2.9654,2.9541,2.9528,2.9605,2.9503,2.9578,2.9628,2.9767,2.9591,2.934,2.9176,2.9214,2.9315,2.934,2.9352,2.9389,2.9349,2.8885,2.7846,2.6817,2.5721,2.4608,2.4031,2.3618,2.3051,2.2803,2.2812,2.2822,2.2764,2.2734,2.2959,2.3008,2.2978,2.2812,2.2412,2.2256,2.2109,2.2217,2.2285,2.2266,2.2305,2.2178,2.2041,2.1953,2.1689,2.1211,2.107,2.1006,2.0791,2.0576,2.0576,2.0576,2.0576,2.0576,2.0576,2.0576,2.0576,2.0508,2.0497,2.0379,3.4632,3.4223,3.3205,3.1952,3.0616,2.9745,2.9134,2.8716,2.8619,2.781,2.7138,2.7876,2.759,2.6085,2.6206,2.6076,2.6101,2.6138,2.6471,2.6521,2.6521,2.6521,2.6521,2.6521,2.6521,2.6521,2.6521,2.6521,2.6521,2.6521,2.6546,2.6515,2.6753,2.7155,2.7406,2.7896,2.8612,2.9051,2.934,2.9528,2.9729,2.9779,2.9779,2.9779,2.9779,2.9779,2.9779,2.9767,2.9716,2.9666,2.9704,2.9691,2.9616,2.9729,2.9779,2.9779,2.9779,2.9779,2.9779,2.9779,2.9779,2.9779,2.9779,2.9779,2.9716,2.9628,2.9628,2.9729,2.9779,2.9779,2.9779,2.9624,2.9365,2.8195,2.6909,2.5677,2.4436,2.4135,2.3887,2.3551,2.3222,2.3135,2.3135,2.3135,2.3144,2.3125,2.3115,2.3096,2.3086,2.2852,2.2803,2.2705,2.2812,2.2852,2.2754,2.2656,2.2559,2.2529,2.248,2.2065,2.1593,2.1238,2.0947,2.0742,2.0576,2.0576,2.0576,2.0576,2.0576,2.0576,2.0576,2.0576,2.0576,2.0585,2.0566,3.4251,3.3806,3.2656,3.1459,3.0318,2.9629,2.9058,2.8587,2.8601,2.8086,2.7255,2.7718,2.729,2.6013,2.595,2.5963,2.5975,2.6357,2.6471,2.6521,2.6521,2.6521,2.6521,2.6521,2.6521,2.6521,2.6521,2.6521,2.6521,2.6521,2.6546,2.6553,2.6992,2.7444,2.7682,2.8486,2.9089,2.934,2.9666,2.9767,2.9779,2.9779,2.9779,2.9779,2.9779,2.9779,2.9779,2.9779,2.9779,2.9779,2.9779,2.9779,2.9741,2.9767,2.9779,2.9779,2.9779,2.9779,2.9779,2.9779,2.9779,2.9779,2.9779,2.9779,2.9779,2.9691,2.9691,2.9779,2.9779,2.9779,2.9779,2.9702,2.9624,2.8821,2.749,2.6187,2.5557,2.521,2.4798,2.4211,2.3963,2.3637,2.3714,2.3877,2.3714,2.3135,2.3135,2.3222,2.3222,2.3144,2.3144,2.3144,2.3144,2.3144,2.3008,2.2969,2.2978,2.2969,2.291,2.2502,2.2055,2.1406,2.0879,2.082,2.0713,2.0576,2.0576,2.0576,2.0576,2.0576,2.0576,2.0576,2.0576,2.0576,2.0547,3.3806,3.3237,3.2228,3.1304,3.0377,2.9673,2.9134,2.8652,2.848,2.8036,2.724,2.7069,2.6068,2.5614,2.5335,2.5222,2.5448,2.6176,2.6414,2.6521,2.6521,2.6521,2.6521,2.6521,2.6521,2.6521,2.6521,2.6521,2.6521,2.6521,2.6559,2.6647,2.7055,2.762,2.8147,2.875,2.9302,2.9566,2.9779,2.9779,2.9779,2.9779,2.9779,2.9779,2.9779,2.9779,2.9779,2.9779,2.9779,2.9779,2.9779,2.9779,2.9779,2.9779,2.9779,2.9779,2.9779,2.9779,2.9779,2.9779,2.9779,2.9779,2.9779,2.9779,2.9779,2.9779,2.9779,2.9779,2.9779,2.9779,2.9779,2.9779,2.9702,2.925,2.7849,2.6834,2.6483,2.6119,2.5535,2.5041,2.4798,2.4467,2.4467,2.4617,2.4372,2.3714,2.3387,2.3299,2.3299,2.3135,2.3144,2.3144,2.3144,2.3144,2.3144,2.3144,2.3144,2.3115,2.3008,2.2832,2.251,2.1787,2.1279,2.1103,2.0977,2.0771,2.0615,2.0576,2.0576,2.0576,2.0576,2.0576,2.0576,2.0576,2.0576,3.3092,3.2109,3.188,3.1473,3.0861,2.9865,2.93,2.9058,2.8179,2.7579,2.7147,2.6232,2.5778,2.6297,2.5775,2.5586,2.585,2.6339,2.6414,2.6521,2.6521,2.6521,2.6521,2.6521,2.6521,2.6521,2.6521,2.6521,2.6521,2.6521,2.6559,2.6565,2.7532,2.8009,2.8235,2.89,2.9616,2.9779,2.9779,2.9779,2.9779,2.9779,2.9779,2.9779,2.9779,2.9779,2.9779,2.9779,2.9779,2.9779,2.9779,2.9779,2.9779,2.9779,2.9779,2.9779,2.9779,2.9779,2.9779,2.9779,2.9779,2.9779,2.9779,2.9779,2.9779,2.9779,2.9779,2.9779,2.9779,2.9779,2.9779,2.9779,2.9702,2.8803,2.7655,2.7324,2.6942,2.673,2.6295,2.613,2.613,2.588,2.5808,2.588,2.5964,2.5305,2.4638,2.4638,2.4382,2.38,2.3222,2.3222,2.3222,2.3144,2.3144,2.3144,2.3144,2.3144,2.3105,2.2939,2.2637,2.2158,2.1748,2.1455,2.1201,2.0986,2.083,2.0576,2.0576,2.0576,2.0576,2.0576,2.0576,2.0576,2.0576]}]]